Wetterdaten: Donnerstag, 24.08.2017
Datum Zeit Temp. A. Pool Temp. Feuchte A. Luftdruck Regen Wind Richtung Richtung Sonnenschein ET UV Solar Taupunkt Windchill Windben Empfang
24.08.2017 00:01 14,3 C 21,7 C 85 % 1017,0 hPa 0,0 l/m 3,9 km/h (1 Bft) S-SW 201 0 min 0,000 mm 0,0 UV-I 0 W/m 11,8 C 14,3 C 4,8 km/h (1 Bft) 100,00 %
24.08.2017 00:02 14,3 C 21,7 C 85 % 1017,0 hPa 0,0 l/m 4,3 km/h (1 Bft) S-SW 201 0 min 0,000 mm 0,0 UV-I 0 W/m 11,8 C 14,3 C 4,8 km/h (1 Bft) 100,00 %
24.08.2017 00:06 14,2 C 21,7 C 86 % 1016,9 hPa 0,0 l/m 3,7 km/h (1 Bft) S-SW 201 0 min 0,000 mm 0,0 UV-I 0 W/m 11,9 C 14,2 C 4,8 km/h (1 Bft) 98,94 %
24.08.2017 00:07 14,2 C 21,7 C 86 % 1016,9 hPa 0,0 l/m 2,5 km/h (1 Bft) S-SW 201 0 min 0,000 mm 0,0 UV-I 0 W/m 11,9 C 14,2 C 4,8 km/h (1 Bft) 100,00 %
24.08.2017 00:14 14,1 C 21,7 C 86 % 1016,9 hPa 0,0 l/m 1,5 km/h (1 Bft) S-SW 201 0 min 0,000 mm 0,0 UV-I 0 W/m 11,8 C 14,1 C 4,8 km/h (1 Bft) 96,59 %
24.08.2017 00:16 14,1 C 21,7 C 86 % 1016,8 hPa 0,0 l/m 2,3 km/h (1 Bft) S-SW 201 0 min 0,000 mm 0,0 UV-I 0 W/m 11,8 C 14,1 C 4,8 km/h (1 Bft) 97,37 %
24.08.2017 00:18 14,1 C 21,7 C 86 % 1016,9 hPa 0,0 l/m 2,1 km/h (1 Bft) S-SW 201 0 min 0,000 mm 0,0 UV-I 0 W/m 11,8 C 14,1 C 4,8 km/h (1 Bft) 93,62 %
24.08.2017 00:20 14,1 C 21,7 C 87 % 1016,9 hPa 0,0 l/m 0,9 km/h (0 Bft) S-SW 201 0 min 0,000 mm 0,0 UV-I 0 W/m 12,0 C 14,1 C 3,2 km/h (1 Bft) 96,00 %
24.08.2017 00:22 14,0 C 21,7 C 87 % 1016,9 hPa 0,0 l/m 0,1 km/h (0 Bft) S-SW 201 0 min 0,000 mm 0,0 UV-I 0 W/m 11,9 C 14,0 C 1,6 km/h (1 Bft) 95,74 %
24.08.2017 00:24 14,0 C 21,7 C 87 % 1016,8 hPa 0,0 l/m 0,0 km/h (0 Bft) S-SW 201 0 min 0,000 mm 0,0 UV-I 0 W/m 11,9 C 14,0 C 0,0 km/h (0 Bft) 95,74 %
24.08.2017 00:26 14,0 C 21,7 C 87 % 1016,8 hPa 0,0 l/m 0,0 km/h (0 Bft) S-SW 201 0 min 0,000 mm 0,0 UV-I 0 W/m 11,9 C 14,0 C 0,0 km/h (0 Bft) 97,87 %
24.08.2017 00:28 13,9 C 21,7 C 87 % 1016,8 hPa 0,0 l/m 0,1 km/h (0 Bft) S-SW 201 0 min 0,000 mm 0,0 UV-I 0 W/m 11,8 C 13,9 C 1,6 km/h (1 Bft) 95,83 %
24.08.2017 00:30 13,9 C 21,7 C 87 % 1016,8 hPa 0,0 l/m 0,0 km/h (0 Bft) S-SW 201 0 min 0,000 mm 0,0 UV-I 0 W/m 11,8 C 13,9 C 0,0 km/h (0 Bft) 97,37 %
24.08.2017 00:32 13,8 C 21,7 C 87 % 1016,8 hPa 0,0 l/m 0,0 km/h (0 Bft) S-SW 201 0 min 0,000 mm 0,0 UV-I 0 W/m 11,7 C 13,8 C 0,0 km/h (0 Bft) 94,12 %
24.08.2017 00:34 13,8 C 21,7 C 87 % 1016,8 hPa 0,0 l/m 0,0 km/h (0 Bft) S-SW 201 0 min 0,000 mm 0,0 UV-I 0 W/m 11,7 C 13,8 C 0,0 km/h (0 Bft) 95,74 %
24.08.2017 00:36 13,7 C 21,7 C 87 % 1016,8 hPa 0,0 l/m 0,0 km/h (0 Bft) S-SW 201 0 min 0,000 mm 0,0 UV-I 0 W/m 11,6 C 13,7 C 0,0 km/h (0 Bft) 95,74 %
24.08.2017 00:39 13,6 C 21,7 C 87 % 1016,9 hPa 0,0 l/m 0,0 km/h (0 Bft) S-SW 201 0 min 0,000 mm 0,0 UV-I 0 W/m 11,5 C 13,6 C 0,0 km/h (0 Bft) 97,14 %
24.08.2017 00:40 13,6 C 21,7 C 88 % 1016,9 hPa 0,0 l/m 0,0 km/h (0 Bft) S-SW 201 0 min 0,000 mm 0,0 UV-I 0 W/m 11,6 C 13,6 C 0,0 km/h (0 Bft) 100,00 %
24.08.2017 00:42 13,4 C 21,7 C 88 % 1016,8 hPa 0,0 l/m 0,0 km/h (0 Bft) S-SW 201 0 min 0,000 mm 0,0 UV-I 0 W/m 11,5 C 13,4 C 0,0 km/h (0 Bft) 96,00 %
24.08.2017 00:44 13,3 C 21,7 C 88 % 1016,9 hPa 0,0 l/m 0,0 km/h (0 Bft) S-SW 201 0 min 0,000 mm 0,0 UV-I 0 W/m 11,4 C 13,3 C 0,0 km/h (0 Bft) 98,00 %
24.08.2017 00:46 13,3 C 21,7 C 88 % 1016,9 hPa 0,0 l/m 0,0 km/h (0 Bft) S-SW 201 0 min 0,000 mm 0,0 UV-I 0 W/m 11,4 C 13,3 C 0,0 km/h (0 Bft) 100,00 %
24.08.2017 00:48 13,3 C 21,7 C 89 % 1016,9 hPa 0,0 l/m 0,0 km/h (0 Bft) S-SW 201 0 min 0,000 mm 0,0 UV-I 0 W/m 11,5 C 13,3 C 0,0 km/h (0 Bft) 97,87 %
24.08.2017 00:50 13,2 C 21,7 C 89 % 1016,9 hPa 0,0 l/m 0,0 km/h (0 Bft) S-SW 201 0 min 0,000 mm 0,0 UV-I 0 W/m 11,4 C 13,2 C 0,0 km/h (0 Bft) 100,00 %
24.08.2017 00:52 13,2 C 21,7 C 89 % 1016,9 hPa 0,0 l/m 0,0 km/h (0 Bft) S-SW 201 0 min 0,000 mm 0,0 UV-I 0 W/m 11,4 C 13,2 C 0,0 km/h (0 Bft) 100,00 %
24.08.2017 00:54 13,2 C 21,7 C 89 % 1016,9 hPa 0,0 l/m 0,0 km/h (0 Bft) S-SW 201 0 min 0,000 mm 0,0 UV-I 0 W/m 11,4 C 13,2 C 0,0 km/h (0 Bft) 95,74 %
24.08.2017 00:56 13,1 C 21,7 C 89 % 1016,8 hPa 0,0 l/m 0,0 km/h (0 Bft) S-SW 201 0 min 0,000 mm 0,0 UV-I 0 W/m 11,3 C 13,1 C 0,0 km/h (0 Bft) 100,00 %
24.08.2017 00:58 13,1 C 21,7 C 90 % 1016,8 hPa 0,0 l/m 0,4 km/h (0 Bft) S-SW 201 0 min 0,000 mm 0,0 UV-I 0 W/m 11,5 C 13,1 C 1,6 km/h (1 Bft) 100,00 %
24.08.2017 01:00 12,9 C 21,7 C 90 % 1016,8 hPa 0,0 l/m 2,0 km/h (1 Bft) S-SW 201 0 min 0,000 mm 0,0 UV-I 0 W/m 11,3 C 12,9 C 3,2 km/h (1 Bft) 100,00 %
24.08.2017 01:02 12,9 C 21,7 C 90 % 1016,8 hPa 0,0 l/m 1,9 km/h (1 Bft) S-SW 201 0 min 0,000 mm 0,0 UV-I 0 W/m 11,3 C 12,9 C 3,2 km/h (1 Bft) 100,00 %
24.08.2017 01:05 12,9 C 21,7 C 91 % 1016,7 hPa 0,0 l/m 2,4 km/h (1 Bft) S-SO 155 0 min 0,000 mm 0,0 UV-I 0 W/m 11,5 C 12,9 C 6,4 km/h (2 Bft) 100,00 %
24.08.2017 01:06 12,9 C 21,7 C 91 % 1016,7 hPa 0,0 l/m 3,4 km/h (1 Bft) SO 143 0 min 0,000 mm 0,0 UV-I 0 W/m 11,5 C 12,9 C 4,8 km/h (1 Bft) 100,00 %
24.08.2017 01:10 13,1 C 21,7 C 90 % 1016,8 hPa 0,0 l/m 1,0 km/h (0 Bft) SO 143 0 min 0,000 mm 0,0 UV-I 0 W/m 11,5 C 13,1 C 3,2 km/h (1 Bft) 100,00 %
24.08.2017 01:12 13,0 C 21,7 C 90 % 1016,7 hPa 0,0 l/m 1,0 km/h (0 Bft) SO 143 0 min 0,000 mm 0,0 UV-I 0 W/m 11,4 C 13,0 C 3,2 km/h (1 Bft) 100,00 %
24.08.2017 01:14 12,8 C 21,7 C 90 % 1016,8 hPa 0,0 l/m 0,0 km/h (0 Bft) SO 143 0 min 0,000 mm 0,0 UV-I 0 W/m 11,2 C 12,8 C 0,0 km/h (0 Bft) 100,00 %
24.08.2017 01:16 12,7 C 21,7 C 90 % 1016,8 hPa 0,0 l/m 0,4 km/h (0 Bft) SO 143 0 min 0,000 mm 0,0 UV-I 0 W/m 11,1 C 12,7 C 1,6 km/h (1 Bft) 100,00 %
24.08.2017 01:18 12,7 C 21,7 C 90 % 1016,8 hPa 0,0 l/m 0,0 km/h (0 Bft) SO 143 0 min 0,000 mm 0,0 UV-I 0 W/m 11,1 C 12,7 C 0,0 km/h (0 Bft) 100,00 %
24.08.2017 01:20 12,6 C 21,7 C 90 % 1016,8 hPa 0,0 l/m 0,0 km/h (0 Bft) SO 143 0 min 0,000 mm 0,0 UV-I 0 W/m 11,0 C 12,6 C 0,0 km/h (0 Bft) 100,00 %
24.08.2017 01:22 12,6 C 21,7 C 90 % 1016,8 hPa 0,0 l/m 0,0 km/h (0 Bft) SO 143 0 min 0,000 mm 0,0 UV-I 0 W/m 11,0 C 12,6 C 0,0 km/h (0 Bft) 100,00 %
24.08.2017 01:24 12,5 C 21,7 C 90 % 1016,8 hPa 0,0 l/m 0,0 km/h (0 Bft) SO 143 0 min 0,000 mm 0,0 UV-I 0 W/m 10,9 C 12,5 C 0,0 km/h (0 Bft) 100,00 %
24.08.2017 01:26 12,5 C 21,7 C 90 % 1016,8 hPa 0,0 l/m 0,5 km/h (0 Bft) SO 143 0 min 0,000 mm 0,0 UV-I 0 W/m 10,9 C 12,5 C 1,6 km/h (1 Bft) 98,00 %
24.08.2017 01:28 12,4 C 21,7 C 90 % 1016,8 hPa 0,0 l/m 0,1 km/h (0 Bft) SO 143 0 min 0,000 mm 0,0 UV-I 0 W/m 10,8 C 12,4 C 1,6 km/h (1 Bft) 100,00 %
24.08.2017 01:30 12,4 C 21,7 C 91 % 1016,8 hPa 0,0 l/m 0,0 km/h (0 Bft) SO 143 0 min 0,000 mm 0,0 UV-I 0 W/m 11,0 C 12,4 C 1,6 km/h (1 Bft) 100,00 %
24.08.2017 01:32 12,3 C 21,7 C 91 % 1016,8 hPa 0,0 l/m 0,4 km/h (0 Bft) SO 143 0 min 0,000 mm 0,0 UV-I 0 W/m 10,9 C 12,3 C 1,6 km/h (1 Bft) 100,00 %
24.08.2017 01:34 12,3 C 21,7 C 91 % 1016,8 hPa 0,0 l/m 1,4 km/h (1 Bft) SO 143 0 min 0,000 mm 0,0 UV-I 0 W/m 10,9 C 12,3 C 3,2 km/h (1 Bft) 100,00 %
24.08.2017 01:36 12,3 C 21,7 C 91 % 1016,8 hPa 0,0 l/m 0,4 km/h (0 Bft) SO 143 0 min 0,000 mm 0,0 UV-I 0 W/m 10,9 C 12,3 C 1,6 km/h (1 Bft) 96,00 %
24.08.2017 01:38 12,2 C 21,7 C 91 % 1016,7 hPa 0,0 l/m 0,0 km/h (0 Bft) SO 143 0 min 0,000 mm 0,0 UV-I 0 W/m 10,8 C 12,2 C 0,0 km/h (0 Bft) 97,56 %
24.08.2017 01:40 12,2 C 21,7 C 91 % 1016,8 hPa 0,0 l/m 0,0 km/h (0 Bft) SO 143 0 min 0,000 mm 0,0 UV-I 0 W/m 10,8 C 12,2 C 0,0 km/h (0 Bft) 100,00 %
24.08.2017 01:42 12,2 C 21,7 C 92 % 1016,8 hPa 0,0 l/m 0,0 km/h (0 Bft) SO 143 0 min 0,000 mm 0,0 UV-I 0 W/m 10,9 C 12,2 C 0,0 km/h (0 Bft) 100,00 %
24.08.2017 01:44 12,2 C 21,7 C 92 % 1016,8 hPa 0,0 l/m 0,0 km/h (0 Bft) SO 143 0 min 0,000 mm 0,0 UV-I 0 W/m 10,9 C 12,2 C 0,0 km/h (0 Bft) 100,00 %
24.08.2017 01:46 12,2 C 21,7 C 92 % 1016,8 hPa 0,0 l/m 1,1 km/h (1 Bft) SO 143 0 min 0,000 mm 0,0 UV-I 0 W/m 10,9 C 12,2 C 1,6 km/h (1 Bft) 100,00 %
24.08.2017 01:48 12,1 C 21,7 C 91 % 1016,8 hPa 0,0 l/m 0,5 km/h (0 Bft) SO 143 0 min 0,000 mm 0,0 UV-I 0 W/m 10,7 C 12,1 C 1,6 km/h (1 Bft) 100,00 %
24.08.2017 01:50 12,1 C 21,7 C 92 % 1016,8 hPa 0,0 l/m 0,5 km/h (0 Bft) SO 143 0 min 0,000 mm 0,0 UV-I 0 W/m 10,8 C 12,1 C 1,6 km/h (1 Bft) 98,00 %
24.08.2017 01:52 12,0 C 21,7 C 92 % 1016,8 hPa 0,0 l/m 0,0 km/h (0 Bft) SO 143 0 min 0,000 mm 0,0 UV-I 0 W/m 10,7 C 12,0 C 0,0 km/h (0 Bft) 100,00 %
24.08.2017 01:54 12,0 C 21,7 C 92 % 1016,9 hPa 0,0 l/m 0,2 km/h (0 Bft) SO 143 0 min 0,000 mm 0,0 UV-I 0 W/m 10,7 C 12,0 C 1,6 km/h (1 Bft) 100,00 %
24.08.2017 01:56 12,1 C 21,7 C 92 % 1016,8 hPa 0,0 l/m 0,1 km/h (0 Bft) SO 143 0 min 0,000 mm 0,0 UV-I 0 W/m 10,8 C 12,1 C 1,6 km/h (1 Bft) 100,00 %
24.08.2017 01:58 12,0 C 21,7 C 92 % 1016,8 hPa 0,0 l/m 2,4 km/h (1 Bft) SO 143 0 min 0,000 mm 0,0 UV-I 0 W/m 10,7 C 12,0 C 3,2 km/h (1 Bft) 100,00 %
24.08.2017 02:00 11,9 C 21,7 C 92 % 1016,7 hPa 0,0 l/m 2,5 km/h (1 Bft) SO 143 0 min 0,000 mm 0,0 UV-I 0 W/m 10,6 C 11,9 C 3,2 km/h (1 Bft) 100,00 %
24.08.2017 02:02 11,9 C 21,7 C 92 % 1016,7 hPa 0,0 l/m 2,5 km/h (1 Bft) SO 143 0 min 0,000 mm 0,0 UV-I 0 W/m 10,6 C 11,9 C 3,2 km/h (1 Bft) 100,00 %
24.08.2017 02:04 11,9 C 21,7 C 92 % 1016,8 hPa 0,0 l/m 1,9 km/h (1 Bft) SO 143 0 min 0,000 mm 0,0 UV-I 0 W/m 10,6 C 11,9 C 3,2 km/h (1 Bft) 100,00 %
24.08.2017 02:06 11,9 C 21,7 C 92 % 1016,8 hPa 0,0 l/m 0,4 km/h (0 Bft) SO 143 0 min 0,000 mm 0,0 UV-I 0 W/m 10,6 C 11,9 C 1,6 km/h (1 Bft) 95,12 %
24.08.2017 02:08 12,0 C 21,7 C 93 % 1016,8 hPa 0,0 l/m 0,0 km/h (0 Bft) SO 143 0 min 0,000 mm 0,0 UV-I 0 W/m 10,9 C 12,0 C 0,0 km/h (0 Bft) 95,74 %
24.08.2017 02:10 12,0 C 21,7 C 92 % 1016,8 hPa 0,0 l/m 0,0 km/h (0 Bft) SO 143 0 min 0,000 mm 0,0 UV-I 0 W/m 10,7 C 12,0 C 0,0 km/h (0 Bft) 97,87 %
24.08.2017 02:12 12,0 C 21,7 C 92 % 1016,8 hPa 0,0 l/m 0,0 km/h (0 Bft) SO 143 0 min 0,000 mm 0,0 UV-I 0 W/m 10,7 C 12,0 C 0,0 km/h (0 Bft) 94,00 %
24.08.2017 02:14 12,0 C 21,7 C 92 % 1016,8 hPa 0,0 l/m 0,0 km/h (0 Bft) SO 143 0 min 0,000 mm 0,0 UV-I 0 W/m 10,7 C 12,0 C 1,6 km/h (1 Bft) 96,00 %
24.08.2017 02:16 12,0 C 21,7 C 92 % 1016,8 hPa 0,0 l/m 0,0 km/h (0 Bft) SO 143 0 min 0,000 mm 0,0 UV-I 0 W/m 10,7 C 12,0 C 0,0 km/h (0 Bft) 94,29 %
24.08.2017 02:18 12,0 C 21,7 C 92 % 1016,8 hPa 0,0 l/m 0,0 km/h (0 Bft) SO 143 0 min 0,000 mm 0,0 UV-I 0 W/m 10,7 C 12,0 C 0,0 km/h (0 Bft) 96,00 %
24.08.2017 02:20 12,0 C 21,7 C 92 % 1016,9 hPa 0,0 l/m 0,0 km/h (0 Bft) SO 143 0 min 0,000 mm 0,0 UV-I 0 W/m 10,7 C 12,0 C 0,0 km/h (0 Bft) 96,23 %
24.08.2017 02:22 11,9 C 21,7 C 92 % 1016,8 hPa 0,0 l/m 0,0 km/h (0 Bft) SO 143 0 min 0,000 mm 0,0 UV-I 0 W/m 10,6 C 11,9 C 0,0 km/h (0 Bft) 95,00 %
24.08.2017 02:24 11,9 C 21,7 C 92 % 1016,8 hPa 0,0 l/m 0,0 km/h (0 Bft) SO 143 0 min 0,000 mm 0,0 UV-I 0 W/m 10,6 C 11,9 C 0,0 km/h (0 Bft) 93,18 %
24.08.2017 02:26 11,9 C 21,7 C 92 % 1016,8 hPa 0,0 l/m 0,0 km/h (0 Bft) SO 143 0 min 0,000 mm 0,0 UV-I 0 W/m 10,6 C 11,9 C 0,0 km/h (0 Bft) 94,34 %
24.08.2017 02:28 11,9 C 21,7 C 92 % 1016,8 hPa 0,0 l/m 0,0 km/h (0 Bft) SO 143 0 min 0,000 mm 0,0 UV-I 0 W/m 10,6 C 11,9 C 0,0 km/h (0 Bft) 94,00 %
24.08.2017 02:30 11,9 C 21,7 C 92 % 1016,8 hPa 0,0 l/m 1,0 km/h (0 Bft) SO 143 0 min 0,000 mm 0,0 UV-I 0 W/m 10,6 C 11,9 C 3,2 km/h (1 Bft) 95,74 %
24.08.2017 02:32 11,9 C 21,7 C 92 % 1016,8 hPa 0,0 l/m 1,3 km/h (1 Bft) SO 143 0 min 0,000 mm 0,0 UV-I 0 W/m 10,6 C 11,9 C 1,6 km/h (1 Bft) 95,12 %
24.08.2017 02:34 11,8 C 21,7 C 92 % 1016,8 hPa 0,0 l/m 1,8 km/h (1 Bft) SO 143 0 min 0,000 mm 0,0 UV-I 0 W/m 10,5 C 11,8 C 3,2 km/h (1 Bft) 96,00 %
24.08.2017 02:36 11,8 C 21,7 C 93 % 1016,8 hPa 0,0 l/m 0,6 km/h (0 Bft) SO 143 0 min 0,000 mm 0,0 UV-I 0 W/m 10,7 C 11,8 C 1,6 km/h (1 Bft) 96,00 %
24.08.2017 02:38 11,8 C 21,7 C 93 % 1016,8 hPa 0,0 l/m 0,0 km/h (0 Bft) SO 143 0 min 0,000 mm 0,0 UV-I 0 W/m 10,7 C 11,8 C 1,6 km/h (1 Bft) 95,74 %
24.08.2017 02:40 11,8 C 21,7 C 93 % 1016,8 hPa 0,0 l/m 0,0 km/h (0 Bft) SO 143 0 min 0,000 mm 0,0 UV-I 0 W/m 10,7 C 11,8 C 0,0 km/h (0 Bft) 94,00 %
24.08.2017 02:42 11,8 C 21,7 C 93 % 1016,8 hPa 0,0 l/m 0,0 km/h (0 Bft) SO 143 0 min 0,000 mm 0,0 UV-I 0 W/m 10,7 C 11,8 C 0,0 km/h (0 Bft) 94,29 %
24.08.2017 02:44 11,8 C 21,7 C 93 % 1016,8 hPa 0,0 l/m 0,0 km/h (0 Bft) SO 143 0 min 0,000 mm 0,0 UV-I 0 W/m 10,7 C 11,8 C 0,0 km/h (0 Bft) 95,74 %
24.08.2017 02:46 11,8 C 21,7 C 93 % 1016,8 hPa 0,0 l/m 0,1 km/h (0 Bft) SO 143 0 min 0,000 mm 0,0 UV-I 0 W/m 10,7 C 11,8 C 1,6 km/h (1 Bft) 97,87 %
24.08.2017 02:48 11,8 C 21,7 C 93 % 1016,8 hPa 0,0 l/m 0,5 km/h (0 Bft) SO 143 0 min 0,000 mm 0,0 UV-I 0 W/m 10,7 C 11,8 C 1,6 km/h (1 Bft) 95,74 %
24.08.2017 02:50 11,8 C 21,7 C 93 % 1016,8 hPa 0,0 l/m 0,0 km/h (0 Bft) SO 143 0 min 0,000 mm 0,0 UV-I 0 W/m 10,7 C 11,8 C 0,0 km/h (0 Bft) 97,92 %
24.08.2017 02:52 11,7 C 21,7 C 93 % 1016,7 hPa 0,0 l/m 0,0 km/h (0 Bft) SO 143 0 min 0,000 mm 0,0 UV-I 0 W/m 10,6 C 11,7 C 0,0 km/h (0 Bft) 98,11 %
24.08.2017 02:54 11,7 C 21,7 C 93 % 1016,7 hPa 0,0 l/m 0,0 km/h (0 Bft) SO 143 0 min 0,000 mm 0,0 UV-I 0 W/m 10,6 C 11,7 C 0,0 km/h (0 Bft) 97,56 %
24.08.2017 02:56 11,7 C 21,7 C 93 % 1016,8 hPa 0,0 l/m 0,0 km/h (0 Bft) SO 143 0 min 0,000 mm 0,0 UV-I 0 W/m 10,6 C 11,7 C 1,6 km/h (1 Bft) 98,00 %
24.08.2017 02:58 11,6 C 21,7 C 93 % 1016,8 hPa 0,0 l/m 0,3 km/h (0 Bft) SO 143 0 min 0,000 mm 0,0 UV-I 0 W/m 10,5 C 11,6 C 1,6 km/h (1 Bft) 97,87 %
24.08.2017 03:00 11,6 C 21,7 C 93 % 1016,8 hPa 0,0 l/m 0,0 km/h (0 Bft) SO 143 0 min 0,000 mm 0,0 UV-I 0 W/m 10,5 C 11,6 C 0,0 km/h (0 Bft) 96,23 %
24.08.2017 03:02 11,7 C 21,7 C 93 % 1016,7 hPa 0,0 l/m 0,4 km/h (0 Bft) SO 143 0 min 0,000 mm 0,0 UV-I 0 W/m 10,6 C 11,7 C 1,6 km/h (1 Bft) 100,00 %
24.08.2017 03:04 11,7 C 21,7 C 93 % 1016,7 hPa 0,0 l/m 1,3 km/h (1 Bft) SO 143 0 min 0,000 mm 0,0 UV-I 0 W/m 10,6 C 11,7 C 3,2 km/h (1 Bft) 97,87 %
24.08.2017 03:06 11,7 C 21,7 C 93 % 1016,8 hPa 0,0 l/m 0,2 km/h (0 Bft) SO 143 0 min 0,000 mm 0,0 UV-I 0 W/m 10,6 C 11,7 C 1,6 km/h (1 Bft) 97,87 %
24.08.2017 03:08 11,7 C 21,7 C 93 % 1016,7 hPa 0,0 l/m 0,0 km/h (0 Bft) SO 143 0 min 0,000 mm 0,0 UV-I 0 W/m 10,6 C 11,7 C 0,0 km/h (0 Bft) 100,00 %
24.08.2017 03:10 11,6 C 21,7 C 93 % 1016,7 hPa 0,0 l/m 0,1 km/h (0 Bft) SO 143 0 min 0,000 mm 0,0 UV-I 0 W/m 10,5 C 11,6 C 1,6 km/h (1 Bft) 100,00 %
24.08.2017 03:12 11,5 C 21,7 C 93 % 1016,7 hPa 0,0 l/m 1,2 km/h (1 Bft) SO 143 0 min 0,000 mm 0,0 UV-I 0 W/m 10,4 C 11,5 C 1,6 km/h (1 Bft) 97,87 %
24.08.2017 03:14 11,5 C 21,7 C 93 % 1016,7 hPa 0,0 l/m 1,1 km/h (1 Bft) SO 143 0 min 0,000 mm 0,0 UV-I 0 W/m 10,4 C 11,5 C 1,6 km/h (1 Bft) 100,00 %
24.08.2017 03:16 11,4 C 21,7 C 93 % 1016,7 hPa 0,0 l/m 0,3 km/h (0 Bft) SO 143 0 min 0,000 mm 0,0 UV-I 0 W/m 10,3 C 11,4 C 1,6 km/h (1 Bft) 100,00 %
24.08.2017 03:18 11,5 C 21,7 C 93 % 1016,8 hPa 0,0 l/m 0,0 km/h (0 Bft) SO 143 0 min 0,000 mm 0,0 UV-I 0 W/m 10,4 C 11,5 C 0,0 km/h (0 Bft) 100,00 %
24.08.2017 03:20 11,5 C 21,7 C 94 % 1016,7 hPa 0,0 l/m 0,0 km/h (0 Bft) SO 143 0 min 0,000 mm 0,0 UV-I 0 W/m 10,6 C 11,5 C 0,0 km/h (0 Bft) 100,00 %
24.08.2017 03:22 11,5 C 21,7 C 94 % 1016,7 hPa 0,0 l/m 0,0 km/h (0 Bft) SO 143 0 min 0,000 mm 0,0 UV-I 0 W/m 10,6 C 11,5 C 0,0 km/h (0 Bft) 98,00 %
24.08.2017 03:24 11,5 C 21,7 C 94 % 1016,7 hPa 0,0 l/m 0,0 km/h (0 Bft) SO 143 0 min 0,000 mm 0,0 UV-I 0 W/m 10,6 C 11,5 C 0,0 km/h (0 Bft) 98,00 %
24.08.2017 03:26 11,5 C 21,7 C 94 % 1016,7 hPa 0,0 l/m 0,0 km/h (0 Bft) SO 143 0 min 0,000 mm 0,0 UV-I 0 W/m 10,6 C 11,5 C 0,0 km/h (0 Bft) 100,00 %
24.08.2017 03:28 11,6 C 21,7 C 94 % 1016,6 hPa 0,0 l/m 0,0 km/h (0 Bft) SO 143 0 min 0,000 mm 0,0 UV-I 0 W/m 10,7 C 11,6 C 0,0 km/h (0 Bft) 97,37 %
24.08.2017 03:30 11,6 C 21,7 C 94 % 1016,6 hPa 0,0 l/m 0,0 km/h (0 Bft) SO 143 0 min 0,000 mm 0,0 UV-I 0 W/m 10,7 C 11,6 C 0,0 km/h (0 Bft) 95,74 %
24.08.2017 03:32 11,5 C 21,7 C 94 % 1016,6 hPa 0,0 l/m 0,0 km/h (0 Bft) SO 143 0 min 0,000 mm 0,0 UV-I 0 W/m 10,6 C 11,5 C 0,0 km/h (0 Bft) 98,00 %
24.08.2017 03:34 11,5 C 21,7 C 94 % 1016,7 hPa 0,0 l/m 0,0 km/h (0 Bft) SO 143 0 min 0,000 mm 0,0 UV-I 0 W/m 10,6 C 11,5 C 0,0 km/h (0 Bft) 98,00 %
24.08.2017 03:36 11,4 C 21,7 C 93 % 1016,7 hPa 0,0 l/m 0,0 km/h (0 Bft) SO 143 0 min 0,000 mm 0,0 UV-I 0 W/m 10,3 C 11,4 C 1,6 km/h (1 Bft) 100,00 %
24.08.2017 03:38 11,4 C 21,7 C 93 % 1016,8 hPa 0,0 l/m 1,7 km/h (1 Bft) SO 143 0 min 0,000 mm 0,0 UV-I 0 W/m 10,3 C 11,4 C 3,2 km/h (1 Bft) 98,00 %
24.08.2017 03:40 11,4 C 21,7 C 93 % 1016,9 hPa 0,0 l/m 1,5 km/h (1 Bft) SO 143 0 min 0,000 mm 0,0 UV-I 0 W/m 10,3 C 11,4 C 3,2 km/h (1 Bft) 100,00 %
24.08.2017 03:42 11,3 C 21,7 C 93 % 1016,9 hPa 0,0 l/m 1,6 km/h (1 Bft) SO 143 0 min 0,000 mm 0,0 UV-I 0 W/m 10,2 C 11,3 C 3,2 km/h (1 Bft) 100,00 %
24.08.2017 03:44 11,3 C 21,7 C 93 % 1016,8 hPa 0,0 l/m 0,7 km/h (0 Bft) SO 143 0 min 0,000 mm 0,0 UV-I 0 W/m 10,2 C 11,3 C 1,6 km/h (1 Bft) 97,92 %
24.08.2017 03:46 11,3 C 21,7 C 93 % 1016,7 hPa 0,0 l/m 0,3 km/h (0 Bft) SO 143 0 min 0,000 mm 0,0 UV-I 0 W/m 10,2 C 11,3 C 1,6 km/h (1 Bft) 100,00 %
24.08.2017 03:48 11,2 C 21,7 C 93 % 1016,7 hPa 0,0 l/m 0,4 km/h (0 Bft) SO 143 0 min 0,000 mm 0,0 UV-I 0 W/m 10,1 C 11,2 C 3,2 km/h (1 Bft) 100,00 %
24.08.2017 03:50 11,1 C 21,7 C 93 % 1016,6 hPa 0,0 l/m 2,3 km/h (1 Bft) SO 143 0 min 0,000 mm 0,0 UV-I 0 W/m 10,0 C 11,1 C 3,2 km/h (1 Bft) 100,00 %
24.08.2017 03:52 11,1 C 21,7 C 93 % 1016,6 hPa 0,0 l/m 3,0 km/h (1 Bft) SO 143 0 min 0,000 mm 0,0 UV-I 0 W/m 10,0 C 11,1 C 3,2 km/h (1 Bft) 97,87 %
24.08.2017 03:54 11,1 C 21,7 C 94 % 1016,5 hPa 0,0 l/m 2,2 km/h (1 Bft) SO 143 0 min 0,000 mm 0,0 UV-I 0 W/m 10,2 C 11,1 C 3,2 km/h (1 Bft) 100,00 %
24.08.2017 03:56 11,2 C 21,7 C 94 % 1016,6 hPa 0,0 l/m 1,4 km/h (1 Bft) SO 143 0 min 0,000 mm 0,0 UV-I 0 W/m 10,3 C 11,2 C 3,2 km/h (1 Bft) 100,00 %
24.08.2017 03:58 11,2 C 21,7 C 94 % 1016,6 hPa 0,0 l/m 0,7 km/h (0 Bft) SO 143 0 min 0,000 mm 0,0 UV-I 0 W/m 10,3 C 11,2 C 1,6 km/h (1 Bft) 98,00 %
24.08.2017 04:00 11,3 C 21,7 C 94 % 1016,6 hPa 0,0 l/m 0,0 km/h (0 Bft) SO 143 0 min 0,000 mm 0,0 UV-I 0 W/m 10,4 C 11,3 C 0,0 km/h (0 Bft) 100,00 %
24.08.2017 04:02 11,3 C 21,7 C 94 % 1016,6 hPa 0,0 l/m 0,0 km/h (0 Bft) SO 143 0 min 0,000 mm 0,0 UV-I 0 W/m 10,4 C 11,3 C 0,0 km/h (0 Bft) 97,87 %
24.08.2017 04:04 11,3 C 21,7 C 94 % 1016,5 hPa 0,0 l/m 0,0 km/h (0 Bft) SO 143 0 min 0,000 mm 0,0 UV-I 0 W/m 10,4 C 11,3 C 0,0 km/h (0 Bft) 100,00 %
24.08.2017 04:06 11,2 C 21,1 C 94 % 1016,6 hPa 0,0 l/m 0,0 km/h (0 Bft) SO 143 0 min 0,000 mm 0,0 UV-I 0 W/m 10,3 C 11,2 C 0,0 km/h (0 Bft) 100,00 %
24.08.2017 04:08 11,2 C 21,1 C 94 % 1016,6 hPa 0,0 l/m 0,0 km/h (0 Bft) SO 143 0 min 0,000 mm 0,0 UV-I 0 W/m 10,3 C 11,2 C 0,0 km/h (0 Bft) 100,00 %
24.08.2017 04:10 11,1 C 21,1 C 94 % 1016,6 hPa 0,0 l/m 0,0 km/h (0 Bft) SO 143 0 min 0,000 mm 0,0 UV-I 0 W/m 10,2 C 11,1 C 0,0 km/h (0 Bft) 100,00 %
24.08.2017 04:12 11,1 C 21,1 C 94 % 1016,6 hPa 0,0 l/m 0,0 km/h (0 Bft) SO 143 0 min 0,000 mm 0,0 UV-I 0 W/m 10,2 C 11,1 C 0,0 km/h (0 Bft) 100,00 %
24.08.2017 04:14 11,1 C 21,1 C 94 % 1016,7 hPa 0,0 l/m 0,0 km/h (0 Bft) SO 143 0 min 0,000 mm 0,0 UV-I 0 W/m 10,2 C 11,1 C 0,0 km/h (0 Bft) 100,00 %
24.08.2017 04:16 11,1 C 21,1 C 94 % 1016,6 hPa 0,0 l/m 0,0 km/h (0 Bft) SO 143 0 min 0,000 mm 0,0 UV-I 0 W/m 10,2 C 11,1 C 0,0 km/h (0 Bft) 97,87 %
24.08.2017 04:18 11,1 C 21,1 C 94 % 1016,6 hPa 0,0 l/m 0,0 km/h (0 Bft) SO 143 0 min 0,000 mm 0,0 UV-I 0 W/m 10,2 C 11,1 C 0,0 km/h (0 Bft) 96,00 %
24.08.2017 04:20 11,1 C 21,1 C 94 % 1016,7 hPa 0,0 l/m 0,0 km/h (0 Bft) SO 143 0 min 0,000 mm 0,0 UV-I 0 W/m 10,2 C 11,1 C 0,0 km/h (0 Bft) 97,44 %
24.08.2017 04:22 11,0 C 21,1 C 94 % 1016,7 hPa 0,0 l/m 0,0 km/h (0 Bft) SO 143 0 min 0,000 mm 0,0 UV-I 0 W/m 10,1 C 11,0 C 0,0 km/h (0 Bft) 97,87 %
24.08.2017 04:24 10,9 C 21,1 C 94 % 1016,6 hPa 0,0 l/m 0,0 km/h (0 Bft) SO 143 0 min 0,000 mm 0,0 UV-I 0 W/m 10,0 C 10,9 C 0,0 km/h (0 Bft) 97,87 %
24.08.2017 04:26 10,9 C 21,1 C 94 % 1016,7 hPa 0,0 l/m 0,0 km/h (0 Bft) SO 143 0 min 0,000 mm 0,0 UV-I 0 W/m 10,0 C 10,9 C 0,0 km/h (0 Bft) 97,87 %
24.08.2017 04:28 10,9 C 21,1 C 94 % 1016,6 hPa 0,0 l/m 0,0 km/h (0 Bft) SO 143 0 min 0,000 mm 0,0 UV-I 0 W/m 10,0 C 10,9 C 0,0 km/h (0 Bft) 98,00 %
24.08.2017 04:30 10,9 C 21,1 C 94 % 1016,6 hPa 0,0 l/m 0,0 km/h (0 Bft) SO 143 0 min 0,000 mm 0,0 UV-I 0 W/m 10,0 C 10,9 C 0,0 km/h (0 Bft) 94,00 %
24.08.2017 04:32 10,9 C 21,1 C 94 % 1016,7 hPa 0,0 l/m 0,0 km/h (0 Bft) SO 143 0 min 0,000 mm 0,0 UV-I 0 W/m 10,0 C 10,9 C 0,0 km/h (0 Bft) 97,37 %
24.08.2017 04:34 10,9 C 21,1 C 94 % 1016,6 hPa 0,0 l/m 0,0 km/h (0 Bft) SO 143 0 min 0,000 mm 0,0 UV-I 0 W/m 10,0 C 10,9 C 0,0 km/h (0 Bft) 98,00 %
24.08.2017 04:36 11,0 C 21,1 C 94 % 1016,6 hPa 0,0 l/m 0,0 km/h (0 Bft) SO 143 0 min 0,000 mm 0,0 UV-I 0 W/m 10,1 C 11,0 C 0,0 km/h (0 Bft) 93,62 %
24.08.2017 04:38 10,9 C 21,1 C 94 % 1016,6 hPa 0,0 l/m 0,0 km/h (0 Bft) SO 143 0 min 0,000 mm 0,0 UV-I 0 W/m 10,0 C 10,9 C 0,0 km/h (0 Bft) 97,87 %
24.08.2017 04:40 11,0 C 21,1 C 94 % 1016,5 hPa 0,0 l/m 0,0 km/h (0 Bft) SO 143 0 min 0,000 mm 0,0 UV-I 0 W/m 10,1 C 11,0 C 0,0 km/h (0 Bft) 96,00 %
24.08.2017 04:42 10,9 C 21,1 C 94 % 1016,5 hPa 0,0 l/m 0,0 km/h (0 Bft) SO 143 0 min 0,000 mm 0,0 UV-I 0 W/m 10,0 C 10,9 C 0,0 km/h (0 Bft) 98,00 %
24.08.2017 04:44 10,9 C 21,1 C 94 % 1016,5 hPa 0,0 l/m 0,0 km/h (0 Bft) SO 143 0 min 0,000 mm 0,0 UV-I 0 W/m 10,0 C 10,9 C 0,0 km/h (0 Bft) 97,87 %
24.08.2017 04:46 10,9 C 21,1 C 94 % 1016,5 hPa 0,0 l/m 0,0 km/h (0 Bft) SO 143 0 min 0,000 mm 0,0 UV-I 0 W/m 10,0 C 10,9 C 0,0 km/h (0 Bft) 93,62 %
24.08.2017 04:48 10,9 C 21,1 C 94 % 1016,5 hPa 0,0 l/m 0,3 km/h (0 Bft) SO 143 0 min 0,000 mm 0,0 UV-I 0 W/m 10,0 C 10,9 C 1,6 km/h (1 Bft) 100,00 %
24.08.2017 04:50 10,9 C 21,1 C 94 % 1016,5 hPa 0,0 l/m 0,5 km/h (0 Bft) SO 143 0 min 0,000 mm 0,0 UV-I 0 W/m 10,0 C 10,9 C 1,6 km/h (1 Bft) 97,87 %
24.08.2017 04:52 10,9 C 21,1 C 94 % 1016,5 hPa 0,0 l/m 0,0 km/h (0 Bft) SO 143 0 min 0,000 mm 0,0 UV-I 0 W/m 10,0 C 10,9 C 0,0 km/h (0 Bft) 100,00 %
24.08.2017 04:54 11,0 C 21,1 C 94 % 1016,5 hPa 0,0 l/m 0,0 km/h (0 Bft) SO 143 0 min 0,000 mm 0,0 UV-I 0 W/m 10,1 C 11,0 C 0,0 km/h (0 Bft) 100,00 %
24.08.2017 04:56 11,0 C 21,1 C 94 % 1016,5 hPa 0,0 l/m 0,0 km/h (0 Bft) SO 143 0 min 0,000 mm 0,0 UV-I 0 W/m 10,1 C 11,0 C 0,0 km/h (0 Bft) 97,37 %
24.08.2017 04:58 11,0 C 21,1 C 95 % 1016,4 hPa 0,0 l/m 0,0 km/h (0 Bft) SO 143 0 min 0,000 mm 0,0 UV-I 0 W/m 10,2 C 11,0 C 0,0 km/h (0 Bft) 98,00 %
24.08.2017 05:00 10,9 C 21,1 C 94 % 1016,4 hPa 0,0 l/m 0,1 km/h (0 Bft) SO 143 0 min 0,000 mm 0,0 UV-I 0 W/m 10,0 C 10,9 C 1,6 km/h (1 Bft) 100,00 %
24.08.2017 05:02 10,9 C 21,1 C 94 % 1016,4 hPa 0,0 l/m 0,1 km/h (0 Bft) SO 143 0 min 0,000 mm 0,0 UV-I 0 W/m 10,0 C 10,9 C 1,6 km/h (1 Bft) 100,00 %
24.08.2017 05:04 10,9 C 21,1 C 95 % 1016,4 hPa 0,0 l/m 0,0 km/h (0 Bft) SO 143 0 min 0,000 mm 0,0 UV-I 0 W/m 10,1 C 10,9 C 0,0 km/h (0 Bft) 100,00 %
24.08.2017 05:06 10,9 C 21,1 C 94 % 1016,4 hPa 0,0 l/m 0,0 km/h (0 Bft) SO 143 0 min 0,000 mm 0,0 UV-I 0 W/m 10,0 C 10,9 C 0,0 km/h (0 Bft) 97,87 %
24.08.2017 05:08 11,0 C 21,1 C 95 % 1016,4 hPa 0,0 l/m 0,5 km/h (0 Bft) SO 143 0 min 0,000 mm 0,0 UV-I 0 W/m 10,2 C 11,0 C 1,6 km/h (1 Bft) 97,37 %
24.08.2017 05:10 10,9 C 21,1 C 94 % 1016,4 hPa 0,0 l/m 0,0 km/h (0 Bft) SO 143 0 min 0,000 mm 0,0 UV-I 0 W/m 10,0 C 10,9 C 1,6 km/h (1 Bft) 100,00 %
24.08.2017 05:12 10,8 C 21,1 C 94 % 1016,5 hPa 0,0 l/m 0,0 km/h (0 Bft) SO 143 0 min 0,000 mm 0,0 UV-I 0 W/m 9,9 C 10,8 C 1,6 km/h (1 Bft) 100,00 %
24.08.2017 05:14 10,8 C 21,1 C 94 % 1016,5 hPa 0,0 l/m 1,6 km/h (1 Bft) SO 143 0 min 0,000 mm 0,0 UV-I 0 W/m 9,9 C 10,8 C 3,2 km/h (1 Bft) 97,37 %
24.08.2017 05:16 10,8 C 21,1 C 94 % 1016,5 hPa 0,0 l/m 1,1 km/h (1 Bft) SO 143 0 min 0,000 mm 0,0 UV-I 0 W/m 9,9 C 10,8 C 1,6 km/h (1 Bft) 98,00 %
24.08.2017 05:18 10,7 C 21,1 C 94 % 1016,5 hPa 0,0 l/m 0,0 km/h (0 Bft) SO 143 0 min 0,000 mm 0,0 UV-I 0 W/m 9,8 C 10,7 C 0,0 km/h (0 Bft) 97,87 %
24.08.2017 05:20 10,7 C 21,1 C 94 % 1016,5 hPa 0,0 l/m 0,0 km/h (0 Bft) SO 143 0 min 0,000 mm 0,0 UV-I 0 W/m 9,8 C 10,7 C 0,0 km/h (0 Bft) 98,00 %
24.08.2017 05:22 10,7 C 21,1 C 95 % 1016,5 hPa 0,0 l/m 0,0 km/h (0 Bft) SO 143 0 min 0,000 mm 0,0 UV-I 0 W/m 9,9 C 10,7 C 0,0 km/h (0 Bft) 97,56 %
24.08.2017 05:24 10,8 C 21,1 C 95 % 1016,5 hPa 0,0 l/m 1,1 km/h (1 Bft) SO 143 0 min 0,000 mm 0,0 UV-I 0 W/m 10,0 C 10,8 C 3,2 km/h (1 Bft) 98,00 %
24.08.2017 05:26 10,8 C 21,1 C 95 % 1016,5 hPa 0,0 l/m 2,2 km/h (1 Bft) SO 143 0 min 0,000 mm 0,0 UV-I 0 W/m 10,0 C 10,8 C 3,2 km/h (1 Bft) 97,56 %
24.08.2017 05:28 10,8 C 21,1 C 95 % 1016,4 hPa 0,0 l/m 0,5 km/h (0 Bft) SO 143 0 min 0,000 mm 0,0 UV-I 0 W/m 10,0 C 10,8 C 1,6 km/h (1 Bft) 98,11 %
24.08.2017 05:30 10,8 C 21,1 C 95 % 1016,4 hPa 0,0 l/m 0,3 km/h (0 Bft) SO 143 0 min 0,000 mm 0,0 UV-I 0 W/m 10,0 C 10,8 C 1,6 km/h (1 Bft) 97,87 %
24.08.2017 05:32 10,8 C 21,1 C 95 % 1016,4 hPa 0,0 l/m 0,0 km/h (0 Bft) SO 143 0 min 0,000 mm 0,0 UV-I 0 W/m 10,0 C 10,8 C 0,0 km/h (0 Bft) 97,56 %
24.08.2017 05:34 10,8 C 21,1 C 95 % 1016,4 hPa 0,0 l/m 0,0 km/h (0 Bft) SO 143 0 min 0,000 mm 0,0 UV-I 0 W/m 10,0 C 10,8 C 0,0 km/h (0 Bft) 97,87 %
24.08.2017 05:36 10,8 C 21,1 C 95 % 1016,5 hPa 0,0 l/m 0,0 km/h (0 Bft) SO 143 0 min 0,000 mm 0,0 UV-I 0 W/m 10,0 C 10,8 C 0,0 km/h (0 Bft) 96,00 %
24.08.2017 05:38 10,8 C 21,1 C 95 % 1016,5 hPa 0,0 l/m 0,1 km/h (0 Bft) SO 143 0 min 0,000 mm 0,0 UV-I 0 W/m 10,0 C 10,8 C 1,6 km/h (1 Bft) 96,00 %
24.08.2017 05:40 10,8 C 21,1 C 95 % 1016,5 hPa 0,0 l/m 0,9 km/h (0 Bft) SO 143 0 min 0,000 mm 0,0 UV-I 0 W/m 10,0 C 10,8 C 1,6 km/h (1 Bft) 98,00 %
24.08.2017 05:42 10,8 C 21,1 C 95 % 1016,6 hPa 0,0 l/m 0,0 km/h (0 Bft) SO 143 0 min 0,000 mm 0,0 UV-I 0 W/m 10,0 C 10,8 C 0,0 km/h (0 Bft) 97,22 %
24.08.2017 05:44 10,8 C 21,1 C 95 % 1016,6 hPa 0,0 l/m 0,0 km/h (0 Bft) SO 143 0 min 0,000 mm 0,0 UV-I 0 W/m 10,0 C 10,8 C 1,6 km/h (1 Bft) 97,87 %
24.08.2017 05:46 10,7 C 21,1 C 94 % 1016,5 hPa 0,0 l/m 0,0 km/h (0 Bft) SO 143 0 min 0,000 mm 0,0 UV-I 0 W/m 9,8 C 10,7 C 0,0 km/h (0 Bft) 98,00 %
24.08.2017 05:48 10,7 C 21,1 C 95 % 1016,5 hPa 0,0 l/m 0,0 km/h (0 Bft) SO 143 0 min 0,000 mm 0,0 UV-I 0 W/m 9,9 C 10,7 C 0,0 km/h (0 Bft) 98,11 %
24.08.2017 05:50 10,7 C 21,1 C 95 % 1016,5 hPa 0,0 l/m 0,0 km/h (0 Bft) SO 143 0 min 0,000 mm 0,0 UV-I 0 W/m 9,9 C 10,7 C 0,0 km/h (0 Bft) 97,87 %
24.08.2017 05:52 10,7 C 21,1 C 95 % 1016,5 hPa 0,0 l/m 0,0 km/h (0 Bft) SO 143 0 min 0,000 mm 0,0 UV-I 0 W/m 9,9 C 10,7 C 0,0 km/h (0 Bft) 95,74 %
24.08.2017 05:54 10,7 C 21,1 C 95 % 1016,5 hPa 0,0 l/m 0,0 km/h (0 Bft) SO 143 0 min 0,000 mm 0,0 UV-I 0 W/m 9,9 C 10,7 C 0,0 km/h (0 Bft) 93,62 %
24.08.2017 05:56 10,7 C 21,1 C 95 % 1016,4 hPa 0,0 l/m 0,0 km/h (0 Bft) SO 143 0 min 0,000 mm 0,0 UV-I 0 W/m 9,9 C 10,7 C 0,0 km/h (0 Bft) 100,00 %
24.08.2017 05:58 10,7 C 21,1 C 95 % 1016,4 hPa 0,0 l/m 0,0 km/h (0 Bft) SO 143 0 min 0,000 mm 0,0 UV-I 0 W/m 9,9 C 10,7 C 0,0 km/h (0 Bft) 98,00 %
24.08.2017 06:00 10,7 C 21,1 C 95 % 1016,4 hPa 0,0 l/m 0,0 km/h (0 Bft) SO 143 0 min 0,000 mm 0,0 UV-I 2 W/m 9,9 C 10,7 C 0,0 km/h (0 Bft) 98,00 %
24.08.2017 06:02 10,7 C 21,1 C 95 % 1016,4 hPa 0,0 l/m 0,0 km/h (0 Bft) SO 143 0 min 0,000 mm 0,0 UV-I 5 W/m 9,9 C 10,7 C 0,0 km/h (0 Bft) 97,87 %
24.08.2017 06:04 10,7 C 21,1 C 95 % 1016,5 hPa 0,0 l/m 0,0 km/h (0 Bft) SO 143 0 min 0,000 mm 0,0 UV-I 5 W/m 9,9 C 10,7 C 0,0 km/h (0 Bft) 97,56 %
24.08.2017 06:06 10,8 C 21,1 C 95 % 1016,5 hPa 0,0 l/m 0,0 km/h (0 Bft) SO 143 0 min 0,000 mm 0,0 UV-I 7 W/m 10,0 C 10,8 C 0,0 km/h (0 Bft) 95,74 %
24.08.2017 06:08 10,8 C 21,1 C 95 % 1016,5 hPa 0,0 l/m 0,0 km/h (0 Bft) SO 143 0 min 0,000 mm 0,0 UV-I 7 W/m 10,0 C 10,8 C 0,0 km/h (0 Bft) 97,87 %
24.08.2017 06:10 10,8 C 21,1 C 95 % 1016,5 hPa 0,0 l/m 0,0 km/h (0 Bft) SO 143 0 min 0,000 mm 0,0 UV-I 7 W/m 10,0 C 10,8 C 0,0 km/h (0 Bft) 100,00 %
24.08.2017 06:12 10,8 C 21,1 C 95 % 1016,5 hPa 0,0 l/m 0,0 km/h (0 Bft) SO 143 0 min 0,000 mm 0,0 UV-I 7 W/m 10,0 C 10,8 C 0,0 km/h (0 Bft) 100,00 %
24.08.2017 06:14 10,8 C 21,1 C 95 % 1016,5 hPa 0,0 l/m 0,0 km/h (0 Bft) SO 143 0 min 0,000 mm 0,0 UV-I 7 W/m 10,0 C 10,8 C 0,0 km/h (0 Bft) 100,00 %
24.08.2017 06:16 10,8 C 21,1 C 95 % 1016,5 hPa 0,0 l/m 0,0 km/h (0 Bft) SO 143 0 min 0,000 mm 0,0 UV-I 9 W/m 10,0 C 10,8 C 0,0 km/h (0 Bft) 98,00 %
24.08.2017 06:18 10,7 C 21,1 C 95 % 1016,5 hPa 0,0 l/m 0,0 km/h (0 Bft) SO 143 0 min 0,000 mm 0,0 UV-I 11 W/m 9,9 C 10,7 C 0,0 km/h (0 Bft) 95,74 %
24.08.2017 06:20 10,7 C 21,1 C 95 % 1016,5 hPa 0,0 l/m 0,0 km/h (0 Bft) SO 143 0 min 0,000 mm 0,0 UV-I 12 W/m 9,9 C 10,7 C 0,0 km/h (0 Bft) 97,92 %
24.08.2017 06:22 10,7 C 21,1 C 95 % 1016,5 hPa 0,0 l/m 0,0 km/h (0 Bft) SO 143 2 min 0,000 mm 0,0 UV-I 14 W/m 9,9 C 10,7 C 0,0 km/h (0 Bft) 95,12 %
24.08.2017 06:24 10,7 C 21,1 C 95 % 1016,5 hPa 0,0 l/m 0,0 km/h (0 Bft) SO 143 2 min 0,000 mm 0,0 UV-I 16 W/m 9,9 C 10,7 C 0,0 km/h (0 Bft) 98,00 %
24.08.2017 06:26 10,7 C 21,1 C 95 % 1016,5 hPa 0,0 l/m 0,4 km/h (0 Bft) SO 143 2 min 0,000 mm 0,0 UV-I 19 W/m 9,9 C 10,7 C 1,6 km/h (1 Bft) 98,00 %
24.08.2017 06:28 10,7 C 21,1 C 95 % 1016,5 hPa 0,0 l/m 0,9 km/h (0 Bft) SO 143 2 min 0,000 mm 0,0 UV-I 21 W/m 9,9 C 10,7 C 1,6 km/h (1 Bft) 97,56 %
24.08.2017 06:30 10,8 C 21,1 C 95 % 1016,5 hPa 0,0 l/m 0,3 km/h (0 Bft) SO 143 2 min 0,000 mm 0,0 UV-I 22 W/m 10,0 C 10,8 C 1,6 km/h (1 Bft) 97,87 %
24.08.2017 06:32 10,8 C 21,1 C 95 % 1016,5 hPa 0,0 l/m 1,5 km/h (1 Bft) SO 143 2 min 0,000 mm 0,0 UV-I 26 W/m 10,0 C 10,8 C 1,6 km/h (1 Bft) 95,74 %
24.08.2017 06:34 10,8 C 21,1 C 95 % 1016,5 hPa 0,0 l/m 2,3 km/h (1 Bft) SO 143 2 min 0,000 mm 0,0 UV-I 32 W/m 10,0 C 10,8 C 3,2 km/h (1 Bft) 96,00 %
24.08.2017 06:36 10,8 C 21,1 C 95 % 1016,5 hPa 0,0 l/m 2,0 km/h (1 Bft) SO 143 2 min 0,000 mm 0,0 UV-I 34 W/m 10,0 C 10,8 C 3,2 km/h (1 Bft) 97,56 %
24.08.2017 06:38 10,8 C 21,1 C 95 % 1016,6 hPa 0,0 l/m 1,5 km/h (1 Bft) SO 143 2 min 0,000 mm 0,0 UV-I 38 W/m 10,0 C 10,8 C 3,2 km/h (1 Bft) 98,00 %
24.08.2017 06:40 10,8 C 21,1 C 95 % 1016,6 hPa 0,0 l/m 0,0 km/h (0 Bft) SO 143 2 min 0,000 mm 0,0 UV-I 41 W/m 10,0 C 10,8 C 1,6 km/h (1 Bft) 98,11 %
24.08.2017 06:42 10,8 C 21,1 C 95 % 1016,6 hPa 0,0 l/m 0,1 km/h (0 Bft) SO 143 2 min 0,000 mm 0,0 UV-I 42 W/m 10,0 C 10,8 C 1,6 km/h (1 Bft) 95,83 %
24.08.2017 06:44 10,8 C 21,1 C 95 % 1016,6 hPa 0,0 l/m 0,3 km/h (0 Bft) SO 143 0 min 0,000 mm 0,0 UV-I 39 W/m 10,0 C 10,8 C 1,6 km/h (1 Bft) 95,24 %
24.08.2017 06:46 10,8 C 21,1 C 95 % 1016,6 hPa 0,0 l/m 0,0 km/h (0 Bft) SO 143 0 min 0,000 mm 0,0 UV-I 37 W/m 10,0 C 10,8 C 0,0 km/h (0 Bft) 96,00 %
24.08.2017 06:48 10,9 C 21,1 C 95 % 1016,6 hPa 0,0 l/m 0,0 km/h (0 Bft) SO 143 0 min 0,000 mm 0,0 UV-I 39 W/m 10,1 C 10,9 C 0,0 km/h (0 Bft) 96,00 %
24.08.2017 06:50 10,9 C 21,1 C 95 % 1016,7 hPa 0,0 l/m 0,0 km/h (0 Bft) SO 143 0 min 0,000 mm 0,0 UV-I 35 W/m 10,1 C 10,9 C 0,0 km/h (0 Bft) 100,00 %
24.08.2017 06:52 10,9 C 21,1 C 95 % 1016,6 hPa 0,0 l/m 0,0 km/h (0 Bft) SO 143 0 min 0,000 mm 0,0 UV-I 43 W/m 10,1 C 10,9 C 0,0 km/h (0 Bft) 94,74 %
24.08.2017 06:54 10,9 C 21,1 C 95 % 1016,6 hPa 0,0 l/m 0,0 km/h (0 Bft) SO 143 0 min 0,000 mm 0,0 UV-I 57 W/m 10,1 C 10,9 C 0,0 km/h (0 Bft) 100,00 %
24.08.2017 06:56 10,9 C 21,1 C 95 % 1016,6 hPa 0,0 l/m 0,0 km/h (0 Bft) SO 143 2 min 0,000 mm 0,0 UV-I 66 W/m 10,1 C 10,9 C 0,0 km/h (0 Bft) 100,00 %
24.08.2017 06:58 10,9 C 21,1 C 95 % 1016,6 hPa 0,0 l/m 0,0 km/h (0 Bft) SO 143 2 min 0,000 mm 0,0 UV-I 72 W/m 10,1 C 10,9 C 0,0 km/h (0 Bft) 97,87 %
24.08.2017 07:00 11,1 C 21,1 C 95 % 1016,6 hPa 0,0 l/m 0,0 km/h (0 Bft) SO 143 2 min 0,025 mm 0,0 UV-I 77 W/m 10,3 C 11,1 C 0,0 km/h (0 Bft) 100,00 %
24.08.2017 07:02 11,1 C 21,1 C 95 % 1016,6 hPa 0,0 l/m 0,0 km/h (0 Bft) SO 143 2 min 0,000 mm 0,0 UV-I 80 W/m 10,3 C 11,1 C 0,0 km/h (0 Bft) 98,00 %
24.08.2017 07:04 11,2 C 21,1 C 96 % 1016,7 hPa 0,0 l/m 0,0 km/h (0 Bft) SO 143 2 min 0,000 mm 0,0 UV-I 80 W/m 10,6 C 11,2 C 0,0 km/h (0 Bft) 97,87 %
24.08.2017 07:06 11,2 C 21,1 C 95 % 1016,6 hPa 0,0 l/m 0,0 km/h (0 Bft) SO 143 0 min 0,000 mm 0,0 UV-I 49 W/m 10,4 C 11,2 C 0,0 km/h (0 Bft) 100,00 %
24.08.2017 07:08 11,2 C 21,1 C 95 % 1016,7 hPa 0,0 l/m 0,0 km/h (0 Bft) SO 143 2 min 0,000 mm 0,0 UV-I 84 W/m 10,4 C 11,2 C 0,0 km/h (0 Bft) 100,00 %
24.08.2017 07:10 11,3 C 21,1 C 95 % 1016,7 hPa 0,0 l/m 0,0 km/h (0 Bft) SO 143 2 min 0,000 mm 0,0 UV-I 97 W/m 10,5 C 11,3 C 0,0 km/h (0 Bft) 100,00 %
24.08.2017 07:12 11,3 C 21,1 C 95 % 1016,6 hPa 0,0 l/m 0,0 km/h (0 Bft) SO 143 2 min 0,000 mm 0,0 UV-I 101 W/m 10,5 C 11,3 C 0,0 km/h (0 Bft) 100,00 %
24.08.2017 07:14 11,4 C 21,1 C 95 % 1016,7 hPa 0,0 l/m 0,6 km/h (0 Bft) SO 143 2 min 0,000 mm 0,0 UV-I 112 W/m 10,6 C 11,4 C 3,2 km/h (1 Bft) 100,00 %
24.08.2017 07:16 11,5 C 21,1 C 95 % 1016,7 hPa 0,0 l/m 2,5 km/h (1 Bft) SO 143 2 min 0,000 mm 0,0 UV-I 117 W/m 10,7 C 11,5 C 4,8 km/h (1 Bft) 100,00 %
24.08.2017 07:18 11,6 C 21,1 C 96 % 1016,8 hPa 0,0 l/m 2,6 km/h (1 Bft) SO 143 2 min 0,000 mm 0,0 UV-I 122 W/m 11,0 C 11,6 C 4,8 km/h (1 Bft) 98,00 %
24.08.2017 07:20 11,7 C 21,1 C 96 % 1016,8 hPa 0,0 l/m 1,6 km/h (1 Bft) SO 143 2 min 0,000 mm 0,0 UV-I 110 W/m 11,1 C 11,7 C 3,2 km/h (1 Bft) 100,00 %
24.08.2017 07:22 11,8 C 21,1 C 96 % 1016,8 hPa 0,0 l/m 0,5 km/h (0 Bft) SO 143 2 min 0,000 mm 0,0 UV-I 130 W/m 11,2 C 11,8 C 3,2 km/h (1 Bft) 100,00 %
24.08.2017 07:24 11,9 C 21,1 C 96 % 1016,9 hPa 0,0 l/m 0,0 km/h (0 Bft) SO 143 2 min 0,000 mm 0,0 UV-I 137 W/m 11,3 C 11,9 C 0,0 km/h (0 Bft) 100,00 %
24.08.2017 07:26 12,0 C 21,1 C 96 % 1016,8 hPa 0,0 l/m 0,0 km/h (0 Bft) SO 143 2 min 0,000 mm 0,0 UV-I 141 W/m 11,4 C 12,0 C 0,0 km/h (0 Bft) 97,87 %
24.08.2017 07:28 12,1 C 21,1 C 95 % 1016,9 hPa 0,0 l/m 0,0 km/h (0 Bft) SO 143 2 min 0,000 mm 0,0 UV-I 145 W/m 11,3 C 12,1 C 0,0 km/h (0 Bft) 100,00 %
24.08.2017 07:30 12,2 C 21,1 C 95 % 1016,8 hPa 0,0 l/m 0,0 km/h (0 Bft) SO 143 2 min 0,000 mm 0,0 UV-I 149 W/m 11,4 C 12,2 C 0,0 km/h (0 Bft) 100,00 %
24.08.2017 07:32 12,2 C 21,1 C 95 % 1016,9 hPa 0,0 l/m 0,2 km/h (0 Bft) SO 143 2 min 0,000 mm 0,0 UV-I 152 W/m 11,4 C 12,2 C 1,6 km/h (1 Bft) 100,00 %
24.08.2017 07:34 12,3 C 21,1 C 95 % 1016,9 hPa 0,0 l/m 0,2 km/h (0 Bft) SO 143 2 min 0,000 mm 0,0 UV-I 155 W/m 11,5 C 12,3 C 1,6 km/h (1 Bft) 100,00 %
24.08.2017 07:36 12,4 C 21,1 C 95 % 1016,9 hPa 0,0 l/m 0,1 km/h (0 Bft) SO 143 2 min 0,000 mm 0,0 UV-I 157 W/m 11,6 C 12,4 C 1,6 km/h (1 Bft) 100,00 %
24.08.2017 07:38 12,5 C 21,1 C 95 % 1016,9 hPa 0,0 l/m 1,3 km/h (1 Bft) SO 143 2 min 0,000 mm 0,0 UV-I 160 W/m 11,7 C 12,5 C 3,2 km/h (1 Bft) 100,00 %
24.08.2017 07:40 12,6 C 21,1 C 95 % 1016,9 hPa 0,0 l/m 2,1 km/h (1 Bft) SO 143 2 min 0,000 mm 0,0 UV-I 162 W/m 11,8 C 12,6 C 3,2 km/h (1 Bft) 97,92 %
24.08.2017 07:42 12,7 C 21,1 C 94 % 1016,8 hPa 0,0 l/m 3,5 km/h (1 Bft) O-NO 70 2 min 0,000 mm 0,0 UV-I 164 W/m 11,8 C 12,7 C 4,8 km/h (1 Bft) 100,00 %
24.08.2017 07:44 12,8 C 21,1 C 94 % 1016,8 hPa 0,0 l/m 4,2 km/h (1 Bft) O-NO 70 2 min 0,000 mm 0,0 UV-I 138 W/m 11,9 C 12,8 C 6,4 km/h (2 Bft) 97,37 %
24.08.2017 07:46 12,8 C 21,1 C 94 % 1016,8 hPa 0,0 l/m 3,5 km/h (1 Bft) O-NO 70 2 min 0,000 mm 0,0 UV-I 146 W/m 11,9 C 12,8 C 6,4 km/h (2 Bft) 100,00 %
24.08.2017 07:48 12,9 C 21,1 C 94 % 1016,9 hPa 0,0 l/m 5,5 km/h (1 Bft) O-NO 60 2 min 0,000 mm 0,0 UV-I 172 W/m 12,0 C 12,9 C 8,0 km/h (2 Bft) 100,00 %
24.08.2017 07:50 12,9 C 21,1 C 94 % 1016,9 hPa 0,0 l/m 3,0 km/h (1 Bft) O-NO 60 2 min 0,000 mm 0,0 UV-I 187 W/m 12,0 C 12,9 C 4,8 km/h (1 Bft) 100,00 %
24.08.2017 07:52 13,1 C 21,1 C 93 % 1016,9 hPa 0,0 l/m 2,4 km/h (1 Bft) O-NO 60 2 min 0,000 mm 0,0 UV-I 197 W/m 12,0 C 13,1 C 4,8 km/h (1 Bft) 100,00 %
24.08.2017 07:54 13,1 C 21,1 C 93 % 1016,9 hPa 0,0 l/m 4,4 km/h (1 Bft) O-NO 60 2 min 0,000 mm 0,0 UV-I 202 W/m 12,0 C 13,1 C 4,8 km/h (1 Bft) 100,00 %
24.08.2017 07:56 13,2 C 21,1 C 93 % 1016,9 hPa 0,0 l/m 4,5 km/h (1 Bft) O-NO 60 2 min 0,000 mm 0,0 UV-I 208 W/m 12,1 C 13,2 C 6,4 km/h (2 Bft) 97,14 %
24.08.2017 07:58 13,3 C 21,1 C 93 % 1016,9 hPa 0,0 l/m 4,2 km/h (1 Bft) O-NO 60 2 min 0,000 mm 0,0 UV-I 212 W/m 12,2 C 13,3 C 4,8 km/h (1 Bft) 96,00 %
24.08.2017 08:00 13,3 C 21,1 C 92 % 1016,9 hPa 0,0 l/m 4,6 km/h (1 Bft) O-NO 60 2 min 0,077 mm 0,0 UV-I 221 W/m 12,0 C 13,3 C 6,4 km/h (2 Bft) 98,00 %
24.08.2017 08:02 13,4 C 21,1 C 92 % 1016,9 hPa 0,0 l/m 2,7 km/h (1 Bft) O-NO 60 2 min 0,000 mm 0,2 UV-I 229 W/m 12,1 C 13,4 C 4,8 km/h (1 Bft) 100,00 %
24.08.2017 08:04 13,6 C 21,1 C 92 % 1016,9 hPa 0,0 l/m 4,2 km/h (1 Bft) O-NO 60 2 min 0,000 mm 0,5 UV-I 236 W/m 12,3 C 13,6 C 6,4 km/h (2 Bft) 100,00 %
24.08.2017 08:06 13,6 C 21,1 C 91 % 1016,9 hPa 0,0 l/m 3,4 km/h (1 Bft) O-NO 60 2 min 0,000 mm 0,5 UV-I 242 W/m 12,2 C 13,6 C 4,8 km/h (1 Bft) 100,00 %
24.08.2017 08:08 13,7 C 21,1 C 91 % 1016,9 hPa 0,0 l/m 3,8 km/h (1 Bft) O-NO 60 2 min 0,000 mm 0,5 UV-I 248 W/m 12,3 C 13,7 C 6,4 km/h (2 Bft) 98,39 %
24.08.2017 08:10 13,8 C 21,1 C 91 % 1016,8 hPa 0,0 l/m 4,4 km/h (1 Bft) O-NO 60 2 min 0,000 mm 0,5 UV-I 254 W/m 12,4 C 13,8 C 6,4 km/h (2 Bft) 100,00 %
24.08.2017 08:12 13,9 C 21,1 C 91 % 1016,8 hPa 0,0 l/m 4,0 km/h (1 Bft) O-NO 60 2 min 0,000 mm 0,5 UV-I 260 W/m 12,5 C 13,9 C 4,8 km/h (1 Bft) 100,00 %
24.08.2017 08:14 13,9 C 21,1 C 90 % 1016,8 hPa 0,0 l/m 4,1 km/h (1 Bft) O-NO 60 2 min 0,000 mm 0,6 UV-I 266 W/m 12,3 C 13,9 C 6,4 km/h (2 Bft) 100,00 %
24.08.2017 08:16 14,1 C 21,1 C 90 % 1016,8 hPa 0,0 l/m 4,2 km/h (1 Bft) O-NO 59 2 min 0,000 mm 0,6 UV-I 274 W/m 12,5 C 14,1 C 6,4 km/h (2 Bft) 100,00 %
24.08.2017 08:18 14,1 C 21,1 C 89 % 1016,8 hPa 0,0 l/m 4,8 km/h (1 Bft) O-NO 59 2 min 0,000 mm 0,6 UV-I 276 W/m 12,3 C 14,1 C 6,4 km/h (2 Bft) 98,00 %
24.08.2017 08:20 14,2 C 21,1 C 89 % 1016,8 hPa 0,0 l/m 3,3 km/h (1 Bft) O-NO 59 2 min 0,000 mm 0,6 UV-I 283 W/m 12,4 C 14,2 C 4,8 km/h (1 Bft) 98,08 %
24.08.2017 08:22 14,3 C 21,1 C 90 % 1016,9 hPa 0,0 l/m 3,9 km/h (1 Bft) O-NO 59 2 min 0,000 mm 0,7 UV-I 288 W/m 12,7 C 14,3 C 6,4 km/h (2 Bft) 95,24 %
24.08.2017 08:24 14,4 C 21,1 C 89 % 1016,9 hPa 0,0 l/m 3,4 km/h (1 Bft) O-NO 59 2 min 0,000 mm 0,7 UV-I 295 W/m 12,6 C 14,4 C 4,8 km/h (1 Bft) 98,00 %
24.08.2017 08:26 14,6 C 21,1 C 89 % 1016,9 hPa 0,0 l/m 3,3 km/h (1 Bft) O-NO 59 2 min 0,000 mm 0,7 UV-I 301 W/m 12,8 C 14,6 C 4,8 km/h (1 Bft) 97,87 %
24.08.2017 08:28 14,6 C 21,1 C 89 % 1016,8 hPa 0,0 l/m 3,3 km/h (1 Bft) O-NO 59 2 min 0,000 mm 0,7 UV-I 304 W/m 12,8 C 14,6 C 4,8 km/h (1 Bft) 95,74 %
24.08.2017 08:30 14,7 C 21,1 C 89 % 1016,9 hPa 0,0 l/m 2,8 km/h (1 Bft) O-NO 59 2 min 0,000 mm 0,7 UV-I 309 W/m 12,9 C 14,7 C 4,8 km/h (1 Bft) 95,12 %
24.08.2017 08:32 14,8 C 21,1 C 89 % 1016,9 hPa 0,0 l/m 3,7 km/h (1 Bft) O-NO 59 2 min 0,000 mm 0,8 UV-I 315 W/m 13,0 C 14,8 C 6,4 km/h (2 Bft) 94,34 %
24.08.2017 08:34 14,8 C 21,1 C 89 % 1016,9 hPa 0,0 l/m 2,6 km/h (1 Bft) O-NO 59 2 min 0,000 mm 0,8 UV-I 320 W/m 13,0 C 14,8 C 4,8 km/h (1 Bft) 94,74 %
24.08.2017 08:36 14,9 C 21,1 C 87 % 1016,9 hPa 0,0 l/m 3,1 km/h (1 Bft) O-NO 59 2 min 0,000 mm 0,8 UV-I 309 W/m 12,8 C 14,9 C 4,8 km/h (1 Bft) 94,34 %
24.08.2017 08:38 15,1 C 21,1 C 88 % 1016,8 hPa 0,0 l/m 3,6 km/h (1 Bft) O-NO 59 2 min 0,000 mm 0,9 UV-I 334 W/m 13,1 C 15,1 C 6,4 km/h (2 Bft) 97,37 %
24.08.2017 08:40 15,1 C 21,1 C 88 % 1016,8 hPa 0,0 l/m 2,7 km/h (1 Bft) O-NO 59 2 min 0,000 mm 0,9 UV-I 341 W/m 13,1 C 15,1 C 4,8 km/h (1 Bft) 96,00 %
24.08.2017 08:42 15,2 C 21,1 C 88 % 1016,9 hPa 0,0 l/m 0,7 km/h (0 Bft) O-NO 59 2 min 0,000 mm 0,9 UV-I 345 W/m 13,2 C 15,2 C 4,8 km/h (1 Bft) 95,74 %
24.08.2017 08:44 15,3 C 21,1 C 88 % 1016,9 hPa 0,0 l/m 4,6 km/h (1 Bft) O-NO 57 2 min 0,000 mm 0,9 UV-I 351 W/m 13,3 C 15,3 C 6,4 km/h (2 Bft) 94,34 %
24.08.2017 08:46 15,3 C 21,1 C 86 % 1016,9 hPa 0,0 l/m 2,5 km/h (1 Bft) O-NO 57 2 min 0,000 mm 1,0 UV-I 356 W/m 13,0 C 15,3 C 4,8 km/h (1 Bft) 96,00 %
24.08.2017 08:48 15,3 C 21,1 C 86 % 1017,0 hPa 0,0 l/m 2,1 km/h (1 Bft) O-NO 57 2 min 0,000 mm 1,0 UV-I 365 W/m 13,0 C 15,3 C 4,8 km/h (1 Bft) 94,74 %
24.08.2017 08:50 15,3 C 21,1 C 85 % 1017,0 hPa 0,0 l/m 1,1 km/h (1 Bft) O-NO 57 2 min 0,000 mm 1,0 UV-I 370 W/m 12,8 C 15,3 C 3,2 km/h (1 Bft) 92,45 %
24.08.2017 08:52 15,3 C 21,1 C 85 % 1016,9 hPa 0,0 l/m 1,4 km/h (1 Bft) O-NO 57 2 min 0,000 mm 1,1 UV-I 378 W/m 12,8 C 15,3 C 3,2 km/h (1 Bft) 98,00 %
24.08.2017 08:54 15,3 C 21,1 C 85 % 1016,9 hPa 0,0 l/m 1,8 km/h (1 Bft) O-NO 57 2 min 0,000 mm 1,1 UV-I 382 W/m 12,8 C 15,3 C 3,2 km/h (1 Bft) 95,74 %
24.08.2017 08:56 15,6 C 21,1 C 85 % 1016,9 hPa 0,0 l/m 2,0 km/h (1 Bft) O-NO 57 2 min 0,000 mm 1,2 UV-I 385 W/m 13,1 C 15,6 C 6,4 km/h (2 Bft) 97,44 %
24.08.2017 08:58 15,7 C 21,1 C 86 % 1016,8 hPa 0,0 l/m 4,2 km/h (1 Bft) O-NO 57 2 min 0,000 mm 1,2 UV-I 390 W/m 13,4 C 15,7 C 4,8 km/h (1 Bft) 96,00 %
24.08.2017 09:00 15,8 C 21,1 C 85 % 1016,8 hPa 0,0 l/m 0,6 km/h (0 Bft) O-NO 57 2 min 0,177 mm 1,2 UV-I 386 W/m 13,3 C 15,8 C 3,2 km/h (1 Bft) 95,74 %
24.08.2017 09:02 15,8 C 21,1 C 85 % 1016,9 hPa 0,0 l/m 1,1 km/h (1 Bft) O-NO 57 2 min 0,000 mm 1,2 UV-I 392 W/m 13,3 C 15,8 C 3,2 km/h (1 Bft) 98,00 %
24.08.2017 09:04 15,9 C 21,1 C 84 % 1016,9 hPa 0,0 l/m 0,3 km/h (0 Bft) O-NO 57 2 min 0,000 mm 1,3 UV-I 407 W/m 13,2 C 15,9 C 3,2 km/h (1 Bft) 97,37 %
24.08.2017 09:06 16,1 C 21,1 C 85 % 1016,9 hPa 0,0 l/m 2,2 km/h (1 Bft) O-NO 57 2 min 0,000 mm 1,3 UV-I 417 W/m 13,6 C 16,1 C 4,8 km/h (1 Bft) 97,87 %
24.08.2017 09:08 16,2 C 21,1 C 84 % 1016,9 hPa 0,0 l/m 0,8 km/h (0 Bft) O-NO 57 2 min 0,000 mm 1,3 UV-I 416 W/m 13,5 C 16,2 C 3,2 km/h (1 Bft) 92,86 %
24.08.2017 09:10 16,3 C 21,1 C 85 % 1016,9 hPa 0,0 l/m 1,5 km/h (1 Bft) NO 41 2 min 0,000 mm 1,4 UV-I 424 W/m 13,8 C 16,3 C 6,4 km/h (2 Bft) 97,37 %
24.08.2017 09:12 16,4 C 21,1 C 85 % 1016,9 hPa 0,0 l/m 3,2 km/h (1 Bft) NO 35 2 min 0,000 mm 1,4 UV-I 404 W/m 13,9 C 16,4 C 6,4 km/h (2 Bft) 98,11 %
24.08.2017 09:14 16,3 C 21,1 C 84 % 1017,0 hPa 0,0 l/m 3,2 km/h (1 Bft) NO 35 2 min 0,000 mm 1,4 UV-I 395 W/m 13,6 C 16,3 C 6,4 km/h (2 Bft) 97,37 %
24.08.2017 09:16 16,3 C 21,1 C 84 % 1017,0 hPa 0,0 l/m 3,0 km/h (1 Bft) NO 35 2 min 0,000 mm 1,5 UV-I 409 W/m 13,6 C 16,3 C 6,4 km/h (2 Bft) 98,11 %
24.08.2017 09:18 16,3 C 21,1 C 84 % 1016,9 hPa 0,0 l/m 0,7 km/h (0 Bft) NO 35 2 min 0,000 mm 1,5 UV-I 441 W/m 13,6 C 16,3 C 3,2 km/h (1 Bft) 96,23 %
24.08.2017 09:20 16,4 C 21,1 C 84 % 1017,0 hPa 0,0 l/m 0,2 km/h (0 Bft) NO 35 2 min 0,000 mm 1,5 UV-I 425 W/m 13,7 C 16,4 C 1,6 km/h (1 Bft) 94,29 %
24.08.2017 09:22 16,5 C 21,1 C 84 % 1017,0 hPa 0,0 l/m 2,0 km/h (1 Bft) NO 35 2 min 0,000 mm 1,6 UV-I 450 W/m 13,8 C 16,5 C 4,8 km/h (1 Bft) 98,00 %
24.08.2017 09:24 16,6 C 21,1 C 83 % 1017,0 hPa 0,0 l/m 2,3 km/h (1 Bft) NO 35 2 min 0,000 mm 1,6 UV-I 460 W/m 13,7 C 16,6 C 4,8 km/h (1 Bft) 98,11 %
24.08.2017 09:26 16,6 C 21,1 C 83 % 1017,0 hPa 0,0 l/m 1,9 km/h (1 Bft) NO 36 2 min 0,000 mm 1,7 UV-I 459 W/m 13,7 C 16,6 C 4,8 km/h (1 Bft) 97,87 %
24.08.2017 09:28 16,7 C 21,1 C 81 % 1017,0 hPa 0,0 l/m 4,3 km/h (1 Bft) NO 47 2 min 0,000 mm 1,7 UV-I 454 W/m 13,4 C 16,7 C 6,4 km/h (2 Bft) 97,22 %
24.08.2017 09:30 16,8 C 21,1 C 79 % 1017,0 hPa 0,0 l/m 2,5 km/h (1 Bft) NO 49 2 min 0,000 mm 1,7 UV-I 466 W/m 13,1 C 16,8 C 4,8 km/h (1 Bft) 100,00 %
24.08.2017 09:32 17,0 C 21,1 C 80 % 1017,0 hPa 0,0 l/m 3,6 km/h (1 Bft) NO 55 2 min 0,000 mm 1,8 UV-I 477 W/m 13,5 C 17,0 C 6,4 km/h (2 Bft) 100,00 %
24.08.2017 09:34 17,3 C 21,1 C 79 % 1017,1 hPa 0,0 l/m 3,0 km/h (1 Bft) NO 34 2 min 0,000 mm 1,8 UV-I 482 W/m 13,6 C 17,3 C 6,4 km/h (2 Bft) 100,00 %
24.08.2017 09:36 17,3 C 21,1 C 79 % 1017,0 hPa 0,0 l/m 4,0 km/h (1 Bft) N-NO 30 2 min 0,000 mm 1,9 UV-I 479 W/m 13,6 C 17,3 C 4,8 km/h (1 Bft) 100,00 %
24.08.2017 09:38 17,4 C 21,1 C 81 % 1017,1 hPa 0,0 l/m 2,0 km/h (1 Bft) N-NO 26 2 min 0,000 mm 1,9 UV-I 491 W/m 14,1 C 17,4 C 6,4 km/h (2 Bft) 100,00 %
24.08.2017 09:40 17,4 C 21,1 C 81 % 1017,0 hPa 0,0 l/m 0,7 km/h (0 Bft) N-NO 26 2 min 0,000 mm 1,9 UV-I 492 W/m 14,1 C 17,4 C 4,8 km/h (1 Bft) 100,00 %
24.08.2017 09:42 17,3 C 21,1 C 81 % 1017,0 hPa 0,0 l/m 0,5 km/h (0 Bft) N-NO 26 2 min 0,000 mm 2,0 UV-I 497 W/m 14,0 C 17,3 C 3,2 km/h (1 Bft) 97,87 %
24.08.2017 09:44 17,3 C 21,1 C 80 % 1017,0 hPa 0,0 l/m 2,1 km/h (1 Bft) N-NO 26 2 min 0,000 mm 2,0 UV-I 499 W/m 13,8 C 17,3 C 3,2 km/h (1 Bft) 100,00 %
24.08.2017 09:46 17,3 C 21,1 C 81 % 1017,0 hPa 0,0 l/m 0,6 km/h (0 Bft) N-NO 26 2 min 0,000 mm 2,1 UV-I 507 W/m 14,0 C 17,3 C 3,2 km/h (1 Bft) 100,00 %
24.08.2017 09:48 17,5 C 21,1 C 82 % 1017,0 hPa 0,0 l/m 3,1 km/h (1 Bft) N-NO 24 2 min 0,000 mm 2,1 UV-I 517 W/m 14,4 C 17,5 C 6,4 km/h (2 Bft) 100,00 %
24.08.2017 09:50 17,6 C 21,1 C 79 % 1017,0 hPa 0,0 l/m 1,9 km/h (1 Bft) N-NO 23 2 min 0,000 mm 2,2 UV-I 533 W/m 13,9 C 17,6 C 4,8 km/h (1 Bft) 100,00 %
24.08.2017 09:52 17,4 C 21,1 C 79 % 1017,1 hPa 0,0 l/m 1,3 km/h (1 Bft) N-NO 18 2 min 0,000 mm 2,2 UV-I 541 W/m 13,7 C 17,4 C 3,2 km/h (1 Bft) 100,00 %
24.08.2017 09:54 17,4 C 21,1 C 80 % 1017,1 hPa 0,0 l/m 2,1 km/h (1 Bft) N-NO 18 2 min 0,000 mm 2,2 UV-I 544 W/m 13,9 C 17,4 C 4,8 km/h (1 Bft) 97,14 %
24.08.2017 09:56 17,5 C 21,1 C 82 % 1017,0 hPa 0,0 l/m 4,6 km/h (1 Bft) N-NO 21 2 min 0,000 mm 2,3 UV-I 563 W/m 14,4 C 17,5 C 8,0 km/h (2 Bft) 100,00 %
24.08.2017 09:58 17,7 C 21,1 C 82 % 1017,0 hPa 0,0 l/m 3,8 km/h (1 Bft) N-NO 26 2 min 0,000 mm 2,3 UV-I 561 W/m 14,6 C 17,7 C 6,4 km/h (2 Bft) 100,00 %
24.08.2017 10:00 17,8 C 21,1 C 77 % 1017,1 hPa 0,0 l/m 3,5 km/h (1 Bft) NO 47 2 min 0,254 mm 2,3 UV-I 529 W/m 13,7 C 17,8 C 6,4 km/h (2 Bft) 100,00 %
24.08.2017 10:02 18,0 C 21,1 C 78 % 1017,0 hPa 0,0 l/m 3,5 km/h (1 Bft) O-NO 75 2 min 0,000 mm 2,4 UV-I 547 W/m 14,1 C 18,0 C 8,0 km/h (2 Bft) 100,00 %
24.08.2017 10:04 18,1 C 21,1 C 77 % 1017,0 hPa 0,0 l/m 5,2 km/h (1 Bft) O 85 2 min 0,000 mm 2,4 UV-I 539 W/m 14,0 C 18,1 C 9,7 km/h (2 Bft) 100,00 %
24.08.2017 10:06 18,1 C 21,1 C 76 % 1017,0 hPa 0,0 l/m 4,6 km/h (1 Bft) O-NO 70 2 min 0,000 mm 2,4 UV-I 561 W/m 13,8 C 18,1 C 9,7 km/h (2 Bft) 100,00 %
24.08.2017 10:08 18,1 C 21,1 C 75 % 1016,9 hPa 0,0 l/m 4,8 km/h (1 Bft) NO 51 2 min 0,000 mm 2,5 UV-I 548 W/m 13,6 C 18,1 C 9,7 km/h (2 Bft) 100,00 %
24.08.2017 10:10 18,3 C 21,1 C 76 % 1016,9 hPa 0,0 l/m 4,1 km/h (1 Bft) O-NO 63 2 min 0,000 mm 2,5 UV-I 563 W/m 14,0 C 18,3 C 8,0 km/h (2 Bft) 98,11 %
24.08.2017 10:12 18,3 C 21,1 C 75 % 1016,9 hPa 0,0 l/m 2,6 km/h (1 Bft) O-NO 69 2 min 0,000 mm 2,6 UV-I 584 W/m 13,8 C 18,3 C 8,0 km/h (2 Bft) 97,22 %
24.08.2017 10:14 18,3 C 21,1 C 76 % 1016,9 hPa 0,0 l/m 7,7 km/h (2 Bft) O-NO 65 2 min 0,000 mm 2,6 UV-I 572 W/m 14,0 C 17,7 C 9,7 km/h (2 Bft) 98,31 %
24.08.2017 10:16 18,3 C 21,1 C 76 % 1016,9 hPa 0,0 l/m 5,4 km/h (1 Bft) N-NO 24 2 min 0,000 mm 2,6 UV-I 557 W/m 14,0 C 18,3 C 8,0 km/h (2 Bft) 97,44 %
24.08.2017 10:18 18,4 C 21,1 C 80 % 1016,9 hPa 0,0 l/m 4,0 km/h (1 Bft) O-NO 65 2 min 0,000 mm 2,6 UV-I 534 W/m 14,9 C 18,4 C 8,0 km/h (2 Bft) 97,37 %
24.08.2017 10:20 18,6 C 21,1 C 77 % 1016,9 hPa 0,0 l/m 5,5 km/h (1 Bft) O-NO 62 2 min 0,000 mm 2,6 UV-I 533 W/m 14,5 C 18,6 C 8,0 km/h (2 Bft) 96,30 %
24.08.2017 10:22 18,6 C 21,1 C 75 % 1016,9 hPa 0,0 l/m 4,6 km/h (1 Bft) O-NO 59 2 min 0,000 mm 2,7 UV-I 550 W/m 14,1 C 18,6 C 6,4 km/h (2 Bft) 98,00 %
24.08.2017 10:24 18,8 C 21,1 C 77 % 1016,9 hPa 0,0 l/m 4,1 km/h (1 Bft) O 84 2 min 0,000 mm 2,7 UV-I 554 W/m 14,7 C 18,8 C 6,4 km/h (2 Bft) 95,74 %
24.08.2017 10:26 18,8 C 21,1 C 75 % 1017,0 hPa 0,0 l/m 3,8 km/h (1 Bft) O 99 2 min 0,000 mm 2,9 UV-I 595 W/m 14,3 C 18,8 C 6,4 km/h (2 Bft) 98,11 %
24.08.2017 10:28 18,9 C 21,1 C 74 % 1017,0 hPa 0,0 l/m 5,8 km/h (2 Bft) O-NO 70 2 min 0,000 mm 2,9 UV-I 578 W/m 14,2 C 18,9 C 8,0 km/h (2 Bft) 97,56 %
24.08.2017 10:30 18,9 C 21,1 C 76 % 1017,0 hPa 0,0 l/m 4,4 km/h (1 Bft) O-NO 57 2 min 0,000 mm 2,9 UV-I 572 W/m 14,6 C 18,9 C 6,4 km/h (2 Bft) 98,00 %
24.08.2017 10:33 19,1 C 21,1 C 75 % 1017,0 hPa 0,0 l/m 1,2 km/h (1 Bft) O-NO 57 3 min 0,000 mm 3,0 UV-I 592 W/m 14,6 C 19,1 C 3,2 km/h (1 Bft) 97,14 %
24.08.2017 10:34 19,0 C 21,1 C 74 % 1017,0 hPa 0,0 l/m 0,8 km/h (0 Bft) O-NO 57 1 min 0,000 mm 3,0 UV-I 598 W/m 14,3 C 19,0 C 1,6 km/h (1 Bft) 95,83 %
24.08.2017 10:36 19,1 C 21,1 C 74 % 1017,0 hPa 0,0 l/m 1,1 km/h (1 Bft) O-NO 57 2 min 0,000 mm 3,0 UV-I 599 W/m 14,4 C 19,1 C 6,4 km/h (2 Bft) 98,00 %
24.08.2017 10:38 19,2 C 21,1 C 74 % 1017,0 hPa 0,0 l/m 5,3 km/h (1 Bft) N-NO 29 2 min 0,000 mm 3,0 UV-I 583 W/m 14,4 C 19,2 C 8,0 km/h (2 Bft) 94,29 %
24.08.2017 10:40 19,2 C 21,1 C 77 % 1017,0 hPa 0,0 l/m 5,0 km/h (1 Bft) N-NO 32 2 min 0,000 mm 2,9 UV-I 543 W/m 15,1 C 19,2 C 9,7 km/h (2 Bft) 96,00 %
24.08.2017 10:42 19,3 C 21,1 C 77 % 1016,9 hPa 0,0 l/m 1,2 km/h (1 Bft) N-NO 32 2 min 0,000 mm 3,0 UV-I 549 W/m 15,2 C 19,3 C 3,2 km/h (1 Bft) 98,11 %
24.08.2017 10:44 19,3 C 21,1 C 76 % 1016,9 hPa 0,0 l/m 2,1 km/h (1 Bft) N-NO 22 2 min 0,000 mm 3,0 UV-I 538 W/m 15,0 C 19,3 C 4,8 km/h (1 Bft) 97,56 %
24.08.2017 10:46 19,3 C 21,1 C 74 % 1016,9 hPa 0,0 l/m 1,3 km/h (1 Bft) N-NO 22 2 min 0,000 mm 3,1 UV-I 524 W/m 14,5 C 19,3 C 4,8 km/h (1 Bft) 98,11 %
24.08.2017 10:48 19,3 C 21,1 C 73 % 1016,9 hPa 0,0 l/m 2,9 km/h (1 Bft) NO 48 2 min 0,000 mm 3,1 UV-I 583 W/m 14,3 C 19,3 C 6,4 km/h (2 Bft) 97,37 %
24.08.2017 10:50 19,3 C 21,1 C 74 % 1016,9 hPa 0,0 l/m 2,1 km/h (1 Bft) N-NO 25 2 min 0,000 mm 3,0 UV-I 601 W/m 14,5 C 19,3 C 3,2 km/h (1 Bft) 100,00 %
24.08.2017 10:52 19,4 C 21,1 C 76 % 1017,0 hPa 0,0 l/m 3,8 km/h (1 Bft) NO 40 2 min 0,000 mm 2,8 UV-I 598 W/m 15,1 C 19,4 C 6,4 km/h (2 Bft) 98,00 %
24.08.2017 10:54 19,6 C 21,1 C 73 % 1017,0 hPa 0,0 l/m 4,4 km/h (1 Bft) O-NO 65 2 min 0,000 mm 3,0 UV-I 550 W/m 14,6 C 19,6 C 6,4 km/h (2 Bft) 98,08 %
24.08.2017 10:56 19,5 C 21,1 C 73 % 1017,0 hPa 0,0 l/m 3,9 km/h (1 Bft) O-NO 65 2 min 0,000 mm 3,0 UV-I 511 W/m 14,5 C 19,5 C 6,4 km/h (2 Bft) 100,00 %
24.08.2017 10:58 19,5 C 21,1 C 73 % 1017,0 hPa 0,0 l/m 4,8 km/h (1 Bft) O-NO 59 2 min 0,000 mm 3,0 UV-I 516 W/m 14,5 C 19,5 C 8,0 km/h (2 Bft) 100,00 %
24.08.2017 11:00 19,6 C 21,1 C 76 % 1017,0 hPa 0,0 l/m 4,4 km/h (1 Bft) O-NO 59 2 min 0,331 mm 3,0 UV-I 492 W/m 15,2 C 19,6 C 6,4 km/h (2 Bft) 100,00 %
24.08.2017 11:02 19,6 C 21,1 C 73 % 1017,0 hPa 0,0 l/m 2,5 km/h (1 Bft) O-NO 59 2 min 0,000 mm 3,4 UV-I 624 W/m 14,6 C 19,6 C 4,8 km/h (1 Bft) 100,00 %
24.08.2017 11:04 19,7 C 21,1 C 72 % 1017,0 hPa 0,0 l/m 4,3 km/h (1 Bft) NO 51 2 min 0,000 mm 3,6 UV-I 676 W/m 14,5 C 19,7 C 6,4 km/h (2 Bft) 98,00 %
24.08.2017 11:06 19,8 C 21,1 C 71 % 1017,0 hPa 0,0 l/m 2,9 km/h (1 Bft) NO 52 2 min 0,000 mm 3,7 UV-I 678 W/m 14,4 C 19,8 C 4,8 km/h (1 Bft) 100,00 %
24.08.2017 11:08 19,8 C 21,1 C 74 % 1017,0 hPa 0,0 l/m 0,9 km/h (0 Bft) NO 47 2 min 0,000 mm 3,8 UV-I 702 W/m 15,0 C 19,8 C 4,8 km/h (1 Bft) 100,00 %
24.08.2017 11:10 19,9 C 21,1 C 71 % 1017,0 hPa 0,0 l/m 1,1 km/h (1 Bft) NO 51 2 min 0,000 mm 3,8 UV-I 692 W/m 14,5 C 19,9 C 4,8 km/h (1 Bft) 100,00 %
24.08.2017 11:12 20,0 C 21,7 C 72 % 1017,1 hPa 0,0 l/m 4,2 km/h (1 Bft) N-NO 15 2 min 0,000 mm 3,5 UV-I 555 W/m 14,8 C 20,0 C 6,4 km/h (2 Bft) 100,00 %
24.08.2017 11:14 20,0 C 21,7 C 72 % 1017,0 hPa 0,0 l/m 1,5 km/h (1 Bft) N-NO 15 2 min 0,000 mm 4,0 UV-I 634 W/m 14,8 C 20,0 C 4,8 km/h (1 Bft) 100,00 %
24.08.2017 11:16 20,2 C 21,7 C 72 % 1017,0 hPa 0,0 l/m 1,2 km/h (1 Bft) N 11 2 min 0,000 mm 4,1 UV-I 763 W/m 15,0 C 20,2 C 3,2 km/h (1 Bft) 100,00 %
24.08.2017 11:18 20,4 C 21,7 C 73 % 1017,0 hPa 0,0 l/m 2,0 km/h (1 Bft) N-NO 28 2 min 0,000 mm 3,4 UV-I 703 W/m 15,4 C 20,4 C 8,0 km/h (2 Bft) 100,00 %
24.08.2017 11:20 20,3 C 21,7 C 71 % 1017,0 hPa 0,0 l/m 3,1 km/h (1 Bft) NO 39 2 min 0,000 mm 3,4 UV-I 441 W/m 14,9 C 20,3 C 6,4 km/h (2 Bft) 100,00 %
24.08.2017 11:22 20,3 C 21,7 C 72 % 1017,0 hPa 0,0 l/m 4,2 km/h (1 Bft) O-NO 71 2 min 0,000 mm 3,4 UV-I 506 W/m 15,1 C 20,3 C 6,4 km/h (2 Bft) 100,00 %
24.08.2017 11:24 20,3 C 21,7 C 69 % 1017,1 hPa 0,0 l/m 2,4 km/h (1 Bft) O 88 2 min 0,000 mm 3,7 UV-I 666 W/m 14,4 C 20,3 C 4,8 km/h (1 Bft) 100,00 %
24.08.2017 11:26 20,4 C 21,7 C 71 % 1017,0 hPa 0,0 l/m 3,6 km/h (1 Bft) O 82 2 min 0,000 mm 4,2 UV-I 745 W/m 15,0 C 20,4 C 6,4 km/h (2 Bft) 96,30 %
24.08.2017 11:28 20,7 C 21,7 C 67 % 1017,0 hPa 0,0 l/m 5,5 km/h (1 Bft) O-NO 71 2 min 0,000 mm 4,1 UV-I 716 W/m 14,3 C 20,7 C 8,0 km/h (2 Bft) 98,44 %
24.08.2017 11:30 20,7 C 21,7 C 68 % 1017,1 hPa 0,0 l/m 4,4 km/h (1 Bft) O 100 2 min 0,000 mm 4,4 UV-I 778 W/m 14,6 C 20,7 C 6,4 km/h (2 Bft) 100,00 %
24.08.2017 11:32 20,7 C 21,7 C 68 % 1017,1 hPa 0,0 l/m 3,3 km/h (1 Bft) O 100 2 min 0,000 mm 4,5 UV-I 775 W/m 14,6 C 20,7 C 9,7 km/h (2 Bft) 100,00 %
24.08.2017 11:34 20,7 C 21,7 C 67 % 1017,0 hPa 0,0 l/m 1,9 km/h (1 Bft) O-NO 71 2 min 0,000 mm 4,3 UV-I 759 W/m 14,3 C 20,7 C 4,8 km/h (1 Bft) 100,00 %
24.08.2017 11:36 20,9 C 21,7 C 72 % 1017,0 hPa 0,0 l/m 3,5 km/h (1 Bft) O-NO 61 2 min 0,000 mm 4,2 UV-I 710 W/m 15,7 C 20,9 C 6,4 km/h (2 Bft) 100,00 %
24.08.2017 11:38 21,1 C 21,7 C 66 % 1016,9 hPa 0,0 l/m 2,0 km/h (1 Bft) O-NO 61 2 min 0,000 mm 4,3 UV-I 721 W/m 14,5 C 21,1 C 4,8 km/h (1 Bft) 100,00 %
24.08.2017 11:40 21,0 C 21,7 C 67 % 1017,0 hPa 0,0 l/m 0,8 km/h (0 Bft) O-NO 61 2 min 0,000 mm 3,3 UV-I 757 W/m 14,6 C 21,0 C 3,2 km/h (1 Bft) 100,00 %
24.08.2017 11:42 20,9 C 21,7 C 66 % 1017,0 hPa 0,0 l/m 0,9 km/h (0 Bft) O-NO 61 2 min 0,000 mm 4,5 UV-I 769 W/m 14,3 C 20,9 C 3,2 km/h (1 Bft) 100,00 %
24.08.2017 11:44 21,1 C 21,7 C 68 % 1017,0 hPa 0,0 l/m 0,9 km/h (0 Bft) NO 55 2 min 0,000 mm 4,5 UV-I 758 W/m 15,0 C 21,1 C 6,4 km/h (2 Bft) 100,00 %
24.08.2017 11:46 21,4 C 21,7 C 72 % 1017,0 hPa 0,0 l/m 2,6 km/h (1 Bft) NO 55 2 min 0,000 mm 4,4 UV-I 744 W/m 16,1 C 21,4 C 6,4 km/h (2 Bft) 100,00 %
24.08.2017 11:48 21,6 C 21,7 C 67 % 1017,0 hPa 0,0 l/m 2,6 km/h (1 Bft) O-NO 76 2 min 0,000 mm 4,5 UV-I 770 W/m 15,2 C 21,6 C 6,4 km/h (2 Bft) 100,00 %
24.08.2017 11:50 21,7 C 21,7 C 65 % 1017,1 hPa 0,0 l/m 3,5 km/h (1 Bft) O-NO 70 2 min 0,000 mm 4,3 UV-I 711 W/m 14,8 C 21,7 C 6,4 km/h (2 Bft) 100,00 %
24.08.2017 11:52 21,6 C 21,7 C 65 % 1017,1 hPa 0,0 l/m 1,9 km/h (1 Bft) O-NO 70 2 min 0,000 mm 4,3 UV-I 626 W/m 14,7 C 21,6 C 4,8 km/h (1 Bft) 100,00 %
24.08.2017 11:54 21,4 C 21,7 C 64 % 1017,1 hPa 0,0 l/m 1,0 km/h (0 Bft) O-NO 65 2 min 0,000 mm 4,5 UV-I 733 W/m 14,3 C 21,4 C 6,4 km/h (2 Bft) 100,00 %
24.08.2017 11:56 21,7 C 21,7 C 66 % 1017,0 hPa 0,0 l/m 4,4 km/h (1 Bft) NO 44 2 min 0,000 mm 4,7 UV-I 792 W/m 15,1 C 21,7 C 9,7 km/h (2 Bft) 100,00 %
24.08.2017 11:58 21,9 C 21,7 C 67 % 1017,0 hPa 0,0 l/m 3,9 km/h (1 Bft) O-NO 62 2 min 0,000 mm 4,8 UV-I 817 W/m 15,5 C 21,9 C 6,4 km/h (2 Bft) 98,11 %
24.08.2017 12:00 21,9 C 21,7 C 65 % 1017,0 hPa 0,0 l/m 4,8 km/h (1 Bft) NO 55 2 min 0,431 mm 4,8 UV-I 782 W/m 15,0 C 21,9 C 8,0 km/h (2 Bft) 100,00 %
24.08.2017 12:02 21,9 C 21,7 C 64 % 1017,0 hPa 0,0 l/m 5,6 km/h (1 Bft) O-NO 61 2 min 0,000 mm 4,7 UV-I 818 W/m 14,8 C 21,9 C 9,7 km/h (2 Bft) 100,00 %
24.08.2017 12:04 21,9 C 21,7 C 64 % 1017,0 hPa 0,0 l/m 5,0 km/h (1 Bft) N-NO 30 2 min 0,000 mm 3,6 UV-I 810 W/m 14,8 C 21,9 C 8,0 km/h (2 Bft) 100,00 %
24.08.2017 12:06 21,8 C 21,7 C 65 % 1017,0 hPa 0,0 l/m 1,2 km/h (1 Bft) NO 52 2 min 0,000 mm 3,2 UV-I 681 W/m 14,9 C 21,8 C 4,8 km/h (1 Bft) 97,56 %
24.08.2017 12:08 21,7 C 21,7 C 65 % 1017,0 hPa 0,0 l/m 5,7 km/h (1 Bft) O-NO 59 0 min 0,000 mm 3,6 UV-I 403 W/m 14,8 C 21,7 C 8,0 km/h (2 Bft) 100,00 %
24.08.2017 12:10 21,7 C 21,7 C 67 % 1017,0 hPa 0,0 l/m 3,9 km/h (1 Bft) NO 52 0 min 0,000 mm 4,3 UV-I 376 W/m 15,3 C 21,7 C 6,4 km/h (2 Bft) 100,00 %
24.08.2017 12:12 21,7 C 21,7 C 67 % 1017,0 hPa 0,0 l/m 0,8 km/h (0 Bft) N-NO 33 0 min 0,000 mm 4,6 UV-I 376 W/m 15,3 C 21,7 C 3,2 km/h (1 Bft) 98,11 %
24.08.2017 12:14 21,8 C 21,7 C 66 % 1016,9 hPa 0,0 l/m 0,5 km/h (0 Bft) N-NO 33 0 min 0,000 mm 3,9 UV-I 348 W/m 15,2 C 21,8 C 1,6 km/h (1 Bft) 97,56 %
24.08.2017 12:16 22,1 C 21,7 C 68 % 1016,9 hPa 0,0 l/m 0,9 km/h (0 Bft) N-NO 32 2 min 0,000 mm 4,5 UV-I 673 W/m 15,9 C 22,1 C 3,2 km/h (1 Bft) 98,11 %
24.08.2017 12:18 22,2 C 21,7 C 66 % 1016,8 hPa 0,0 l/m 4,2 km/h (1 Bft) NO 38 2 min 0,000 mm 5,1 UV-I 881 W/m 15,5 C 22,2 C 6,4 km/h (2 Bft) 93,62 %
24.08.2017 12:20 22,3 C 21,7 C 64 % 1016,8 hPa 0,0 l/m 4,0 km/h (1 Bft) O-NO 58 2 min 0,000 mm 5,0 UV-I 844 W/m 15,2 C 22,3 C 6,4 km/h (2 Bft) 97,87 %
24.08.2017 12:22 22,3 C 21,7 C 62 % 1016,8 hPa 0,0 l/m 0,2 km/h (0 Bft) O-NO 58 2 min 0,000 mm 4,9 UV-I 824 W/m 14,7 C 22,3 C 1,6 km/h (1 Bft) 97,56 %
24.08.2017 12:24 22,3 C 21,7 C 61 % 1016,8 hPa 0,0 l/m 4,6 km/h (1 Bft) O-NO 58 2 min 0,000 mm 4,6 UV-I 781 W/m 14,4 C 22,3 C 8,0 km/h (2 Bft) 95,45 %
24.08.2017 12:26 22,3 C 21,7 C 64 % 1016,8 hPa 0,0 l/m 1,7 km/h (1 Bft) O-NO 58 2 min 0,000 mm 4,6 UV-I 817 W/m 15,2 C 22,3 C 4,8 km/h (1 Bft) 98,21 %
24.08.2017 12:28 22,3 C 21,7 C 63 % 1016,8 hPa 0,0 l/m 2,4 km/h (1 Bft) NO 45 2 min 0,000 mm 4,6 UV-I 762 W/m 14,9 C 22,3 C 6,4 km/h (2 Bft) 97,14 %
24.08.2017 12:30 22,5 C 21,7 C 64 % 1016,8 hPa 0,0 l/m 4,1 km/h (1 Bft) NO 46 2 min 0,000 mm 4,7 UV-I 723 W/m 15,3 C 22,5 C 6,4 km/h (2 Bft) 98,31 %
24.08.2017 12:32 22,6 C 21,7 C 67 % 1016,8 hPa 0,0 l/m 5,3 km/h (1 Bft) NO 40 2 min 0,000 mm 4,7 UV-I 726 W/m 16,2 C 22,6 C 9,7 km/h (2 Bft) 97,56 %
24.08.2017 12:34 22,6 C 21,7 C 67 % 1016,7 hPa 0,0 l/m 3,0 km/h (1 Bft) NO 49 2 min 0,000 mm 4,6 UV-I 694 W/m 16,2 C 22,6 C 4,8 km/h (1 Bft) 96,00 %
24.08.2017 12:36 22,5 C 21,7 C 63 % 1016,8 hPa 0,0 l/m 2,1 km/h (1 Bft) NO 49 2 min 0,000 mm 4,3 UV-I 666 W/m 15,1 C 22,5 C 4,8 km/h (1 Bft) 91,49 %
24.08.2017 12:38 22,4 C 21,7 C 64 % 1016,7 hPa 0,0 l/m 0,9 km/h (0 Bft) NO 49 2 min 0,000 mm 4,5 UV-I 697 W/m 15,2 C 22,4 C 3,2 km/h (1 Bft) 95,12 %
24.08.2017 12:40 22,6 C 21,7 C 64 % 1016,7 hPa 0,0 l/m 0,4 km/h (0 Bft) NO 49 2 min 0,000 mm 4,7 UV-I 714 W/m 15,4 C 22,6 C 3,2 km/h (1 Bft) 96,00 %
24.08.2017 12:42 22,6 C 21,7 C 65 % 1016,7 hPa 0,0 l/m 4,3 km/h (1 Bft) NO 50 2 min 0,000 mm 4,7 UV-I 715 W/m 15,7 C 22,6 C 9,7 km/h (2 Bft) 92,45 %
24.08.2017 12:44 22,8 C 21,7 C 67 % 1016,7 hPa 0,0 l/m 6,6 km/h (2 Bft) N-NO 32 2 min 0,000 mm 4,8 UV-I 743 W/m 16,3 C 22,7 C 11,3 km/h (2 Bft) 97,37 %
24.08.2017 12:46 22,8 C 21,7 C 66 % 1016,6 hPa 0,0 l/m 3,6 km/h (1 Bft) N-NO 30 2 min 0,000 mm 4,8 UV-I 747 W/m 16,1 C 22,8 C 6,4 km/h (2 Bft) 98,00 %
24.08.2017 12:48 23,1 C 21,7 C 67 % 1016,6 hPa 0,0 l/m 5,0 km/h (1 Bft) N-NO 18 2 min 0,000 mm 4,8 UV-I 727 W/m 16,6 C 23,1 C 9,7 km/h (2 Bft) 98,00 %
24.08.2017 12:50 23,1 C 21,7 C 64 % 1016,6 hPa 0,0 l/m 2,4 km/h (1 Bft) N-NO 23 2 min 0,000 mm 4,5 UV-I 675 W/m 15,9 C 23,1 C 6,4 km/h (2 Bft) 98,00 %
24.08.2017 12:52 23,0 C 22,2 C 65 % 1016,6 hPa 0,0 l/m 1,4 km/h (1 Bft) N-NO 25 2 min 0,000 mm 4,3 UV-I 566 W/m 16,1 C 23,0 C 8,0 km/h (2 Bft) 94,87 %
24.08.2017 12:54 23,2 C 22,2 C 65 % 1016,6 hPa 0,0 l/m 5,0 km/h (1 Bft) NO 34 2 min 0,000 mm 4,3 UV-I 620 W/m 16,2 C 23,2 C 8,0 km/h (2 Bft) 96,23 %
24.08.2017 12:56 23,2 C 22,2 C 64 % 1016,6 hPa 0,0 l/m 4,1 km/h (1 Bft) NO 46 2 min 0,000 mm 4,2 UV-I 612 W/m 16,0 C 23,2 C 6,4 km/h (2 Bft) 97,62 %
24.08.2017 12:58 23,3 C 22,2 C 65 % 1016,6 hPa 0,0 l/m 4,3 km/h (1 Bft) O-NO 58 2 min 0,000 mm 4,2 UV-I 615 W/m 16,3 C 23,3 C 8,0 km/h (2 Bft) 98,00 %
24.08.2017 13:00 23,3 C 22,2 C 67 % 1016,5 hPa 0,0 l/m 4,9 km/h (1 Bft) NO 40 2 min 0,407 mm 4,6 UV-I 685 W/m 16,8 C 23,3 C 6,4 km/h (2 Bft) 97,73 %
24.08.2017 13:02 23,6 C 22,2 C 66 % 1016,6 hPa 0,0 l/m 2,7 km/h (1 Bft) NO 42 2 min 0,000 mm 4,8 UV-I 741 W/m 16,9 C 23,6 C 4,8 km/h (1 Bft) 96,00 %
24.08.2017 13:04 23,6 C 22,2 C 64 % 1016,6 hPa 0,0 l/m 4,2 km/h (1 Bft) O-NO 57 2 min 0,000 mm 4,9 UV-I 770 W/m 16,4 C 23,6 C 8,0 km/h (2 Bft) 96,00 %
24.08.2017 13:06 23,7 C 22,2 C 68 % 1016,6 hPa 0,0 l/m 7,2 km/h (2 Bft) O-NO 63 2 min 0,000 mm 4,8 UV-I 728 W/m 17,4 C 23,5 C 11,3 km/h (2 Bft) 97,37 %
24.08.2017 13:08 23,7 C 22,2 C 64 % 1016,6 hPa 0,0 l/m 6,5 km/h (2 Bft) NO 44 2 min 0,000 mm 4,6 UV-I 689 W/m 16,5 C 23,7 C 8,0 km/h (2 Bft) 98,21 %
24.08.2017 13:10 23,6 C 22,2 C 63 % 1016,6 hPa 0,0 l/m 3,3 km/h (1 Bft) N-NO 30 2 min 0,000 mm 4,8 UV-I 751 W/m 16,1 C 23,6 C 8,0 km/h (2 Bft) 97,56 %
24.08.2017 13:12 23,6 C 22,2 C 63 % 1016,5 hPa 0,0 l/m 6,0 km/h (2 Bft) O-NO 67 2 min 0,000 mm 4,6 UV-I 699 W/m 16,1 C 23,6 C 9,7 km/h (2 Bft) 97,73 %
24.08.2017 13:14 23,7 C 22,2 C 63 % 1016,5 hPa 0,0 l/m 5,2 km/h (1 Bft) NO 49 2 min 0,000 mm 4,5 UV-I 683 W/m 16,2 C 23,7 C 8,0 km/h (2 Bft) 98,11 %
24.08.2017 13:16 23,7 C 22,2 C 64 % 1016,5 hPa 0,0 l/m 2,0 km/h (1 Bft) N-NO 29 2 min 0,000 mm 4,8 UV-I 766 W/m 16,5 C 23,7 C 4,8 km/h (1 Bft) 95,74 %
24.08.2017 13:18 23,8 C 22,2 C 62 % 1016,4 hPa 0,0 l/m 4,1 km/h (1 Bft) NO 41 2 min 0,000 mm 4,5 UV-I 713 W/m 16,1 C 23,8 C 6,4 km/h (2 Bft) 97,73 %
24.08.2017 13:20 23,7 C 22,2 C 63 % 1016,4 hPa 0,0 l/m 1,1 km/h (1 Bft) NO 41 2 min 0,000 mm 4,6 UV-I 730 W/m 16,2 C 23,7 C 3,2 km/h (1 Bft) 98,00 %
24.08.2017 13:22 23,8 C 22,2 C 64 % 1016,4 hPa 0,0 l/m 1,4 km/h (1 Bft) NO 41 2 min 0,000 mm 4,4 UV-I 701 W/m 16,6 C 23,8 C 4,8 km/h (1 Bft) 97,37 %
24.08.2017 13:24 24,1 C 22,2 C 66 % 1016,4 hPa 0,0 l/m 2,4 km/h (1 Bft) NO 40 2 min 0,000 mm 4,6 UV-I 711 W/m 17,3 C 24,1 C 4,8 km/h (1 Bft) 98,11 %
24.08.2017 13:26 24,3 C 22,2 C 67 % 1016,5 hPa 0,0 l/m 2,1 km/h (1 Bft) NO 40 2 min 0,000 mm 4,6 UV-I 734 W/m 17,8 C 24,3 C 4,8 km/h (1 Bft) 97,44 %
24.08.2017 13:28 24,3 C 22,2 C 63 % 1016,4 hPa 0,0 l/m 0,8 km/h (0 Bft) NO 40 2 min 0,000 mm 4,7 UV-I 743 W/m 16,8 C 24,3 C 3,2 km/h (1 Bft) 96,23 %
24.08.2017 13:30 24,4 C 22,2 C 64 % 1016,4 hPa 0,0 l/m 4,3 km/h (1 Bft) NO 56 2 min 0,000 mm 4,5 UV-I 685 W/m 17,1 C 24,4 C 9,7 km/h (2 Bft) 98,00 %
24.08.2017 13:32 24,4 C 22,2 C 62 % 1016,4 hPa 0,0 l/m 2,6 km/h (1 Bft) N-NO 22 2 min 0,000 mm 4,5 UV-I 690 W/m 16,6 C 24,4 C 9,7 km/h (2 Bft) 97,87 %
24.08.2017 13:34 24,4 C 22,2 C 66 % 1016,4 hPa 0,0 l/m 3,3 km/h (1 Bft) N-NO 15 2 min 0,000 mm 4,7 UV-I 753 W/m 17,6 C 24,4 C 6,4 km/h (2 Bft) 95,74 %
24.08.2017 13:36 24,4 C 22,2 C 61 % 1016,4 hPa 0,0 l/m 1,2 km/h (1 Bft) N-NO 15 2 min 0,000 mm 4,6 UV-I 736 W/m 16,4 C 24,4 C 4,8 km/h (1 Bft) 97,14 %
24.08.2017 13:38 24,3 C 22,2 C 62 % 1016,3 hPa 0,0 l/m 1,0 km/h (0 Bft) N-NO 15 2 min 0,000 mm 4,5 UV-I 729 W/m 16,5 C 24,3 C 3,2 km/h (1 Bft) 98,21 %
24.08.2017 13:40 24,4 C 22,2 C 65 % 1016,3 hPa 0,0 l/m 2,4 km/h (1 Bft) N-NO 13 2 min 0,000 mm 4,5 UV-I 728 W/m 17,4 C 24,4 C 8,0 km/h (2 Bft) 97,56 %
24.08.2017 13:42 24,6 C 22,2 C 63 % 1016,3 hPa 0,0 l/m 3,3 km/h (1 Bft) N-NO 25 2 min 0,000 mm 4,5 UV-I 727 W/m 17,1 C 24,6 C 8,0 km/h (2 Bft) 100,00 %
24.08.2017 13:44 24,4 C 22,2 C 62 % 1016,3 hPa 0,0 l/m 1,1 km/h (1 Bft) N 355 2 min 0,000 mm 4,4 UV-I 713 W/m 16,6 C 24,4 C 3,2 km/h (1 Bft) 100,00 %
24.08.2017 13:46 24,6 C 22,2 C 67 % 1016,2 hPa 0,0 l/m 3,0 km/h (1 Bft) N-NW 338 2 min 0,000 mm 4,4 UV-I 712 W/m 18,1 C 24,6 C 6,4 km/h (2 Bft) 100,00 %
24.08.2017 13:48 24,7 C 22,2 C 61 % 1016,3 hPa 0,0 l/m 3,1 km/h (1 Bft) O-NO 73 2 min 0,000 mm 4,3 UV-I 681 W/m 16,7 C 24,7 C 4,8 km/h (1 Bft) 100,00 %
24.08.2017 13:50 24,7 C 22,2 C 64 % 1016,3 hPa 0,0 l/m 7,2 km/h (2 Bft) NO 50 2 min 0,000 mm 4,3 UV-I 681 W/m 17,4 C 24,5 C 9,7 km/h (2 Bft) 100,00 %
24.08.2017 13:52 24,7 C 22,2 C 60 % 1016,3 hPa 0,0 l/m 5,4 km/h (1 Bft) NO 45 2 min 0,000 mm 4,2 UV-I 647 W/m 16,4 C 24,7 C 11,3 km/h (2 Bft) 100,00 %
24.08.2017 13:54 24,6 C 22,2 C 63 % 1016,2 hPa 0,0 l/m 0,6 km/h (0 Bft) NO 42 2 min 0,000 mm 4,2 UV-I 670 W/m 17,1 C 24,6 C 3,2 km/h (1 Bft) 100,00 %
24.08.2017 13:56 24,7 C 22,2 C 63 % 1016,2 hPa 0,0 l/m 1,3 km/h (1 Bft) N-NO 21 2 min 0,000 mm 4,3 UV-I 719 W/m 17,2 C 24,7 C 4,8 km/h (1 Bft) 100,00 %
24.08.2017 13:58 24,7 C 22,2 C 61 % 1016,2 hPa 0,0 l/m 4,4 km/h (1 Bft) NO 40 2 min 0,000 mm 4,1 UV-I 652 W/m 16,7 C 24,7 C 6,4 km/h (2 Bft) 100,00 %
24.08.2017 14:00 24,7 C 22,2 C 63 % 1016,2 hPa 0,0 l/m 5,7 km/h (1 Bft) NO 54 2 min 0,457 mm 4,1 UV-I 652 W/m 17,2 C 24,7 C 8,0 km/h (2 Bft) 100,00 %
24.08.2017 14:02 24,8 C 22,2 C 62 % 1016,2 hPa 0,0 l/m 4,9 km/h (1 Bft) O-NO 59 2 min 0,000 mm 4,3 UV-I 710 W/m 17,0 C 24,8 C 9,7 km/h (2 Bft) 100,00 %
24.08.2017 14:04 25,0 C 22,2 C 61 % 1016,2 hPa 0,0 l/m 5,2 km/h (1 Bft) NO 55 2 min 0,000 mm 4,3 UV-I 733 W/m 16,9 C 25,0 C 11,3 km/h (2 Bft) 100,00 %
24.08.2017 14:06 25,1 C 22,2 C 62 % 1016,2 hPa 0,0 l/m 2,5 km/h (1 Bft) NO 55 2 min 0,000 mm 4,3 UV-I 731 W/m 17,3 C 25,1 C 6,4 km/h (2 Bft) 98,00 %
24.08.2017 14:08 25,2 C 22,2 C 63 % 1016,1 hPa 0,0 l/m 1,4 km/h (1 Bft) N 349 2 min 0,000 mm 4,4 UV-I 756 W/m 17,6 C 25,2 C 3,2 km/h (1 Bft) 95,74 %
24.08.2017 14:10 25,1 C 22,2 C 64 % 1016,2 hPa 0,0 l/m 6,3 km/h (2 Bft) N-NO 26 2 min 0,000 mm 4,3 UV-I 742 W/m 17,8 C 25,1 C 11,3 km/h (2 Bft) 98,00 %
24.08.2017 14:12 25,2 C 22,2 C 64 % 1016,1 hPa 0,0 l/m 6,9 km/h (2 Bft) N-NO 25 2 min 0,000 mm 4,4 UV-I 777 W/m 17,9 C 25,1 C 9,7 km/h (2 Bft) 97,73 %
24.08.2017 14:14 25,3 C 22,2 C 64 % 1016,1 hPa 0,0 l/m 2,2 km/h (1 Bft) NO 51 2 min 0,000 mm 4,1 UV-I 778 W/m 18,0 C 25,3 C 6,4 km/h (2 Bft) 95,74 %
24.08.2017 14:16 25,3 C 22,2 C 60 % 1016,1 hPa 0,0 l/m 5,1 km/h (1 Bft) O-NO 78 2 min 0,000 mm 4,2 UV-I 717 W/m 17,0 C 25,3 C 8,0 km/h (2 Bft) 98,00 %
24.08.2017 14:18 25,4 C 22,2 C 65 % 1016,1 hPa 0,0 l/m 4,5 km/h (1 Bft) N-NO 18 2 min 0,000 mm 4,2 UV-I 728 W/m 18,3 C 25,4 C 8,0 km/h (2 Bft) 97,37 %
24.08.2017 14:20 25,3 C 22,2 C 61 % 1016,1 hPa 0,0 l/m 4,8 km/h (1 Bft) NO 55 2 min 0,000 mm 4,2 UV-I 731 W/m 17,2 C 25,3 C 8,0 km/h (2 Bft) 96,00 %
24.08.2017 14:22 25,4 C 22,2 C 65 % 1016,1 hPa 0,0 l/m 9,5 km/h (2 Bft) O-NO 63 2 min 0,000 mm 4,2 UV-I 756 W/m 18,3 C 24,7 C 14,5 km/h (3 Bft) 98,00 %
24.08.2017 14:24 25,4 C 22,2 C 62 % 1016,0 hPa 0,0 l/m 4,8 km/h (1 Bft) NO 40 2 min 0,000 mm 4,1 UV-I 719 W/m 17,6 C 25,4 C 9,7 km/h (2 Bft) 97,56 %
24.08.2017 14:26 25,4 C 22,2 C 63 % 1016,0 hPa 0,0 l/m 7,1 km/h (2 Bft) N-NO 29 2 min 0,000 mm 4,0 UV-I 689 W/m 17,8 C 25,2 C 12,9 km/h (3 Bft) 97,87 %
24.08.2017 14:28 25,4 C 22,2 C 61 % 1016,0 hPa 0,0 l/m 4,0 km/h (1 Bft) O-NO 60 2 min 0,000 mm 4,1 UV-I 713 W/m 17,3 C 25,4 C 6,4 km/h (2 Bft) 97,87 %
24.08.2017 14:30 25,5 C 22,2 C 66 % 1015,9 hPa 0,0 l/m 3,8 km/h (1 Bft) N-NO 23 2 min 0,000 mm 4,1 UV-I 725 W/m 18,7 C 25,5 C 6,4 km/h (2 Bft) 93,62 %
24.08.2017 14:32 25,8 C 22,2 C 65 % 1015,9 hPa 0,0 l/m 3,8 km/h (1 Bft) NO 37 2 min 0,000 mm 4,1 UV-I 717 W/m 18,7 C 25,8 C 9,7 km/h (2 Bft) 98,00 %
24.08.2017 14:34 25,9 C 22,2 C 62 % 1015,9 hPa 0,0 l/m 1,8 km/h (1 Bft) N-NO 21 2 min 0,000 mm 4,1 UV-I 733 W/m 18,0 C 25,9 C 4,8 km/h (1 Bft) 97,37 %
24.08.2017 14:36 25,7 C 22,2 C 60 % 1015,9 hPa 0,0 l/m 0,9 km/h (0 Bft) N 5 2 min 0,000 mm 4,1 UV-I 725 W/m 17,3 C 25,7 C 3,2 km/h (1 Bft) 94,92 %
24.08.2017 14:38 25,6 C 22,8 C 60 % 1015,9 hPa 0,0 l/m 2,6 km/h (1 Bft) NO 37 2 min 0,000 mm 4,0 UV-I 709 W/m 17,2 C 25,6 C 14,5 km/h (3 Bft) 97,73 %
24.08.2017 14:40 25,6 C 22,8 C 60 % 1015,9 hPa 0,0 l/m 2,4 km/h (1 Bft) N-NO 14 2 min 0,000 mm 3,9 UV-I 671 W/m 17,2 C 25,6 C 6,4 km/h (2 Bft) 100,00 %
24.08.2017 14:42 25,6 C 22,8 C 58 % 1015,9 hPa 0,0 l/m 4,8 km/h (1 Bft) NO 46 2 min 0,000 mm 3,8 UV-I 643 W/m 16,7 C 25,6 C 9,7 km/h (2 Bft) 100,00 %
24.08.2017 14:44 25,7 C 22,8 C 61 % 1015,9 hPa 0,0 l/m 4,0 km/h (1 Bft) NO 49 2 min 0,000 mm 3,9 UV-I 682 W/m 17,6 C 25,7 C 6,4 km/h (2 Bft) 100,00 %
24.08.2017 14:46 25,8 C 22,8 C 60 % 1015,9 hPa 0,0 l/m 2,3 km/h (1 Bft) NO 40 2 min 0,000 mm 3,9 UV-I 703 W/m 17,4 C 25,8 C 4,8 km/h (1 Bft) 100,00 %
24.08.2017 14:48 25,8 C 22,8 C 59 % 1015,9 hPa 0,0 l/m 1,3 km/h (1 Bft) N-NO 32 2 min 0,000 mm 3,9 UV-I 690 W/m 17,2 C 25,8 C 8,0 km/h (2 Bft) 97,92 %
24.08.2017 14:50 25,8 C 22,8 C 61 % 1015,9 hPa 0,0 l/m 3,5 km/h (1 Bft) N-NO 30 2 min 0,000 mm 3,7 UV-I 665 W/m 17,7 C 25,8 C 8,0 km/h (2 Bft) 100,00 %
24.08.2017 14:52 25,8 C 22,8 C 62 % 1015,8 hPa 0,0 l/m 3,9 km/h (1 Bft) N-NO 25 2 min 0,000 mm 3,6 UV-I 622 W/m 18,0 C 25,8 C 9,7 km/h (2 Bft) 100,00 %
24.08.2017 14:54 25,7 C 22,8 C 59 % 1015,9 hPa 0,0 l/m 1,1 km/h (1 Bft) N-NO 20 2 min 0,000 mm 3,7 UV-I 664 W/m 17,1 C 25,7 C 4,8 km/h (1 Bft) 100,00 %
24.08.2017 14:56 25,8 C 22,8 C 63 % 1015,9 hPa 0,0 l/m 4,6 km/h (1 Bft) NO 55 2 min 0,000 mm 3,6 UV-I 616 W/m 18,2 C 25,8 C 6,4 km/h (2 Bft) 100,00 %
24.08.2017 14:58 25,8 C 22,8 C 63 % 1015,8 hPa 0,0 l/m 3,9 km/h (1 Bft) N-NO 33 2 min 0,000 mm 3,4 UV-I 531 W/m 18,2 C 25,8 C 6,4 km/h (2 Bft) 100,00 %
24.08.2017 15:00 25,8 C 22,8 C 63 % 1015,8 hPa 0,0 l/m 3,3 km/h (1 Bft) NW 309 2 min 0,457 mm 3,5 UV-I 537 W/m 18,2 C 25,8 C 8,0 km/h (2 Bft) 100,00 %
24.08.2017 15:03 26,0 C 22,8 C 63 % 1015,8 hPa 0,0 l/m 2,6 km/h (1 Bft) N 355 3 min 0,000 mm 3,7 UV-I 638 W/m 18,4 C 26,0 C 6,4 km/h (2 Bft) 100,00 %
24.08.2017 15:04 26,0 C 22,8 C 60 % 1015,8 hPa 0,0 l/m 6,2 km/h (2 Bft) N-NO 27 1 min 0,000 mm 3,7 UV-I 710 W/m 17,6 C 26,0 C 8,0 km/h (2 Bft) 100,00 %
24.08.2017 15:06 26,0 C 22,8 C 63 % 1015,8 hPa 0,0 l/m 6,0 km/h (2 Bft) N-NO 30 2 min 0,000 mm 3,7 UV-I 702 W/m 18,4 C 26,0 C 9,7 km/h (2 Bft) 100,00 %
24.08.2017 15:08 26,2 C 22,8 C 61 % 1015,7 hPa 0,0 l/m 4,9 km/h (1 Bft) W-NW 303 2 min 0,000 mm 3,6 UV-I 703 W/m 18,1 C 26,2 C 9,7 km/h (2 Bft) 100,00 %
24.08.2017 15:10 26,1 C 22,8 C 61 % 1015,8 hPa 0,0 l/m 6,4 km/h (2 Bft) NO 50 2 min 0,000 mm 3,5 UV-I 692 W/m 18,0 C 26,1 C 12,9 km/h (3 Bft) 100,00 %
24.08.2017 15:12 26,2 C 22,8 C 61 % 1015,8 hPa 0,0 l/m 3,5 km/h (1 Bft) W-SW 251 2 min 0,000 mm 3,4 UV-I 664 W/m 18,1 C 26,2 C 6,4 km/h (2 Bft) 100,00 %
24.08.2017 15:14 26,2 C 22,8 C 59 % 1015,7 hPa 0,0 l/m 2,2 km/h (1 Bft) N 10 2 min 0,000 mm 3,3 UV-I 642 W/m 17,5 C 26,2 C 4,8 km/h (1 Bft) 100,00 %
24.08.2017 15:16 26,2 C 22,8 C 60 % 1015,8 hPa 0,0 l/m 6,1 km/h (2 Bft) N-NO 30 2 min 0,000 mm 3,2 UV-I 628 W/m 17,8 C 26,2 C 14,5 km/h (3 Bft) 97,37 %
24.08.2017 15:18 26,2 C 22,8 C 61 % 1015,8 hPa 0,0 l/m 3,8 km/h (1 Bft) N-NO 25 2 min 0,000 mm 3,0 UV-I 593 W/m 18,1 C 26,2 C 9,7 km/h (2 Bft) 100,00 %
24.08.2017 15:20 26,2 C 22,8 C 61 % 1015,8 hPa 0,0 l/m 2,2 km/h (1 Bft) N 355 2 min 0,000 mm 2,8 UV-I 521 W/m 18,1 C 26,2 C 4,8 km/h (1 Bft) 100,00 %
24.08.2017 15:22 26,1 C 22,8 C 60 % 1015,8 hPa 0,0 l/m 4,1 km/h (1 Bft) N 355 2 min 0,000 mm 2,9 UV-I 559 W/m 17,7 C 26,1 C 12,9 km/h (3 Bft) 100,00 %
24.08.2017 15:24 26,0 C 22,8 C 62 % 1015,7 hPa 0,0 l/m 6,4 km/h (2 Bft) N-NO 26 2 min 0,000 mm 3,1 UV-I 626 W/m 18,1 C 26,0 C 9,7 km/h (2 Bft) 100,00 %
24.08.2017 15:26 26,2 C 22,8 C 62 % 1015,7 hPa 0,0 l/m 3,1 km/h (1 Bft) O-NO 71 2 min 0,000 mm 3,1 UV-I 613 W/m 18,3 C 26,2 C 9,7 km/h (2 Bft) 96,23 %
24.08.2017 15:28 26,2 C 22,8 C 62 % 1015,7 hPa 0,0 l/m 2,0 km/h (1 Bft) NO 52 2 min 0,000 mm 3,0 UV-I 537 W/m 18,3 C 26,2 C 6,4 km/h (2 Bft) 100,00 %
24.08.2017 15:30 26,3 C 22,8 C 62 % 1015,7 hPa 0,0 l/m 3,8 km/h (1 Bft) S-SO 150 2 min 0,000 mm 3,2 UV-I 606 W/m 18,4 C 26,3 C 8,0 km/h (2 Bft) 100,00 %
24.08.2017 15:32 26,3 C 22,8 C 59 % 1015,7 hPa 0,0 l/m 1,8 km/h (1 Bft) NO 44 2 min 0,000 mm 3,1 UV-I 638 W/m 17,6 C 26,3 C 4,8 km/h (1 Bft) 97,73 %
24.08.2017 15:34 26,2 C 22,8 C 60 % 1015,7 hPa 0,0 l/m 5,5 km/h (1 Bft) NO 51 2 min 0,000 mm 3,1 UV-I 632 W/m 17,8 C 26,2 C 12,9 km/h (3 Bft) 98,11 %
24.08.2017 15:36 26,3 C 22,8 C 62 % 1015,7 hPa 0,0 l/m 6,1 km/h (2 Bft) N-NO 22 2 min 0,000 mm 3,0 UV-I 613 W/m 18,4 C 26,3 C 11,3 km/h (2 Bft) 100,00 %
24.08.2017 15:38 26,3 C 22,8 C 62 % 1015,7 hPa 0,0 l/m 2,6 km/h (1 Bft) NO 42 2 min 0,000 mm 3,0 UV-I 596 W/m 18,4 C 26,3 C 8,0 km/h (2 Bft) 100,00 %
24.08.2017 15:40 26,4 C 22,8 C 60 % 1015,7 hPa 0,0 l/m 7,6 km/h (2 Bft) N 10 2 min 0,000 mm 3,0 UV-I 592 W/m 18,0 C 26,2 C 12,9 km/h (3 Bft) 100,00 %
24.08.2017 15:42 26,4 C 22,8 C 60 % 1015,6 hPa 0,0 l/m 5,6 km/h (1 Bft) N-NO 33 2 min 0,000 mm 3,0 UV-I 409 W/m 18,0 C 26,4 C 11,3 km/h (2 Bft) 100,00 %
24.08.2017 15:44 26,4 C 22,8 C 62 % 1015,7 hPa 0,0 l/m 1,7 km/h (1 Bft) N-NO 17 2 min 0,000 mm 2,9 UV-I 602 W/m 18,5 C 26,4 C 11,3 km/h (2 Bft) 100,00 %
24.08.2017 15:46 26,7 C 22,8 C 64 % 1015,6 hPa 0,0 l/m 5,3 km/h (1 Bft) NO 56 2 min 0,000 mm 2,8 UV-I 592 W/m 19,3 C 26,7 C 8,0 km/h (2 Bft) 100,00 %
24.08.2017 15:48 26,7 C 22,8 C 59 % 1015,6 hPa 0,0 l/m 5,1 km/h (1 Bft) NO 39 2 min 0,000 mm 2,8 UV-I 573 W/m 18,0 C 26,7 C 8,0 km/h (2 Bft) 100,00 %
24.08.2017 15:50 26,7 C 22,8 C 60 % 1015,6 hPa 0,0 l/m 4,5 km/h (1 Bft) N-NO 20 2 min 0,000 mm 2,8 UV-I 559 W/m 18,3 C 26,7 C 8,0 km/h (2 Bft) 97,56 %
24.08.2017 15:52 26,5 C 22,8 C 58 % 1015,6 hPa 0,0 l/m 6,0 km/h (2 Bft) N-NO 26 2 min 0,000 mm 2,8 UV-I 598 W/m 17,5 C 26,5 C 9,7 km/h (2 Bft) 97,73 %
24.08.2017 15:54 26,4 C 22,8 C 60 % 1015,6 hPa 0,0 l/m 4,3 km/h (1 Bft) NO 34 2 min 0,000 mm 2,8 UV-I 607 W/m 18,0 C 26,4 C 6,4 km/h (2 Bft) 100,00 %
24.08.2017 15:56 26,4 C 22,8 C 56 % 1015,6 hPa 0,0 l/m 2,9 km/h (1 Bft) O-SO 107 2 min 0,000 mm 2,8 UV-I 600 W/m 16,9 C 26,4 C 4,8 km/h (1 Bft) 97,87 %
24.08.2017 15:58 26,4 C 22,8 C 60 % 1015,6 hPa 0,0 l/m 2,9 km/h (1 Bft) O-NO 60 2 min 0,000 mm 2,7 UV-I 584 W/m 18,0 C 26,4 C 8,0 km/h (2 Bft) 93,62 %
24.08.2017 16:00 26,6 C 22,8 C 58 % 1015,6 hPa 0,0 l/m 3,0 km/h (1 Bft) O-NO 60 2 min 0,000 mm 2,6 UV-I 589 W/m 17,6 C 26,6 C 6,4 km/h (2 Bft) 95,74 %
24.08.2017 16:02 26,7 C 22,8 C 59 % 1015,6 hPa 0,0 l/m 2,8 km/h (1 Bft) N-NO 23 2 min 0,407 mm 2,4 UV-I 536 W/m 18,0 C 26,7 C 8,0 km/h (2 Bft) 97,73 %
24.08.2017 16:04 26,7 C 22,8 C 59 % 1015,6 hPa 0,0 l/m 5,8 km/h (2 Bft) NO 56 2 min 0,000 mm 2,2 UV-I 487 W/m 18,0 C 26,7 C 9,7 km/h (2 Bft) 94,00 %
24.08.2017 16:06 26,6 C 22,8 C 58 % 1015,6 hPa 0,0 l/m 4,8 km/h (1 Bft) O-NO 69 2 min 0,000 mm 2,2 UV-I 502 W/m 17,6 C 26,6 C 6,4 km/h (2 Bft) 96,15 %
24.08.2017 16:08 26,4 C 22,8 C 56 % 1015,5 hPa 0,0 l/m 3,2 km/h (1 Bft) O 83 2 min 0,000 mm 2,2 UV-I 438 W/m 16,9 C 26,4 C 6,4 km/h (2 Bft) 95,83 %
24.08.2017 16:10 26,4 C 22,8 C 59 % 1015,5 hPa 0,0 l/m 2,1 km/h (1 Bft) O 86 2 min 0,000 mm 2,3 UV-I 524 W/m 17,7 C 26,4 C 4,8 km/h (1 Bft) 94,74 %
24.08.2017 16:12 26,4 C 22,8 C 60 % 1015,5 hPa 0,0 l/m 2,9 km/h (1 Bft) N-NO 29 2 min 0,000 mm 2,4 UV-I 580 W/m 18,0 C 26,4 C 6,4 km/h (2 Bft) 93,62 %
24.08.2017 16:14 26,4 C 22,8 C 59 % 1015,5 hPa 0,0 l/m 5,9 km/h (2 Bft) N-NO 27 2 min 0,000 mm 2,4 UV-I 554 W/m 17,7 C 26,4 C 8,0 km/h (2 Bft) 95,74 %
24.08.2017 16:16 26,5 C 22,8 C 58 % 1015,5 hPa 0,0 l/m 4,8 km/h (1 Bft) N-NO 17 2 min 0,000 mm 2,3 UV-I 543 W/m 17,5 C 26,5 C 8,0 km/h (2 Bft) 94,00 %
24.08.2017 16:18 26,6 C 22,8 C 60 % 1015,5 hPa 0,0 l/m 2,5 km/h (1 Bft) N 5 2 min 0,000 mm 2,2 UV-I 505 W/m 18,2 C 26,6 C 6,4 km/h (2 Bft) 95,45 %
24.08.2017 16:20 26,6 C 22,8 C 57 % 1015,5 hPa 0,0 l/m 1,5 km/h (1 Bft) N 5 2 min 0,000 mm 2,1 UV-I 438 W/m 17,4 C 26,6 C 6,4 km/h (2 Bft) 95,74 %
24.08.2017 16:22 26,4 C 22,8 C 58 % 1015,5 hPa 0,0 l/m 0,9 km/h (0 Bft) NO 50 2 min 0,000 mm 2,1 UV-I 455 W/m 17,5 C 26,4 C 4,8 km/h (1 Bft) 94,34 %
24.08.2017 16:24 26,4 C 22,8 C 58 % 1015,5 hPa 0,0 l/m 6,4 km/h (2 Bft) NO 36 2 min 0,000 mm 2,0 UV-I 467 W/m 17,5 C 26,4 C 9,7 km/h (2 Bft) 96,15 %
24.08.2017 16:26 26,4 C 22,8 C 58 % 1015,5 hPa 0,0 l/m 3,4 km/h (1 Bft) NO 40 2 min 0,000 mm 2,0 UV-I 476 W/m 17,5 C 26,4 C 4,8 km/h (1 Bft) 95,38 %
24.08.2017 16:28 26,4 C 22,8 C 58 % 1015,5 hPa 0,0 l/m 1,2 km/h (1 Bft) NO 48 2 min 0,000 mm 2,0 UV-I 447 W/m 17,5 C 26,4 C 6,4 km/h (2 Bft) 97,87 %
24.08.2017 16:30 26,5 C 22,8 C 60 % 1015,5 hPa 0,0 l/m 5,1 km/h (1 Bft) NO 36 2 min 0,000 mm 2,0 UV-I 508 W/m 18,1 C 26,5 C 8,0 km/h (2 Bft) 97,73 %
24.08.2017 16:32 26,6 C 22,8 C 58 % 1015,5 hPa 0,0 l/m 3,0 km/h (1 Bft) N-NO 28 2 min 0,000 mm 2,0 UV-I 512 W/m 17,6 C 26,6 C 6,4 km/h (2 Bft) 97,73 %
24.08.2017 16:34 26,6 C 22,8 C 57 % 1015,5 hPa 0,0 l/m 1,6 km/h (1 Bft) N-NO 28 2 min 0,000 mm 2,0 UV-I 499 W/m 17,4 C 26,6 C 4,8 km/h (1 Bft) 98,21 %
24.08.2017 16:36 26,6 C 22,8 C 56 % 1015,5 hPa 0,0 l/m 0,3 km/h (0 Bft) N-NO 24 2 min 0,000 mm 1,9 UV-I 487 W/m 17,1 C 26,6 C 1,6 km/h (1 Bft) 93,62 %
24.08.2017 16:38 26,6 C 22,8 C 56 % 1015,4 hPa 0,0 l/m 5,1 km/h (1 Bft) NO 36 2 min 0,000 mm 1,9 UV-I 484 W/m 17,1 C 26,6 C 8,0 km/h (2 Bft) 95,00 %
24.08.2017 16:40 26,6 C 22,8 C 59 % 1015,4 hPa 0,0 l/m 4,0 km/h (1 Bft) O-NO 57 2 min 0,000 mm 1,8 UV-I 465 W/m 17,9 C 26,6 C 9,7 km/h (2 Bft) 97,87 %
24.08.2017 16:42 26,7 C 22,8 C 57 % 1015,4 hPa 0,0 l/m 4,2 km/h (1 Bft) NO 56 2 min 0,000 mm 1,7 UV-I 451 W/m 17,5 C 26,7 C 6,4 km/h (2 Bft) 96,00 %
24.08.2017 16:44 26,7 C 22,8 C 55 % 1015,4 hPa 0,0 l/m 2,0 km/h (1 Bft) NO 56 2 min 0,000 mm 1,6 UV-I 377 W/m 16,9 C 26,7 C 6,4 km/h (2 Bft) 97,62 %
24.08.2017 16:46 26,7 C 22,8 C 57 % 1015,4 hPa 0,0 l/m 2,1 km/h (1 Bft) NO 56 2 min 0,000 mm 1,4 UV-I 290 W/m 17,5 C 26,7 C 3,2 km/h (1 Bft) 96,00 %
24.08.2017 16:48 26,7 C 23,3 C 60 % 1015,4 hPa 0,0 l/m 0,6 km/h (0 Bft) NO 45 2 min 0,000 mm 1,4 UV-I 303 W/m 18,3 C 26,7 C 3,2 km/h (1 Bft) 97,73 %
24.08.2017 16:50 26,7 C 23,3 C 59 % 1015,4 hPa 0,0 l/m 1,6 km/h (1 Bft) N-NO 19 2 min 0,000 mm 1,5 UV-I 405 W/m 18,0 C 26,7 C 4,8 km/h (1 Bft) 98,11 %
24.08.2017 16:52 26,6 C 23,3 C 59 % 1015,3 hPa 0,0 l/m 0,9 km/h (0 Bft) N-NW 331 2 min 0,000 mm 1,5 UV-I 393 W/m 17,9 C 26,6 C 3,2 km/h (1 Bft) 100,00 %
24.08.2017 16:54 26,7 C 23,3 C 59 % 1015,3 hPa 0,0 l/m 0,4 km/h (0 Bft) N-NW 331 2 min 0,000 mm 1,5 UV-I 406 W/m 18,0 C 26,7 C 1,6 km/h (1 Bft) 100,00 %
24.08.2017 16:56 26,8 C 23,3 C 58 % 1015,3 hPa 0,0 l/m 0,8 km/h (0 Bft) N-NO 21 2 min 0,000 mm 1,4 UV-I 343 W/m 17,8 C 26,8 C 4,8 km/h (1 Bft) 100,00 %
24.08.2017 16:58 26,8 C 23,3 C 60 % 1015,3 hPa 0,0 l/m 5,2 km/h (1 Bft) NO 40 2 min 0,000 mm 1,3 UV-I 279 W/m 18,4 C 26,8 C 8,0 km/h (2 Bft) 100,00 %
24.08.2017 17:00 26,7 C 23,3 C 57 % 1015,3 hPa 0,0 l/m 2,4 km/h (1 Bft) NO 40 2 min 0,304 mm 1,3 UV-I 313 W/m 17,5 C 26,7 C 4,8 km/h (1 Bft) 100,00 %
24.08.2017 17:02 26,7 C 23,3 C 56 % 1015,3 hPa 0,0 l/m 0,7 km/h (0 Bft) N 360 2 min 0,000 mm 1,3 UV-I 299 W/m 17,2 C 26,7 C 1,6 km/h (1 Bft) 98,00 %
24.08.2017 17:04 26,6 C 23,3 C 58 % 1015,3 hPa 0,0 l/m 0,2 km/h (0 Bft) N 360 2 min 0,000 mm 1,3 UV-I 291 W/m 17,6 C 26,6 C 1,6 km/h (1 Bft) 100,00 %
24.08.2017 17:06 26,6 C 23,3 C 56 % 1015,3 hPa 0,0 l/m 0,0 km/h (0 Bft) N 360 2 min 0,000 mm 1,2 UV-I 295 W/m 17,1 C 26,6 C 0,0 km/h (0 Bft) 100,00 %
24.08.2017 17:08 26,6 C 23,3 C 57 % 1015,2 hPa 0,0 l/m 0,8 km/h (0 Bft) N 360 2 min 0,000 mm 1,2 UV-I 285 W/m 17,4 C 26,6 C 3,2 km/h (1 Bft) 100,00 %
24.08.2017 17:10 26,6 C 23,3 C 58 % 1015,2 hPa 0,0 l/m 0,3 km/h (0 Bft) N 360 2 min 0,000 mm 1,3 UV-I 277 W/m 17,6 C 26,6 C 1,6 km/h (1 Bft) 100,00 %
24.08.2017 17:12 26,7 C 23,3 C 59 % 1015,2 hPa 0,0 l/m 4,7 km/h (1 Bft) NO 50 2 min 0,000 mm 1,3 UV-I 415 W/m 18,0 C 26,7 C 9,7 km/h (2 Bft) 100,00 %
24.08.2017 17:14 26,8 C 23,3 C 58 % 1015,2 hPa 0,0 l/m 4,1 km/h (1 Bft) NO 50 2 min 0,000 mm 1,3 UV-I 412 W/m 17,8 C 26,8 C 4,8 km/h (1 Bft) 100,00 %
24.08.2017 17:16 26,8 C 23,3 C 59 % 1015,2 hPa 0,0 l/m 2,5 km/h (1 Bft) NO 55 2 min 0,000 mm 1,2 UV-I 374 W/m 18,1 C 26,8 C 6,4 km/h (2 Bft) 100,00 %
24.08.2017 17:18 26,8 C 23,3 C 57 % 1015,2 hPa 0,0 l/m 3,1 km/h (1 Bft) NO 55 2 min 0,000 mm 1,2 UV-I 386 W/m 17,6 C 26,8 C 4,8 km/h (1 Bft) 100,00 %
24.08.2017 17:20 26,9 C 23,3 C 58 % 1015,1 hPa 0,0 l/m 1,0 km/h (0 Bft) NO 52 2 min 0,000 mm 1,2 UV-I 349 W/m 17,9 C 26,9 C 4,8 km/h (1 Bft) 100,00 %
24.08.2017 17:22 26,9 C 23,3 C 61 % 1015,1 hPa 0,0 l/m 1,3 km/h (1 Bft) NO 49 2 min 0,000 mm 1,1 UV-I 326 W/m 18,7 C 26,9 C 3,2 km/h (1 Bft) 100,00 %
24.08.2017 17:24 26,9 C 23,3 C 59 % 1015,1 hPa 0,0 l/m 0,9 km/h (0 Bft) NO 49 2 min 0,000 mm 1,0 UV-I 310 W/m 18,2 C 26,9 C 3,2 km/h (1 Bft) 100,00 %
24.08.2017 17:26 26,9 C 23,3 C 57 % 1015,1 hPa 0,0 l/m 2,0 km/h (1 Bft) NO 44 2 min 0,000 mm 1,0 UV-I 318 W/m 17,6 C 26,9 C 4,8 km/h (1 Bft) 98,00 %
24.08.2017 17:28 26,8 C 23,3 C 56 % 1015,1 hPa 0,0 l/m 1,1 km/h (1 Bft) NO 44 2 min 0,000 mm 1,0 UV-I 307 W/m 17,3 C 26,8 C 3,2 km/h (1 Bft) 100,00 %
24.08.2017 17:30 26,8 C 23,3 C 58 % 1015,1 hPa 0,0 l/m 0,9 km/h (0 Bft) NO 44 2 min 0,000 mm 1,0 UV-I 319 W/m 17,8 C 26,8 C 3,2 km/h (1 Bft) 100,00 %
24.08.2017 17:32 26,9 C 23,3 C 57 % 1015,1 hPa 0,0 l/m 0,3 km/h (0 Bft) NO 44 2 min 0,000 mm 1,0 UV-I 327 W/m 17,6 C 26,9 C 1,6 km/h (1 Bft) 98,00 %
24.08.2017 17:34 27,0 C 23,3 C 58 % 1015,0 hPa 0,0 l/m 1,7 km/h (1 Bft) NO 44 2 min 0,000 mm 0,9 UV-I 320 W/m 18,0 C 27,0 C 3,2 km/h (1 Bft) 100,00 %
24.08.2017 17:36 27,0 C 23,3 C 58 % 1015,1 hPa 0,0 l/m 2,8 km/h (1 Bft) N-NO 31 2 min 0,000 mm 0,9 UV-I 318 W/m 18,0 C 27,0 C 4,8 km/h (1 Bft) 100,00 %
24.08.2017 17:38 27,0 C 23,3 C 59 % 1015,1 hPa 0,0 l/m 0,4 km/h (0 Bft) N-NO 31 2 min 0,000 mm 0,9 UV-I 308 W/m 18,3 C 27,0 C 3,2 km/h (1 Bft) 100,00 %
24.08.2017 17:40 26,9 C 23,3 C 58 % 1015,0 hPa 0,0 l/m 0,1 km/h (0 Bft) N-NO 31 2 min 0,000 mm 0,9 UV-I 301 W/m 17,9 C 26,9 C 1,6 km/h (1 Bft) 100,00 %
24.08.2017 17:42 26,9 C 23,3 C 57 % 1015,1 hPa 0,0 l/m 0,0 km/h (0 Bft) N-NO 31 2 min 0,000 mm 0,8 UV-I 287 W/m 17,6 C 26,9 C 0,0 km/h (0 Bft) 96,23 %
24.08.2017 17:44 26,9 C 23,3 C 59 % 1015,0 hPa 0,0 l/m 1,2 km/h (1 Bft) N-NO 31 2 min 0,000 mm 0,8 UV-I 295 W/m 18,2 C 26,9 C 3,2 km/h (1 Bft) 97,37 %
24.08.2017 17:46 27,0 C 23,3 C 59 % 1015,0 hPa 0,0 l/m 1,0 km/h (0 Bft) NO 51 2 min 0,000 mm 0,8 UV-I 284 W/m 18,3 C 27,0 C 1,6 km/h (1 Bft) 98,00 %
24.08.2017 17:48 27,1 C 23,3 C 58 % 1015,0 hPa 0,0 l/m 4,2 km/h (1 Bft) O 90 2 min 0,000 mm 0,8 UV-I 280 W/m 18,1 C 27,1 C 6,4 km/h (2 Bft) 96,23 %
24.08.2017 17:50 27,1 C 23,3 C 59 % 1015,0 hPa 0,0 l/m 3,1 km/h (1 Bft) O 88 2 min 0,000 mm 0,7 UV-I 275 W/m 18,4 C 27,1 C 4,8 km/h (1 Bft) 97,56 %
24.08.2017 17:52 27,0 C 23,3 C 57 % 1015,0 hPa 0,0 l/m 1,3 km/h (1 Bft) O 88 2 min 0,000 mm 0,7 UV-I 268 W/m 17,7 C 27,0 C 4,8 km/h (1 Bft) 97,87 %
24.08.2017 17:54 27,0 C 23,3 C 59 % 1015,0 hPa 0,0 l/m 1,5 km/h (1 Bft) O 88 2 min 0,000 mm 0,7 UV-I 262 W/m 18,3 C 27,0 C 3,2 km/h (1 Bft) 95,74 %
24.08.2017 17:56 27,1 C 23,3 C 58 % 1015,0 hPa 0,0 l/m 2,5 km/h (1 Bft) O-SO 108 2 min 0,000 mm 0,7 UV-I 256 W/m 18,1 C 27,1 C 4,8 km/h (1 Bft) 97,73 %
24.08.2017 17:58 26,9 C 23,3 C 57 % 1015,0 hPa 0,0 l/m 1,4 km/h (1 Bft) S-SO 164 2 min 0,000 mm 0,6 UV-I 249 W/m 17,6 C 26,9 C 3,2 km/h (1 Bft) 98,11 %
24.08.2017 18:00 26,8 C 23,3 C 57 % 1015,0 hPa 0,0 l/m 3,1 km/h (1 Bft) S-SO 149 2 min 0,000 mm 0,6 UV-I 244 W/m 17,6 C 26,8 C 6,4 km/h (2 Bft) 97,44 %
24.08.2017 18:02 26,8 C 23,3 C 58 % 1015,0 hPa 0,0 l/m 0,5 km/h (0 Bft) SO 145 2 min 0,204 mm 0,6 UV-I 238 W/m 17,8 C 26,8 C 1,6 km/h (1 Bft) 95,12 %
24.08.2017 18:04 26,9 C 23,3 C 60 % 1015,0 hPa 0,0 l/m 3,0 km/h (1 Bft) SO 140 2 min 0,000 mm 0,6 UV-I 232 W/m 18,5 C 26,9 C 4,8 km/h (1 Bft) 96,77 %
24.08.2017 18:06 27,0 C 23,3 C 60 % 1015,0 hPa 0,0 l/m 2,9 km/h (1 Bft) SO 136 2 min 0,000 mm 0,5 UV-I 226 W/m 18,6 C 27,0 C 4,8 km/h (1 Bft) 97,37 %
24.08.2017 18:08 27,0 C 23,3 C 58 % 1015,0 hPa 0,0 l/m 2,9 km/h (1 Bft) O 92 2 min 0,000 mm 0,5 UV-I 220 W/m 18,0 C 27,0 C 6,4 km/h (2 Bft) 100,00 %
24.08.2017 18:10 27,0 C 23,3 C 59 % 1015,0 hPa 0,0 l/m 3,7 km/h (1 Bft) O-NO 70 2 min 0,000 mm 0,5 UV-I 216 W/m 18,3 C 27,0 C 6,4 km/h (2 Bft) 100,00 %
24.08.2017 18:12 27,0 C 23,3 C 58 % 1015,0 hPa 0,0 l/m 3,4 km/h (1 Bft) O 85 2 min 0,000 mm 0,5 UV-I 210 W/m 18,0 C 27,0 C 4,8 km/h (1 Bft) 100,00 %
24.08.2017 18:14 27,0 C 23,3 C 59 % 1015,0 hPa 0,0 l/m 2,2 km/h (1 Bft) O 85 2 min 0,000 mm 0,5 UV-I 205 W/m 18,3 C 27,0 C 4,8 km/h (1 Bft) 97,56 %
24.08.2017 18:16 26,9 C 23,3 C 59 % 1015,0 hPa 0,0 l/m 3,0 km/h (1 Bft) O 85 2 min 0,000 mm 0,1 UV-I 199 W/m 18,2 C 26,9 C 4,8 km/h (1 Bft) 100,00 %
24.08.2017 18:18 26,9 C 23,3 C 60 % 1015,0 hPa 0,0 l/m 1,9 km/h (1 Bft) O 85 2 min 0,000 mm 0,0 UV-I 194 W/m 18,5 C 26,9 C 3,2 km/h (1 Bft) 100,00 %
24.08.2017 18:20 26,9 C 23,3 C 58 % 1015,0 hPa 0,0 l/m 0,8 km/h (0 Bft) O 85 2 min 0,000 mm 0,0 UV-I 188 W/m 17,9 C 26,9 C 3,2 km/h (1 Bft) 100,00 %
24.08.2017 18:22 26,9 C 23,3 C 59 % 1015,1 hPa 0,0 l/m 1,4 km/h (1 Bft) O 85 2 min 0,000 mm 0,0 UV-I 185 W/m 18,2 C 26,9 C 3,2 km/h (1 Bft) 97,87 %
24.08.2017 18:24 26,9 C 23,3 C 59 % 1015,0 hPa 0,0 l/m 2,2 km/h (1 Bft) O 88 2 min 0,000 mm 0,0 UV-I 179 W/m 18,2 C 26,9 C 4,8 km/h (1 Bft) 100,00 %
24.08.2017 18:26 26,9 C 23,3 C 57 % 1015,0 hPa 0,0 l/m 1,1 km/h (1 Bft) O 89 2 min 0,000 mm 0,0 UV-I 174 W/m 17,6 C 26,9 C 3,2 km/h (1 Bft) 97,37 %
24.08.2017 18:28 26,8 C 23,3 C 57 % 1015,0 hPa 0,0 l/m 0,6 km/h (0 Bft) O 89 2 min 0,000 mm 0,0 UV-I 170 W/m 17,6 C 26,8 C 3,2 km/h (1 Bft) 100,00 %
24.08.2017 18:30 26,8 C 23,3 C 57 % 1014,9 hPa 0,0 l/m 0,3 km/h (0 Bft) O 89 2 min 0,000 mm 0,0 UV-I 163 W/m 17,6 C 26,8 C 3,2 km/h (1 Bft) 100,00 %
24.08.2017 18:32 26,7 C 23,3 C 60 % 1014,9 hPa 0,0 l/m 2,4 km/h (1 Bft) O 93 2 min 0,000 mm 0,0 UV-I 158 W/m 18,3 C 26,7 C 4,8 km/h (1 Bft) 100,00 %
24.08.2017 18:34 26,7 C 23,3 C 61 % 1015,0 hPa 0,0 l/m 2,4 km/h (1 Bft) O 94 2 min 0,000 mm 0,0 UV-I 153 W/m 18,5 C 26,7 C 3,2 km/h (1 Bft) 100,00 %
24.08.2017 18:36 26,7 C 23,3 C 61 % 1014,9 hPa 0,0 l/m 1,3 km/h (1 Bft) O 94 2 min 0,000 mm 0,0 UV-I 147 W/m 18,5 C 26,7 C 3,2 km/h (1 Bft) 96,30 %
24.08.2017 18:38 26,6 C 23,3 C 61 % 1015,0 hPa 0,0 l/m 2,3 km/h (1 Bft) O 94 2 min 0,000 mm 0,0 UV-I 142 W/m 18,4 C 26,6 C 3,2 km/h (1 Bft) 100,00 %
24.08.2017 18:40 26,6 C 23,3 C 61 % 1015,0 hPa 0,0 l/m 1,2 km/h (1 Bft) O 94 2 min 0,000 mm 0,0 UV-I 137 W/m 18,4 C 26,6 C 3,2 km/h (1 Bft) 100,00 %
24.08.2017 18:42 26,6 C 23,3 C 60 % 1015,0 hPa 0,0 l/m 1,6 km/h (1 Bft) O 94 2 min 0,000 mm 0,0 UV-I 131 W/m 18,2 C 26,6 C 4,8 km/h (1 Bft) 100,00 %
24.08.2017 18:44 26,6 C 23,3 C 61 % 1015,0 hPa 0,0 l/m 2,3 km/h (1 Bft) O 94 2 min 0,000 mm 0,0 UV-I 126 W/m 18,4 C 26,6 C 3,2 km/h (1 Bft) 100,00 %
24.08.2017 18:46 26,6 C 23,3 C 63 % 1014,9 hPa 0,0 l/m 2,3 km/h (1 Bft) O 94 2 min 0,000 mm 0,0 UV-I 121 W/m 19,0 C 26,6 C 4,8 km/h (1 Bft) 98,00 %
24.08.2017 18:48 26,6 C 23,3 C 61 % 1014,9 hPa 0,0 l/m 2,2 km/h (1 Bft) O 94 2 min 0,000 mm 0,0 UV-I 117 W/m 18,4 C 26,6 C 4,8 km/h (1 Bft) 97,56 %
24.08.2017 18:50 26,6 C 23,3 C 60 % 1014,9 hPa 0,0 l/m 2,4 km/h (1 Bft) O 94 2 min 0,000 mm 0,0 UV-I 113 W/m 18,2 C 26,6 C 3,2 km/h (1 Bft) 100,00 %
24.08.2017 18:52 26,6 C 23,3 C 60 % 1014,9 hPa 0,0 l/m 2,5 km/h (1 Bft) O 94 2 min 0,000 mm 0,0 UV-I 109 W/m 18,2 C 26,6 C 3,2 km/h (1 Bft) 95,74 %
24.08.2017 18:54 26,5 C 23,3 C 60 % 1014,9 hPa 0,0 l/m 2,8 km/h (1 Bft) O 94 2 min 0,000 mm 0,0 UV-I 103 W/m 18,1 C 26,5 C 3,2 km/h (1 Bft) 98,00 %
24.08.2017 18:56 26,5 C 23,3 C 60 % 1014,9 hPa 0,0 l/m 3,0 km/h (1 Bft) O 94 2 min 0,000 mm 0,0 UV-I 98 W/m 18,1 C 26,5 C 4,8 km/h (1 Bft) 100,00 %
24.08.2017 18:58 26,5 C 23,3 C 61 % 1014,9 hPa 0,0 l/m 2,8 km/h (1 Bft) O 94 2 min 0,000 mm 0,0 UV-I 94 W/m 18,4 C 26,5 C 4,8 km/h (1 Bft) 97,37 %
24.08.2017 19:00 26,4 C 23,3 C 62 % 1014,8 hPa 0,0 l/m 2,7 km/h (1 Bft) O 94 2 min 0,127 mm 0,0 UV-I 90 W/m 18,5 C 26,4 C 6,4 km/h (2 Bft) 100,00 %
24.08.2017 19:02 26,3 C 23,3 C 64 % 1014,9 hPa 0,0 l/m 2,7 km/h (1 Bft) O 94 2 min 0,000 mm 0,0 UV-I 86 W/m 18,9 C 26,3 C 4,8 km/h (1 Bft) 98,00 %
24.08.2017 19:04 26,2 C 23,3 C 65 % 1014,9 hPa 0,0 l/m 2,5 km/h (1 Bft) O 94 2 min 0,000 mm 0,0 UV-I 82 W/m 19,1 C 26,2 C 4,8 km/h (1 Bft) 100,00 %
24.08.2017 19:06 26,1 C 23,3 C 66 % 1014,9 hPa 0,0 l/m 2,1 km/h (1 Bft) O 94 2 min 0,000 mm 0,0 UV-I 79 W/m 19,2 C 26,1 C 3,2 km/h (1 Bft) 100,00 %
24.08.2017 19:08 25,9 C 23,3 C 66 % 1014,9 hPa 0,0 l/m 3,3 km/h (1 Bft) O 94 2 min 0,000 mm 0,0 UV-I 75 W/m 19,0 C 25,9 C 4,8 km/h (1 Bft) 97,87 %
24.08.2017 19:10 25,8 C 23,3 C 67 % 1014,9 hPa 0,0 l/m 3,0 km/h (1 Bft) O 94 2 min 0,000 mm 0,0 UV-I 71 W/m 19,2 C 25,8 C 6,4 km/h (2 Bft) 100,00 %
24.08.2017 19:12 25,7 C 23,3 C 67 % 1014,9 hPa 0,0 l/m 3,1 km/h (1 Bft) O 94 0 min 0,000 mm 0,0 UV-I 66 W/m 19,1 C 25,7 C 4,8 km/h (1 Bft) 100,00 %
24.08.2017 19:14 25,6 C 23,3 C 69 % 1014,9 hPa 0,0 l/m 3,3 km/h (1 Bft) O 94 0 min 0,000 mm 0,0 UV-I 61 W/m 19,5 C 25,6 C 4,8 km/h (1 Bft) 96,23 %
24.08.2017 19:16 25,5 C 23,3 C 68 % 1014,9 hPa 0,0 l/m 3,1 km/h (1 Bft) O 94 0 min 0,000 mm 0,0 UV-I 58 W/m 19,1 C 25,5 C 4,8 km/h (1 Bft) 100,00 %
24.08.2017 19:18 25,4 C 23,3 C 68 % 1014,9 hPa 0,0 l/m 3,2 km/h (1 Bft) O 94 0 min 0,000 mm 0,0 UV-I 46 W/m 19,1 C 25,4 C 4,8 km/h (1 Bft) 96,55 %
24.08.2017 19:20 25,2 C 23,3 C 69 % 1014,9 hPa 0,0 l/m 3,1 km/h (1 Bft) O 94 0 min 0,000 mm 0,0 UV-I 36 W/m 19,1 C 25,2 C 4,8 km/h (1 Bft) 100,00 %
24.08.2017 19:22 25,1 C 23,3 C 70 % 1014,9 hPa 0,0 l/m 2,7 km/h (1 Bft) O 94 0 min 0,000 mm 0,0 UV-I 32 W/m 19,2 C 25,1 C 4,8 km/h (1 Bft) 96,00 %
24.08.2017 19:24 24,8 C 23,3 C 72 % 1014,9 hPa 0,0 l/m 2,7 km/h (1 Bft) O 94 0 min 0,000 mm 0,0 UV-I 29 W/m 19,4 C 24,8 C 4,8 km/h (1 Bft) 94,00 %
24.08.2017 19:26 24,6 C 23,3 C 73 % 1014,8 hPa 0,0 l/m 2,8 km/h (1 Bft) O 94 0 min 0,000 mm 0,0 UV-I 25 W/m 19,4 C 24,6 C 4,8 km/h (1 Bft) 93,62 %
24.08.2017 19:28 24,4 C 23,3 C 75 % 1014,9 hPa 0,0 l/m 2,9 km/h (1 Bft) O 94 0 min 0,000 mm 0,0 UV-I 22 W/m 19,7 C 24,4 C 4,8 km/h (1 Bft) 95,12 %
24.08.2017 19:30 24,2 C 23,3 C 74 % 1014,9 hPa 0,0 l/m 3,2 km/h (1 Bft) O 94 0 min 0,000 mm 0,0 UV-I 20 W/m 19,3 C 24,2 C 4,8 km/h (1 Bft) 94,34 %
24.08.2017 19:32 24,1 C 23,3 C 75 % 1014,9 hPa 0,0 l/m 3,3 km/h (1 Bft) O 94 0 min 0,000 mm 0,0 UV-I 18 W/m 19,4 C 24,1 C 4,8 km/h (1 Bft) 92,11 %
24.08.2017 19:34 23,8 C 23,3 C 75 % 1014,9 hPa 0,0 l/m 2,3 km/h (1 Bft) O 94 0 min 0,000 mm 0,0 UV-I 18 W/m 19,1 C 23,8 C 3,2 km/h (1 Bft) 92,45 %
24.08.2017 19:36 23,6 C 23,3 C 75 % 1014,9 hPa 0,0 l/m 1,1 km/h (1 Bft) O 94 0 min 0,000 mm 0,0 UV-I 16 W/m 18,9 C 23,6 C 3,2 km/h (1 Bft) 95,74 %
24.08.2017 19:38 23,3 C 23,3 C 76 % 1014,9 hPa 0,0 l/m 3,0 km/h (1 Bft) O 94 0 min 0,000 mm 0,0 UV-I 15 W/m 18,8 C 23,3 C 4,8 km/h (1 Bft) 96,00 %
24.08.2017 19:40 23,1 C 23,3 C 77 % 1014,9 hPa 0,0 l/m 3,5 km/h (1 Bft) O 94 0 min 0,000 mm 0,0 UV-I 14 W/m 18,8 C 23,1 C 4,8 km/h (1 Bft) 94,74 %
24.08.2017 19:42 22,9 C 23,3 C 76 % 1014,9 hPa 0,0 l/m 3,1 km/h (1 Bft) O 94 0 min 0,000 mm 0,0 UV-I 14 W/m 18,4 C 22,9 C 4,8 km/h (1 Bft) 94,29 %
24.08.2017 19:44 22,9 C 23,3 C 77 % 1015,0 hPa 0,0 l/m 2,9 km/h (1 Bft) O 94 0 min 0,000 mm 0,0 UV-I 13 W/m 18,6 C 22,9 C 4,8 km/h (1 Bft) 97,06 %
24.08.2017 19:46 22,8 C 23,3 C 77 % 1015,0 hPa 0,0 l/m 2,5 km/h (1 Bft) O 94 0 min 0,000 mm 0,0 UV-I 12 W/m 18,5 C 22,8 C 3,2 km/h (1 Bft) 95,12 %
24.08.2017 19:48 22,7 C 23,3 C 77 % 1014,9 hPa 0,0 l/m 1,1 km/h (1 Bft) O 94 2 min 0,000 mm 0,0 UV-I 12 W/m 18,5 C 22,7 C 3,2 km/h (1 Bft) 93,62 %
24.08.2017 19:50 22,5 C 23,3 C 78 % 1015,0 hPa 0,0 l/m 2,4 km/h (1 Bft) O 94 2 min 0,000 mm 0,0 UV-I 11 W/m 18,5 C 22,5 C 3,2 km/h (1 Bft) 96,00 %
24.08.2017 19:52 22,4 C 23,3 C 78 % 1015,0 hPa 0,0 l/m 2,5 km/h (1 Bft) O 94 0 min 0,000 mm 0,0 UV-I 11 W/m 18,4 C 22,4 C 4,8 km/h (1 Bft) 95,74 %
24.08.2017 19:54 22,3 C 23,3 C 78 % 1015,0 hPa 0,0 l/m 2,7 km/h (1 Bft) O 94 0 min 0,000 mm 0,0 UV-I 9 W/m 18,3 C 22,3 C 3,2 km/h (1 Bft) 97,56 %
24.08.2017 19:56 22,3 C 23,3 C 79 % 1015,0 hPa 0,0 l/m 2,2 km/h (1 Bft) O 94 0 min 0,000 mm 0,0 UV-I 9 W/m 18,5 C 22,3 C 3,2 km/h (1 Bft) 97,92 %
24.08.2017 19:58 22,2 C 23,3 C 79 % 1015,0 hPa 0,0 l/m 2,7 km/h (1 Bft) O 94 0 min 0,000 mm 0,0 UV-I 7 W/m 18,4 C 22,2 C 4,8 km/h (1 Bft) 98,00 %
24.08.2017 20:00 22,1 C 23,3 C 79 % 1015,0 hPa 0,0 l/m 2,1 km/h (1 Bft) O 94 0 min 0,000 mm 0,0 UV-I 7 W/m 18,3 C 22,1 C 3,2 km/h (1 Bft) 97,37 %
24.08.2017 20:02 22,1 C 23,3 C 79 % 1014,9 hPa 0,0 l/m 3,2 km/h (1 Bft) O 94 0 min 0,025 mm 0,0 UV-I 5 W/m 18,3 C 22,1 C 4,8 km/h (1 Bft) 96,00 %
24.08.2017 20:04 22,1 C 23,3 C 79 % 1014,9 hPa 0,0 l/m 3,1 km/h (1 Bft) O 94 0 min 0,000 mm 0,0 UV-I 5 W/m 18,3 C 22,1 C 4,8 km/h (1 Bft) 98,00 %
24.08.2017 20:06 22,0 C 23,3 C 79 % 1014,9 hPa 0,0 l/m 3,1 km/h (1 Bft) O 94 0 min 0,000 mm 0,0 UV-I 5 W/m 18,2 C 22,0 C 4,8 km/h (1 Bft) 97,87 %
24.08.2017 20:08 21,9 C 23,3 C 79 % 1014,9 hPa 0,0 l/m 3,4 km/h (1 Bft) O 94 0 min 0,000 mm 0,0 UV-I 5 W/m 18,1 C 21,9 C 4,8 km/h (1 Bft) 97,67 %
24.08.2017 20:10 21,9 C 23,3 C 79 % 1014,9 hPa 0,0 l/m 3,0 km/h (1 Bft) O 94 0 min 0,000 mm 0,0 UV-I 5 W/m 18,1 C 21,9 C 4,8 km/h (1 Bft) 96,23 %
24.08.2017 20:12 21,8 C 23,3 C 80 % 1014,9 hPa 0,0 l/m 1,8 km/h (1 Bft) O 94 0 min 0,000 mm 0,0 UV-I 2 W/m 18,2 C 21,8 C 3,2 km/h (1 Bft) 100,00 %
24.08.2017 20:14 21,8 C 23,3 C 80 % 1014,9 hPa 0,0 l/m 0,8 km/h (0 Bft) O 94 0 min 0,000 mm 0,0 UV-I 0 W/m 18,2 C 21,8 C 3,2 km/h (1 Bft) 96,00 %
24.08.2017 20:16 21,7 C 23,3 C 80 % 1014,9 hPa 0,0 l/m 2,2 km/h (1 Bft) O 94 0 min 0,000 mm 0,0 UV-I 0 W/m 18,1 C 21,7 C 3,2 km/h (1 Bft) 97,87 %
24.08.2017 20:18 21,6 C 23,3 C 81 % 1014,9 hPa 0,0 l/m 3,0 km/h (1 Bft) O 94 0 min 0,000 mm 0,0 UV-I 0 W/m 18,2 C 21,6 C 3,2 km/h (1 Bft) 97,87 %
24.08.2017 20:20 21,6 C 23,3 C 82 % 1014,9 hPa 0,0 l/m 3,4 km/h (1 Bft) O 94 0 min 0,000 mm 0,0 UV-I 0 W/m 18,4 C 21,6 C 4,8 km/h (1 Bft) 98,11 %
24.08.2017 20:22 21,4 C 23,3 C 82 % 1014,9 hPa 0,0 l/m 2,4 km/h (1 Bft) O 94 0 min 0,000 mm 0,0 UV-I 0 W/m 18,2 C 21,4 C 3,2 km/h (1 Bft) 97,56 %
24.08.2017 20:24 21,4 C 23,3 C 82 % 1014,9 hPa 0,0 l/m 1,5 km/h (1 Bft) O 94 0 min 0,000 mm 0,0 UV-I 0 W/m 18,2 C 21,4 C 4,8 km/h (1 Bft) 98,00 %
24.08.2017 20:26 21,3 C 23,3 C 82 % 1014,9 hPa 0,0 l/m 0,5 km/h (0 Bft) O 94 0 min 0,000 mm 0,0 UV-I 0 W/m 18,1 C 21,3 C 1,6 km/h (1 Bft) 97,56 %
24.08.2017 20:28 21,3 C 23,3 C 81 % 1014,9 hPa 0,0 l/m 0,0 km/h (0 Bft) O 94 0 min 0,000 mm 0,0 UV-I 0 W/m 17,9 C 21,3 C 0,0 km/h (0 Bft) 97,87 %
24.08.2017 20:30 21,2 C 23,3 C 81 % 1014,9 hPa 0,0 l/m 0,1 km/h (0 Bft) O 94 0 min 0,000 mm 0,0 UV-I 0 W/m 17,8 C 21,2 C 1,6 km/h (1 Bft) 94,00 %
24.08.2017 20:32 21,3 C 23,3 C 81 % 1014,9 hPa 0,0 l/m 0,1 km/h (0 Bft) O 94 0 min 0,000 mm 0,0 UV-I 0 W/m 17,9 C 21,3 C 1,6 km/h (1 Bft) 100,00 %
24.08.2017 20:34 21,3 C 23,3 C 81 % 1015,0 hPa 0,0 l/m 0,0 km/h (0 Bft) O 94 0 min 0,000 mm 0,0 UV-I 0 W/m 17,9 C 21,3 C 1,6 km/h (1 Bft) 97,87 %
24.08.2017 20:36 21,2 C 23,3 C 82 % 1014,9 hPa 0,0 l/m 0,7 km/h (0 Bft) O 94 0 min 0,000 mm 0,0 UV-I 0 W/m 18,0 C 21,2 C 3,2 km/h (1 Bft) 100,00 %
24.08.2017 20:38 21,2 C 23,3 C 81 % 1014,9 hPa 0,0 l/m 1,8 km/h (1 Bft) O 94 0 min 0,000 mm 0,0 UV-I 0 W/m 17,8 C 21,2 C 3,2 km/h (1 Bft) 97,62 %
24.08.2017 20:40 21,2 C 23,3 C 81 % 1015,0 hPa 0,0 l/m 0,5 km/h (0 Bft) O 94 0 min 0,000 mm 0,0 UV-I 0 W/m 17,8 C 21,2 C 1,6 km/h (1 Bft) 100,00 %
24.08.2017 20:42 21,1 C 23,3 C 82 % 1015,0 hPa 0,0 l/m 0,1 km/h (0 Bft) O 94 0 min 0,000 mm 0,0 UV-I 0 W/m 17,9 C 21,1 C 1,6 km/h (1 Bft) 100,00 %
24.08.2017 20:44 21,0 C 23,3 C 82 % 1015,0 hPa 0,0 l/m 0,4 km/h (0 Bft) O 94 0 min 0,000 mm 0,0 UV-I 0 W/m 17,8 C 21,0 C 1,6 km/h (1 Bft) 100,00 %
24.08.2017 20:46 21,0 C 23,3 C 82 % 1015,0 hPa 0,0 l/m 0,0 km/h (0 Bft) O 94 0 min 0,000 mm 0,0 UV-I 0 W/m 17,8 C 21,0 C 1,6 km/h (1 Bft) 100,00 %
24.08.2017 20:48 21,1 C 23,3 C 82 % 1015,0 hPa 0,0 l/m 0,0 km/h (0 Bft) O 94 0 min 0,000 mm 0,0 UV-I 0 W/m 17,9 C 21,1 C 0,0 km/h (0 Bft) 100,00 %
24.08.2017 20:50 21,1 C 23,3 C 82 % 1015,0 hPa 0,0 l/m 0,0 km/h (0 Bft) O 94 0 min 0,000 mm 0,0 UV-I 0 W/m 17,9 C 21,1 C 0,0 km/h (0 Bft) 100,00 %
24.08.2017 20:52 21,2 C 23,3 C 83 % 1015,0 hPa 0,0 l/m 0,0 km/h (0 Bft) O 94 0 min 0,000 mm 0,0 UV-I 0 W/m 18,2 C 21,2 C 0,0 km/h (0 Bft) 97,87 %
24.08.2017 20:54 21,2 C 23,3 C 83 % 1015,0 hPa 0,0 l/m 0,0 km/h (0 Bft) O 94 0 min 0,000 mm 0,0 UV-I 0 W/m 18,2 C 21,2 C 0,0 km/h (0 Bft) 97,87 %
24.08.2017 20:56 21,2 C 22,8 C 83 % 1015,1 hPa 0,0 l/m 0,0 km/h (0 Bft) O 94 0 min 0,000 mm 0,0 UV-I 0 W/m 18,2 C 21,2 C 0,0 km/h (0 Bft) 100,00 %
24.08.2017 20:58 21,2 C 22,8 C 83 % 1015,1 hPa 0,0 l/m 0,0 km/h (0 Bft) O 94 0 min 0,000 mm 0,0 UV-I 0 W/m 18,2 C 21,2 C 0,0 km/h (0 Bft) 97,56 %
24.08.2017 21:00 21,1 C 22,8 C 84 % 1015,1 hPa 0,0 l/m 0,0 km/h (0 Bft) O 94 0 min 0,000 mm 0,0 UV-I 0 W/m 18,3 C 21,1 C 0,0 km/h (0 Bft) 100,00 %
24.08.2017 21:02 21,1 C 22,8 C 84 % 1015,2 hPa 0,0 l/m 0,8 km/h (0 Bft) O 94 0 min 0,000 mm 0,0 UV-I 0 W/m 18,3 C 21,1 C 1,6 km/h (1 Bft) 100,00 %
24.08.2017 21:04 20,9 C 22,8 C 84 % 1015,2 hPa 0,0 l/m 0,9 km/h (0 Bft) O 94 0 min 0,000 mm 0,0 UV-I 0 W/m 18,1 C 20,9 C 1,6 km/h (1 Bft) 100,00 %
24.08.2017 21:06 20,7 C 22,8 C 84 % 1015,2 hPa 0,0 l/m 0,8 km/h (0 Bft) O 94 0 min 0,000 mm 0,0 UV-I 0 W/m 17,9 C 20,7 C 3,2 km/h (1 Bft) 97,73 %
24.08.2017 21:08 20,6 C 22,8 C 85 % 1015,2 hPa 0,0 l/m 2,0 km/h (1 Bft) O 94 0 min 0,000 mm 0,0 UV-I 0 W/m 18,0 C 20,6 C 3,2 km/h (1 Bft) 100,00 %
24.08.2017 21:10 20,6 C 22,8 C 85 % 1015,3 hPa 0,0 l/m 2,7 km/h (1 Bft) O 94 0 min 0,000 mm 0,0 UV-I 0 W/m 18,0 C 20,6 C 3,2 km/h (1 Bft) 100,00 %
24.08.2017 21:12 20,6 C 22,8 C 85 % 1015,2 hPa 0,0 l/m 2,1 km/h (1 Bft) O 94 0 min 0,000 mm 0,0 UV-I 0 W/m 18,0 C 20,6 C 3,2 km/h (1 Bft) 100,00 %
24.08.2017 21:14 20,6 C 22,8 C 85 % 1015,2 hPa 0,0 l/m 1,4 km/h (1 Bft) O 94 0 min 0,000 mm 0,0 UV-I 0 W/m 18,0 C 20,6 C 3,2 km/h (1 Bft) 93,62 %
24.08.2017 21:16 20,6 C 22,8 C 85 % 1015,2 hPa 0,0 l/m 1,4 km/h (1 Bft) O 94 0 min 0,000 mm 0,0 UV-I 0 W/m 18,0 C 20,6 C 1,6 km/h (1 Bft) 100,00 %
24.08.2017 21:18 20,6 C 22,8 C 85 % 1015,2 hPa 0,0 l/m 1,6 km/h (1 Bft) O 94 0 min 0,000 mm 0,0 UV-I 0 W/m 18,0 C 20,6 C 3,2 km/h (1 Bft) 97,22 %
24.08.2017 21:20 20,6 C 22,8 C 85 % 1015,2 hPa 0,0 l/m 1,8 km/h (1 Bft) O 94 0 min 0,000 mm 0,0 UV-I 0 W/m 18,0 C 20,6 C 3,2 km/h (1 Bft) 100,00 %
24.08.2017 21:22 20,6 C 22,8 C 85 % 1015,2 hPa 0,0 l/m 0,6 km/h (0 Bft) O 94 0 min 0,000 mm 0,0 UV-I 0 W/m 18,0 C 20,6 C 1,6 km/h (1 Bft) 98,11 %
24.08.2017 21:24 20,5 C 22,8 C 85 % 1015,2 hPa 0,0 l/m 0,5 km/h (0 Bft) O 94 0 min 0,000 mm 0,0 UV-I 0 W/m 17,9 C 20,5 C 3,2 km/h (1 Bft) 96,15 %
24.08.2017 21:26 20,4 C 22,8 C 85 % 1015,3 hPa 0,0 l/m 0,1 km/h (0 Bft) O 94 0 min 0,000 mm 0,0 UV-I 0 W/m 17,8 C 20,4 C 1,6 km/h (1 Bft) 96,92 %
24.08.2017 21:28 20,4 C 22,8 C 85 % 1015,3 hPa 0,0 l/m 0,0 km/h (0 Bft) O 94 0 min 0,000 mm 0,0 UV-I 0 W/m 17,8 C 20,4 C 0,0 km/h (0 Bft) 98,00 %
24.08.2017 21:30 20,4 C 22,8 C 85 % 1015,3 hPa 0,0 l/m 0,6 km/h (0 Bft) O 94 0 min 0,000 mm 0,0 UV-I 0 W/m 17,8 C 20,4 C 1,6 km/h (1 Bft) 97,37 %
24.08.2017 21:32 20,4 C 22,8 C 85 % 1015,4 hPa 0,0 l/m 2,2 km/h (1 Bft) O 94 0 min 0,000 mm 0,0 UV-I 0 W/m 17,8 C 20,4 C 3,2 km/h (1 Bft) 97,87 %
24.08.2017 21:34 20,4 C 22,8 C 85 % 1015,4 hPa 0,0 l/m 3,1 km/h (1 Bft) O 94 0 min 0,000 mm 0,0 UV-I 0 W/m 17,8 C 20,4 C 3,2 km/h (1 Bft) 96,00 %
24.08.2017 21:36 20,4 C 22,8 C 85 % 1015,3 hPa 0,0 l/m 1,8 km/h (1 Bft) O 94 0 min 0,000 mm 0,0 UV-I 0 W/m 17,8 C 20,4 C 3,2 km/h (1 Bft) 93,62 %
24.08.2017 21:38 20,3 C 22,8 C 85 % 1015,4 hPa 0,0 l/m 0,5 km/h (0 Bft) O 94 0 min 0,000 mm 0,0 UV-I 0 W/m 17,7 C 20,3 C 1,6 km/h (1 Bft) 98,11 %
24.08.2017 21:40 20,3 C 22,8 C 85 % 1015,4 hPa 0,0 l/m 0,4 km/h (0 Bft) O 94 0 min 0,000 mm 0,0 UV-I 0 W/m 17,7 C 20,3 C 1,6 km/h (1 Bft) 94,74 %
24.08.2017 21:42 20,3 C 22,8 C 85 % 1015,4 hPa 0,0 l/m 0,0 km/h (0 Bft) O 94 0 min 0,000 mm 0,0 UV-I 0 W/m 17,7 C 20,3 C 0,0 km/h (0 Bft) 97,87 %
24.08.2017 21:44 20,3 C 22,8 C 86 % 1015,4 hPa 0,0 l/m 0,0 km/h (0 Bft) O 94 0 min 0,000 mm 0,0 UV-I 0 W/m 17,9 C 20,3 C 0,0 km/h (0 Bft) 98,00 %
24.08.2017 21:46 20,3 C 22,8 C 86 % 1015,4 hPa 0,0 l/m 0,0 km/h (0 Bft) O 94 0 min 0,000 mm 0,0 UV-I 0 W/m 17,9 C 20,3 C 0,0 km/h (0 Bft) 97,87 %
24.08.2017 21:48 20,3 C 22,8 C 86 % 1015,4 hPa 0,0 l/m 0,0 km/h (0 Bft) O 94 0 min 0,000 mm 0,0 UV-I 0 W/m 17,9 C 20,3 C 0,0 km/h (0 Bft) 97,87 %
24.08.2017 21:50 20,3 C 22,8 C 86 % 1015,5 hPa 0,0 l/m 0,0 km/h (0 Bft) O 94 0 min 0,000 mm 0,0 UV-I 0 W/m 17,9 C 20,3 C 0,0 km/h (0 Bft) 95,74 %
24.08.2017 21:52 20,3 C 22,8 C 86 % 1015,5 hPa 0,0 l/m 0,0 km/h (0 Bft) O 94 0 min 0,000 mm 0,0 UV-I 0 W/m 17,9 C 20,3 C 1,6 km/h (1 Bft) 97,87 %
24.08.2017 21:54 20,2 C 22,8 C 86 % 1015,5 hPa 0,0 l/m 0,2 km/h (0 Bft) O 94 0 min 0,000 mm 0,0 UV-I 0 W/m 17,8 C 20,2 C 1,6 km/h (1 Bft) 97,87 %
24.08.2017 21:56 20,1 C 22,8 C 86 % 1015,6 hPa 0,0 l/m 1,0 km/h (0 Bft) O 94 0 min 0,000 mm 0,0 UV-I 0 W/m 17,7 C 20,1 C 1,6 km/h (1 Bft) 97,92 %
24.08.2017 21:58 20,0 C 22,8 C 86 % 1015,6 hPa 0,0 l/m 0,2 km/h (0 Bft) O 94 0 min 0,000 mm 0,0 UV-I 0 W/m 17,6 C 20,0 C 1,6 km/h (1 Bft) 97,87 %
24.08.2017 22:00 19,7 C 22,8 C 87 % 1015,6 hPa 0,0 l/m 1,2 km/h (1 Bft) O 94 0 min 0,000 mm 0,0 UV-I 0 W/m 17,5 C 19,7 C 3,2 km/h (1 Bft) 100,00 %
24.08.2017 22:02 19,6 C 22,8 C 88 % 1015,7 hPa 0,0 l/m 2,4 km/h (1 Bft) O 94 0 min 0,000 mm 0,0 UV-I 0 W/m 17,6 C 19,6 C 3,2 km/h (1 Bft) 100,00 %
24.08.2017 22:04 19,4 C 22,8 C 89 % 1015,8 hPa 0,0 l/m 2,3 km/h (1 Bft) O 93 0 min 0,000 mm 0,0 UV-I 0 W/m 17,5 C 19,4 C 4,8 km/h (1 Bft) 97,37 %
24.08.2017 22:06 19,4 C 22,8 C 89 % 1015,8 hPa 0,0 l/m 1,5 km/h (1 Bft) O 93 0 min 0,000 mm 0,0 UV-I 0 W/m 17,5 C 19,4 C 3,2 km/h (1 Bft) 100,00 %
24.08.2017 22:08 19,4 C 22,8 C 89 % 1015,9 hPa 0,0 l/m 1,0 km/h (0 Bft) O 93 0 min 0,000 mm 0,0 UV-I 0 W/m 17,5 C 19,4 C 1,6 km/h (1 Bft) 98,08 %
24.08.2017 22:10 19,5 C 22,8 C 89 % 1015,9 hPa 0,0 l/m 1,4 km/h (1 Bft) O 93 0 min 0,000 mm 0,0 UV-I 0 W/m 17,6 C 19,5 C 3,2 km/h (1 Bft) 100,00 %
24.08.2017 22:12 19,6 C 22,8 C 89 % 1015,9 hPa 0,0 l/m 1,0 km/h (0 Bft) O 93 0 min 0,000 mm 0,0 UV-I 0 W/m 17,7 C 19,6 C 3,2 km/h (1 Bft) 100,00 %
24.08.2017 22:14 19,6 C 22,8 C 89 % 1016,0 hPa 0,0 l/m 1,2 km/h (1 Bft) O 93 0 min 0,000 mm 0,0 UV-I 0 W/m 17,7 C 19,6 C 3,2 km/h (1 Bft) 100,00 %
24.08.2017 22:16 19,6 C 22,8 C 88 % 1016,1 hPa 0,0 l/m 2,9 km/h (1 Bft) O 94 0 min 0,000 mm 0,0 UV-I 0 W/m 17,6 C 19,6 C 4,8 km/h (1 Bft) 100,00 %
24.08.2017 22:18 19,6 C 22,8 C 88 % 1016,1 hPa 0,0 l/m 4,1 km/h (1 Bft) S-SW 194 0 min 0,000 mm 0,0 UV-I 0 W/m 17,6 C 19,6 C 6,4 km/h (2 Bft) 100,00 %
24.08.2017 22:20 19,7 C 22,8 C 88 % 1016,1 hPa 0,0 l/m 3,7 km/h (1 Bft) S-SW 207 0 min 0,000 mm 0,0 UV-I 0 W/m 17,7 C 19,7 C 4,8 km/h (1 Bft) 96,23 %
24.08.2017 22:22 19,7 C 22,8 C 88 % 1016,1 hPa 0,0 l/m 4,2 km/h (1 Bft) S-SW 208 0 min 0,000 mm 0,0 UV-I 0 W/m 17,7 C 19,7 C 6,4 km/h (2 Bft) 97,14 %
24.08.2017 22:24 19,9 C 22,8 C 88 % 1016,1 hPa 0,0 l/m 3,8 km/h (1 Bft) S-SW 208 0 min 0,000 mm 0,0 UV-I 0 W/m 17,8 C 19,9 C 6,4 km/h (2 Bft) 98,00 %
24.08.2017 22:26 20,1 C 22,8 C 87 % 1016,1 hPa 0,0 l/m 4,3 km/h (1 Bft) S-SW 208 0 min 0,000 mm 0,0 UV-I 0 W/m 17,9 C 20,1 C 4,8 km/h (1 Bft) 100,00 %
24.08.2017 22:28 20,2 C 22,8 C 86 % 1016,2 hPa 0,0 l/m 4,3 km/h (1 Bft) S-SW 208 0 min 0,000 mm 0,0 UV-I 0 W/m 17,8 C 20,2 C 6,4 km/h (2 Bft) 100,00 %
24.08.2017 22:30 20,2 C 22,8 C 86 % 1016,2 hPa 0,0 l/m 2,5 km/h (1 Bft) S-SW 208 0 min 0,000 mm 0,0 UV-I 0 W/m 17,8 C 20,2 C 4,8 km/h (1 Bft) 98,00 %
24.08.2017 22:32 20,3 C 22,8 C 86 % 1016,3 hPa 0,0 l/m 3,5 km/h (1 Bft) S-SW 208 0 min 0,000 mm 0,0 UV-I 0 W/m 17,9 C 20,3 C 4,8 km/h (1 Bft) 100,00 %
24.08.2017 22:34 20,3 C 22,8 C 86 % 1016,4 hPa 0,0 l/m 4,1 km/h (1 Bft) S-SW 208 0 min 0,000 mm 0,0 UV-I 0 W/m 17,9 C 20,3 C 6,4 km/h (2 Bft) 100,00 %
24.08.2017 22:36 20,3 C 22,8 C 86 % 1016,4 hPa 0,0 l/m 3,9 km/h (1 Bft) S-SW 208 0 min 0,000 mm 0,0 UV-I 0 W/m 17,9 C 20,3 C 6,4 km/h (2 Bft) 100,00 %
24.08.2017 22:38 20,4 C 22,8 C 85 % 1016,4 hPa 0,0 l/m 1,7 km/h (1 Bft) S-SW 208 0 min 0,000 mm 0,0 UV-I 0 W/m 17,8 C 20,4 C 4,8 km/h (1 Bft) 100,00 %
24.08.2017 22:40 20,4 C 22,8 C 85 % 1016,4 hPa 0,0 l/m 2,2 km/h (1 Bft) S-SW 208 0 min 0,000 mm 0,0 UV-I 0 W/m 17,8 C 20,4 C 3,2 km/h (1 Bft) 100,00 %
24.08.2017 22:42 20,4 C 22,8 C 85 % 1016,5 hPa 0,0 l/m 4,0 km/h (1 Bft) S-SW 208 0 min 0,000 mm 0,0 UV-I 0 W/m 17,8 C 20,4 C 6,4 km/h (2 Bft) 100,00 %
24.08.2017 22:44 20,3 C 22,8 C 85 % 1016,6 hPa 0,0 l/m 3,1 km/h (1 Bft) S-SW 208 0 min 0,000 mm 0,0 UV-I 0 W/m 17,7 C 20,3 C 4,8 km/h (1 Bft) 95,74 %
24.08.2017 22:46 20,3 C 22,8 C 86 % 1016,6 hPa 0,0 l/m 3,3 km/h (1 Bft) S-SW 208 0 min 0,000 mm 0,0 UV-I 0 W/m 17,9 C 20,3 C 6,4 km/h (2 Bft) 100,00 %
24.08.2017 22:48 20,3 C 22,8 C 86 % 1016,7 hPa 0,0 l/m 3,9 km/h (1 Bft) S 190 0 min 0,000 mm 0,0 UV-I 0 W/m 17,9 C 20,3 C 6,4 km/h (2 Bft) 100,00 %
24.08.2017 22:50 20,3 C 22,8 C 86 % 1016,8 hPa 0,0 l/m 6,6 km/h (2 Bft) S-SW 211 0 min 0,000 mm 0,0 UV-I 0 W/m 17,9 C 20,2 C 9,7 km/h (2 Bft) 100,00 %
24.08.2017 22:52 20,4 C 22,8 C 86 % 1016,8 hPa 0,0 l/m 5,9 km/h (2 Bft) S-SW 202 0 min 0,000 mm 0,0 UV-I 0 W/m 18,0 C 20,4 C 9,7 km/h (2 Bft) 100,00 %
24.08.2017 22:54 20,4 C 22,8 C 86 % 1016,9 hPa 0,0 l/m 5,9 km/h (2 Bft) SW 219 0 min 0,000 mm 0,0 UV-I 0 W/m 18,0 C 20,4 C 8,0 km/h (2 Bft) 100,00 %
24.08.2017 22:56 20,5 C 22,8 C 86 % 1016,9 hPa 0,0 l/m 4,2 km/h (1 Bft) S-SW 209 0 min 0,000 mm 0,0 UV-I 0 W/m 18,1 C 20,5 C 8,0 km/h (2 Bft) 100,00 %
24.08.2017 22:58 20,6 C 22,8 C 86 % 1016,9 hPa 0,0 l/m 3,0 km/h (1 Bft) S-SW 209 0 min 0,000 mm 0,0 UV-I 0 W/m 18,2 C 20,6 C 4,8 km/h (1 Bft) 100,00 %
24.08.2017 23:00 20,6 C 22,8 C 85 % 1017,0 hPa 0,0 l/m 2,7 km/h (1 Bft) S-SW 209 0 min 0,000 mm 0,0 UV-I 0 W/m 18,0 C 20,6 C 3,2 km/h (1 Bft) 100,00 %
24.08.2017 23:02 20,6 C 22,8 C 85 % 1017,0 hPa 0,0 l/m 0,8 km/h (0 Bft) S-SW 209 0 min 0,000 mm 0,0 UV-I 0 W/m 18,0 C 20,6 C 3,2 km/h (1 Bft) 100,00 %
24.08.2017 23:04 20,6 C 22,8 C 85 % 1017,0 hPa 0,0 l/m 1,5 km/h (1 Bft) S-SW 209 0 min 0,000 mm 0,0 UV-I 0 W/m 18,0 C 20,6 C 4,8 km/h (1 Bft) 100,00 %
24.08.2017 23:06 20,5 C 22,8 C 85 % 1017,1 hPa 0,0 l/m 4,2 km/h (1 Bft) SW 227 0 min 0,000 mm 0,0 UV-I 0 W/m 17,9 C 20,5 C 8,0 km/h (2 Bft) 98,00 %
24.08.2017 23:08 20,5 C 22,8 C 86 % 1017,1 hPa 0,0 l/m 3,6 km/h (1 Bft) SW 224 0 min 0,000 mm 0,0 UV-I 0 W/m 18,1 C 20,5 C 8,0 km/h (2 Bft) 98,00 %
24.08.2017 23:10 20,4 C 22,8 C 86 % 1017,2 hPa 0,0 l/m 4,7 km/h (1 Bft) SW 224 0 min 0,000 mm 0,0 UV-I 0 W/m 18,0 C 20,4 C 8,0 km/h (2 Bft) 100,00 %
24.08.2017 23:12 20,4 C 22,8 C 86 % 1017,3 hPa 0,0 l/m 5,7 km/h (1 Bft) SW 226 0 min 0,000 mm 0,0 UV-I 0 W/m 18,0 C 20,4 C 8,0 km/h (2 Bft) 100,00 %
24.08.2017 23:14 20,4 C 22,8 C 87 % 1017,4 hPa 0,0 l/m 8,9 km/h (2 Bft) W-SW 244 0 min 0,000 mm 0,0 UV-I 0 W/m 18,2 C 19,4 C 12,9 km/h (3 Bft) 100,00 %
24.08.2017 23:16 20,4 C 22,8 C 87 % 1017,9 hPa 0,0 l/m 14,2 km/h (3 Bft) S-SW 194 0 min 0,000 mm 0,0 UV-I 0 W/m 18,2 C 17,9 C 20,9 km/h (4 Bft) 100,00 %
24.08.2017 23:18 20,4 C 22,8 C 87 % 1018,1 hPa 0,0 l/m 21,4 km/h (4 Bft) W 269 0 min 0,000 mm 0,0 UV-I 0 W/m 18,2 C 16,5 C 30,6 km/h (5 Bft) 98,11 %
24.08.2017 23:20 20,5 C 22,8 C 86 % 1018,1 hPa 0,0 l/m 17,3 km/h (3 Bft) W-SW 241 0 min 0,000 mm 0,0 UV-I 0 W/m 18,1 C 17,4 C 27,4 km/h (4 Bft) 97,56 %
24.08.2017 23:22 20,6 C 22,8 C 85 % 1018,2 hPa 0,0 l/m 18,7 km/h (3 Bft) W-SW 244 0 min 0,000 mm 0,0 UV-I 0 W/m 18,0 C 17,2 C 29,0 km/h (5 Bft) 97,56 %
24.08.2017 23:24 20,7 C 22,8 C 81 % 1018,4 hPa 0,0 l/m 16,1 km/h (3 Bft) W-SW 255 0 min 0,000 mm 0,0 UV-I 0 W/m 17,3 C 17,9 C 22,5 km/h (4 Bft) 96,43 %
24.08.2017 23:26 20,9 C 22,8 C 77 % 1018,3 hPa 0,0 l/m 25,5 km/h (4 Bft) W-SW 243 0 min 0,000 mm 0,0 UV-I 0 W/m 16,7 C 16,5 C 35,4 km/h (5 Bft) 98,21 %
24.08.2017 23:28 21,1 C 22,8 C 77 % 1018,6 hPa 0,0 l/m 20,0 km/h (4 Bft) W-SW 250 0 min 0,000 mm 0,0 UV-I 0 W/m 16,9 C 17,6 C 27,4 km/h (4 Bft) 91,43 %
24.08.2017 23:30 21,2 C 22,8 C 76 % 1018,7 hPa 0,0 l/m 26,8 km/h (4 Bft) SW 231 0 min 0,000 mm 0,0 UV-I 0 W/m 16,8 C 16,8 C 40,2 km/h (6 Bft) 96,61 %
24.08.2017 23:32 21,3 C 22,8 C 73 % 1018,7 hPa 0,0 l/m 26,7 km/h (4 Bft) S-SW 208 0 min 0,000 mm 0,0 UV-I 0 W/m 16,3 C 16,9 C 37,0 km/h (5 Bft) 95,12 %
24.08.2017 23:34 21,3 C 22,8 C 71 % 1018,7 hPa 0,0 l/m 27,5 km/h (4 Bft) SW 219 0 min 0,000 mm 0,0 UV-I 0 W/m 15,8 C 16,8 C 45,1 km/h (6 Bft) 94,34 %
24.08.2017 23:36 21,2 C 22,8 C 69 % 1018,6 hPa 0,0 l/m 29,2 km/h (5 Bft) SW 220 0 min 0,000 mm 0,0 UV-I 0 W/m 15,3 C 16,5 C 45,1 km/h (6 Bft) 95,12 %
24.08.2017 23:38 21,1 C 22,8 C 69 % 1018,8 hPa 0,0 l/m 25,2 km/h (4 Bft) S 188 0 min 0,000 mm 0,0 UV-I 0 W/m 15,2 C 16,8 C 38,6 km/h (5 Bft) 95,12 %
24.08.2017 23:40 20,9 C 22,8 C 69 % 1018,7 hPa 0,0 l/m 26,7 km/h (4 Bft) W-SW 245 0 min 0,000 mm 0,0 UV-I 0 W/m 15,0 C 16,4 C 49,9 km/h (6 Bft) 96,00 %
24.08.2017 23:42 20,8 C 22,8 C 69 % 1018,8 hPa 0,0 l/m 27,6 km/h (4 Bft) SW 219 0 min 0,000 mm 0,0 UV-I 0 W/m 14,9 C 16,1 C 40,2 km/h (6 Bft) 94,34 %
24.08.2017 23:44 20,7 C 22,8 C 69 % 1018,8 hPa 0,0 l/m 27,0 km/h (4 Bft) W-SW 254 0 min 0,000 mm 0,0 UV-I 0 W/m 14,8 C 16,1 C 38,6 km/h (5 Bft) 95,12 %
24.08.2017 23:46 20,6 C 22,8 C 69 % 1018,8 hPa 0,0 l/m 26,7 km/h (4 Bft) SW 219 0 min 0,000 mm 0,0 UV-I 0 W/m 14,7 C 16,0 C 40,2 km/h (6 Bft) 90,48 %
24.08.2017 23:48 20,6 C 22,8 C 69 % 1018,9 hPa 0,0 l/m 25,7 km/h (4 Bft) SW 235 0 min 0,000 mm 0,0 UV-I 0 W/m 14,7 C 16,1 C 43,5 km/h (6 Bft) 94,44 %
24.08.2017 23:50 20,5 C 22,8 C 70 % 1019,0 hPa 0,0 l/m 25,2 km/h (4 Bft) W 265 0 min 0,000 mm 0,0 UV-I 0 W/m 14,8 C 16,0 C 49,9 km/h (6 Bft) 94,34 %
24.08.2017 23:52 20,4 C 22,8 C 70 % 1018,9 hPa 0,0 l/m 21,7 km/h (4 Bft) W-SW 242 0 min 0,000 mm 0,0 UV-I 0 W/m 14,7 C 16,4 C 30,6 km/h (5 Bft) 95,45 %
24.08.2017 23:54 20,3 C 22,8 C 70 % 1018,9 hPa 0,0 l/m 22,6 km/h (4 Bft) W-SW 238 0 min 0,000 mm 0,0 UV-I 0 W/m 14,6 C 16,2 C 30,6 km/h (5 Bft) 94,87 %
24.08.2017 23:56 20,3 C 22,8 C 71 % 1019,1 hPa 0,0 l/m 23,2 km/h (4 Bft) W 265 0 min 0,000 mm 0,0 UV-I 0 W/m 14,9 C 16,1 C 35,4 km/h (5 Bft) 96,00 %
24.08.2017 23:58 20,2 C 22,8 C 71 % 1019,2 hPa 0,0 l/m 24,6 km/h (4 Bft) SW 228 0 min 0,000 mm 0,0 UV-I 0 W/m 14,8 C 15,7 C 37,0 km/h (5 Bft) 95,65 %
_ Min-Zeit 05:18 04:06 16:44 19:00 - 00:24 - - - - - - 05:18 05:18 00:24 23:46
Minimum _ 10,7 C 21,1 C 55 % 1014,8 hPa - 0,0 km/h (0 Bft) - - - - - - 9,8 C 10,7 C 0,0 km/h (0 Bft) 90,48 %
_ Max-Zeit 17:36 16:48 07:04 23:58 00:01 23:36 - - 10:33 14:00 12:18 12:18 19:28 17:48 23:40 00:01
Maximum _ 27,1 C 23,3 C 96 % 1019,2 hPa 0,0 l/m 29,2 km/h
SW (5 Bft)
- - 3 min 0,457 mm 5,1 UV-I 881 W/m 19,7 C 27,1 C 49,9 km/h
SW (6 Bft)
100,00 %
Durchschnitt _ 18,8 C 22,1 C 79 % 1016,3 hPa #0,0 l/m 2,7 km/h (1 Bft) O - #12:32 h #3,683 mm 2,8 UV-I 412 W/m 14,7 C 18,6 C 5,0 km/h (1 Bft) 98,08 %